<?xml version='1.0' encoding='UTF-8'?>
<gpx version="1.1" creator="https://www.komoot.de" xmlns="http://www.topografix.com/GPX/1/1" xmlns:xsi="http://www.w3.org/2001/XMLSchema-instance" xsi:schemaLocation="http://www.topografix.com/GPX/1/1 http://www.topografix.com/GPX/1/1/gpx.xsd">
  <metadata>
    <name>50_740TecknauFrick</name>
    <author>
      <link href="https://www.komoot.de">
        <text>komoot</text>
        <type>text/html</type>
      </link>
    </author>
  </metadata>
  <trk>
    <name>50_740TecknauFrick</name>
    <trkseg>
      <trkpt lat="47.541342" lon="7.870847">
        <ele>342.536850</ele>
        <time>2021-11-11T21:05:15.139Z</time>
      </trkpt>
      <trkpt lat="47.540933" lon="7.871187">
        <ele>342.536850</ele>
        <time>2021-11-11T21:05:25.788Z</time>
      </trkpt>
      <trkpt lat="47.540894" lon="7.871220">
        <ele>342.536850</ele>
        <time>2021-11-11T21:05:26.921Z</time>
      </trkpt>
      <trkpt lat="47.540693" lon="7.871390">
        <ele>342.536850</ele>
        <time>2021-11-11T21:05:32.311Z</time>
      </trkpt>
      <trkpt lat="47.540463" lon="7.871584">
        <ele>342.740286</ele>
        <time>2021-11-11T21:05:38.488Z</time>
      </trkpt>
      <trkpt lat="47.540265" lon="7.871808">
        <ele>343.198057</ele>
        <time>2021-11-11T21:05:43.976Z</time>
      </trkpt>
      <trkpt lat="47.540265" lon="7.871808">
        <ele>343.198057</ele>
        <time>2021-11-11T21:05:44.244Z</time>
      </trkpt>
      <trkpt lat="47.540265" lon="7.871808">
        <ele>343.198057</ele>
        <time>2021-11-11T21:05:44.347Z</time>
      </trkpt>
      <trkpt lat="47.540216" lon="7.871851">
        <ele>343.302703</ele>
        <time>2021-11-11T21:05:45.807Z</time>
      </trkpt>
      <trkpt lat="47.540034" lon="7.871970">
        <ele>343.668240</ele>
        <time>2021-11-11T21:05:50.374Z</time>
      </trkpt>
      <trkpt lat="47.539930" lon="7.872041">
        <ele>343.878648</ele>
        <time>2021-11-11T21:05:52.948Z</time>
      </trkpt>
      <trkpt lat="47.539841" lon="7.872151">
        <ele>344.091624</ele>
        <time>2021-11-11T21:05:55.970Z</time>
      </trkpt>
      <trkpt lat="47.539678" lon="7.872430">
        <ele>344.549297</ele>
        <time>2021-11-11T21:06:01.479Z</time>
      </trkpt>
      <trkpt lat="47.539222" lon="7.873416">
        <ele>345.946889</ele>
        <time>2021-11-11T21:06:19.017Z</time>
      </trkpt>
      <trkpt lat="47.538278" lon="7.874319">
        <ele>347.089338</ele>
        <time>2021-11-11T21:06:38.670Z</time>
      </trkpt>
      <trkpt lat="47.537716" lon="7.874966">
        <ele>347.936980</ele>
        <time>2021-11-11T21:06:52.646Z</time>
      </trkpt>
      <trkpt lat="47.537261" lon="7.875237">
        <ele>348.868921</ele>
        <time>2021-11-11T21:07:02.162Z</time>
      </trkpt>
      <trkpt lat="47.537182" lon="7.875293">
        <ele>349.035354</ele>
        <time>2021-11-11T21:07:04.151Z</time>
      </trkpt>
      <trkpt lat="47.536921" lon="7.875537">
        <ele>349.621870</ele>
        <time>2021-11-11T21:07:10.118Z</time>
      </trkpt>
      <trkpt lat="47.536757" lon="7.875759">
        <ele>350.044068</ele>
        <time>2021-11-11T21:07:14.720Z</time>
      </trkpt>
      <trkpt lat="47.536632" lon="7.875912">
        <ele>350.352220</ele>
        <time>2021-11-11T21:07:17.888Z</time>
      </trkpt>
      <trkpt lat="47.536444" lon="7.876177">
        <ele>350.845402</ele>
        <time>2021-11-11T21:07:24.849Z</time>
      </trkpt>
      <trkpt lat="47.535851" lon="7.877319">
        <ele>355.132911</ele>
        <time>2021-11-11T21:07:56.163Z</time>
      </trkpt>
      <trkpt lat="47.535770" lon="7.877432">
        <ele>355.665618</ele>
        <time>2021-11-11T21:08:00.343Z</time>
      </trkpt>
      <trkpt lat="47.535635" lon="7.877484">
        <ele>356.333426</ele>
        <time>2021-11-11T21:08:06.210Z</time>
      </trkpt>
      <trkpt lat="47.535551" lon="7.877487">
        <ele>356.735692</ele>
        <time>2021-11-11T21:08:08.119Z</time>
      </trkpt>
      <trkpt lat="47.535322" lon="7.877590">
        <ele>357.881462</ele>
        <time>2021-11-11T21:08:18.171Z</time>
      </trkpt>
      <trkpt lat="47.535088" lon="7.877742">
        <ele>359.104730</ele>
        <time>2021-11-11T21:08:26.002Z</time>
      </trkpt>
      <trkpt lat="47.534855" lon="7.878090">
        <ele>360.742064</ele>
        <time>2021-11-11T21:08:37.985Z</time>
      </trkpt>
      <trkpt lat="47.534778" lon="7.878270">
        <ele>361.467844</ele>
        <time>2021-11-11T21:08:45.293Z</time>
      </trkpt>
      <trkpt lat="47.534825" lon="7.878414">
        <ele>362.012611</ele>
        <time>2021-11-11T21:08:47.919Z</time>
      </trkpt>
      <trkpt lat="47.534946" lon="7.878790">
        <ele>363.431296</ele>
        <time>2021-11-11T21:08:59.967Z</time>
      </trkpt>
      <trkpt lat="47.534908" lon="7.878975">
        <ele>364.089917</ele>
        <time>2021-11-11T21:09:04.025Z</time>
      </trkpt>
      <trkpt lat="47.534616" lon="7.879490">
        <ele>366.380503</ele>
        <time>2021-11-11T21:09:20.971Z</time>
      </trkpt>
      <trkpt lat="47.533892" lon="7.880353">
        <ele>369.835381</ele>
        <time>2021-11-11T21:09:48.711Z</time>
      </trkpt>
      <trkpt lat="47.533606" lon="7.880961">
        <ele>371.003197</ele>
        <time>2021-11-11T21:10:01.020Z</time>
      </trkpt>
      <trkpt lat="47.533374" lon="7.881639">
        <ele>372.201102</ele>
        <time>2021-11-11T21:10:12.065Z</time>
      </trkpt>
      <trkpt lat="47.533014" lon="7.882949">
        <ele>372.930033</ele>
        <time>2021-11-11T21:10:29.980Z</time>
      </trkpt>
      <trkpt lat="47.532859" lon="7.883508">
        <ele>372.902866</ele>
        <time>2021-11-11T21:10:35.858Z</time>
      </trkpt>
      <trkpt lat="47.532713" lon="7.884122">
        <ele>372.873602</ele>
        <time>2021-11-11T21:10:41.555Z</time>
      </trkpt>
      <trkpt lat="47.532699" lon="7.884224">
        <ele>372.868923</ele>
        <time>2021-11-11T21:10:42.509Z</time>
      </trkpt>
      <trkpt lat="47.532670" lon="7.884773">
        <ele>372.672910</ele>
        <time>2021-11-11T21:10:47.003Z</time>
      </trkpt>
      <trkpt lat="47.532658" lon="7.884989">
        <ele>372.446704</ele>
        <time>2021-11-11T21:10:48.615Z</time>
      </trkpt>
      <trkpt lat="47.532650" lon="7.885569">
        <ele>371.841219</ele>
        <time>2021-11-11T21:10:53.117Z</time>
      </trkpt>
      <trkpt lat="47.532505" lon="7.887120">
        <ele>370.206958</ele>
        <time>2021-11-11T21:11:05.069Z</time>
      </trkpt>
      <trkpt lat="47.532288" lon="7.887728">
        <ele>369.466761</ele>
        <time>2021-11-11T21:11:10.245Z</time>
      </trkpt>
      <trkpt lat="47.532011" lon="7.888896">
        <ele>368.124950</ele>
        <time>2021-11-11T21:11:19.475Z</time>
      </trkpt>
      <trkpt lat="47.531843" lon="7.889349">
        <ele>367.564751</ele>
        <time>2021-11-11T21:11:23.512Z</time>
      </trkpt>
      <trkpt lat="47.531560" lon="7.889776">
        <ele>367.179667</ele>
        <time>2021-11-11T21:11:28.452Z</time>
      </trkpt>
      <trkpt lat="47.531265" lon="7.889937">
        <ele>367.171553</ele>
        <time>2021-11-11T21:11:32.420Z</time>
      </trkpt>
      <trkpt lat="47.531076" lon="7.890029">
        <ele>367.166419</ele>
        <time>2021-11-11T21:11:35.261Z</time>
      </trkpt>
      <trkpt lat="47.530606" lon="7.890373">
        <ele>367.152890</ele>
        <time>2021-11-11T21:11:43.110Z</time>
      </trkpt>
      <trkpt lat="47.530322" lon="7.890690">
        <ele>367.143712</ele>
        <time>2021-11-11T21:11:49.103Z</time>
      </trkpt>
      <trkpt lat="47.529972" lon="7.891210">
        <ele>367.405709</ele>
        <time>2021-11-11T21:11:58.265Z</time>
      </trkpt>
      <trkpt lat="47.529714" lon="7.891609">
        <ele>367.794728</ele>
        <time>2021-11-11T21:12:05.599Z</time>
      </trkpt>
      <trkpt lat="47.529695" lon="7.891638">
        <ele>367.823182</ele>
        <time>2021-11-11T21:12:06.586Z</time>
      </trkpt>
      <trkpt lat="47.529235" lon="7.892158">
        <ele>368.426687</ele>
        <time>2021-11-11T21:12:17.519Z</time>
      </trkpt>
      <trkpt lat="47.528331" lon="7.892682">
        <ele>369.604222</ele>
        <time>2021-11-11T21:12:36.222Z</time>
      </trkpt>
      <trkpt lat="47.528003" lon="7.892732">
        <ele>370.081466</ele>
        <time>2021-11-11T21:12:41.928Z</time>
      </trkpt>
      <trkpt lat="47.527498" lon="7.892650">
        <ele>370.816765</ele>
        <time>2021-11-11T21:12:51.401Z</time>
      </trkpt>
      <trkpt lat="47.527011" lon="7.893061">
        <ele>371.638549</ele>
        <time>2021-11-11T21:13:04.593Z</time>
      </trkpt>
      <trkpt lat="47.526709" lon="7.893617">
        <ele>372.977147</ele>
        <time>2021-11-11T21:13:17.125Z</time>
      </trkpt>
      <trkpt lat="47.526504" lon="7.894030">
        <ele>373.938724</ele>
        <time>2021-11-11T21:13:27.306Z</time>
      </trkpt>
      <trkpt lat="47.526451" lon="7.893983">
        <ele>374.110347</ele>
        <time>2021-11-11T21:13:28.695Z</time>
      </trkpt>
      <trkpt lat="47.526401" lon="7.893964">
        <ele>374.253756</ele>
        <time>2021-11-11T21:13:29.513Z</time>
      </trkpt>
      <trkpt lat="47.526335" lon="7.893960">
        <ele>374.437269</ele>
        <time>2021-11-11T21:13:31.586Z</time>
      </trkpt>
      <trkpt lat="47.526257" lon="7.894278">
        <ele>375.071966</ele>
        <time>2021-11-11T21:13:37.798Z</time>
      </trkpt>
      <trkpt lat="47.525725" lon="7.895110">
        <ele>376.962719</ele>
        <time>2021-11-11T21:13:56.880Z</time>
      </trkpt>
      <trkpt lat="47.525603" lon="7.895265">
        <ele>377.219187</ele>
        <time>2021-11-11T21:14:02.496Z</time>
      </trkpt>
      <trkpt lat="47.525631" lon="7.895442">
        <ele>377.415045</ele>
        <time>2021-11-11T21:14:05.346Z</time>
      </trkpt>
      <trkpt lat="47.525631" lon="7.895583">
        <ele>377.566955</ele>
        <time>2021-11-11T21:14:06.538Z</time>
      </trkpt>
      <trkpt lat="47.525622" lon="7.895944">
        <ele>377.956153</ele>
        <time>2021-11-11T21:14:13.961Z</time>
      </trkpt>
      <trkpt lat="47.525590" lon="7.896117">
        <ele>378.149406</ele>
        <time>2021-11-11T21:14:15.495Z</time>
      </trkpt>
      <trkpt lat="47.525518" lon="7.896336">
        <ele>378.411831</ele>
        <time>2021-11-11T21:14:20.253Z</time>
      </trkpt>
      <trkpt lat="47.524834" lon="7.897636">
        <ele>379.465471</ele>
        <time>2021-11-11T21:14:37.166Z</time>
      </trkpt>
      <trkpt lat="47.524617" lon="7.898216">
        <ele>379.447373</ele>
        <time>2021-11-11T21:14:43.300Z</time>
      </trkpt>
      <trkpt lat="47.524617" lon="7.898216">
        <ele>379.447373</ele>
        <time>2021-11-11T21:14:43.333Z</time>
      </trkpt>
      <trkpt lat="47.524360" lon="7.898951">
        <ele>379.424781</ele>
        <time>2021-11-11T21:14:50.834Z</time>
      </trkpt>
      <trkpt lat="47.524309" lon="7.899115">
        <ele>379.419853</ele>
        <time>2021-11-11T21:14:52.697Z</time>
      </trkpt>
      <trkpt lat="47.523896" lon="7.900001">
        <ele>380.223221</ele>
        <time>2021-11-11T21:15:04.632Z</time>
      </trkpt>
      <trkpt lat="47.523861" lon="7.900049">
        <ele>380.301021</ele>
        <time>2021-11-11T21:15:05.737Z</time>
      </trkpt>
      <trkpt lat="47.523890" lon="7.900131">
        <ele>380.402966</ele>
        <time>2021-11-11T21:15:06.691Z</time>
      </trkpt>
      <trkpt lat="47.523945" lon="7.900256">
        <ele>380.567276</ele>
        <time>2021-11-11T21:15:08.282Z</time>
      </trkpt>
      <trkpt lat="47.523989" lon="7.900340">
        <ele>380.684357</ele>
        <time>2021-11-11T21:15:09.332Z</time>
      </trkpt>
      <trkpt lat="47.523957" lon="7.900371">
        <ele>380.746722</ele>
        <time>2021-11-11T21:15:10.037Z</time>
      </trkpt>
      <trkpt lat="47.523878" lon="7.900445">
        <ele>380.899176</ele>
        <time>2021-11-11T21:15:12.154Z</time>
      </trkpt>
      <trkpt lat="47.523739" lon="7.900557">
        <ele>381.157258</ele>
        <time>2021-11-11T21:15:15.085Z</time>
      </trkpt>
      <trkpt lat="47.523648" lon="7.900606">
        <ele>381.315178</ele>
        <time>2021-11-11T21:15:17.264Z</time>
      </trkpt>
      <trkpt lat="47.523620" lon="7.900698">
        <ele>381.426316</ele>
        <time>2021-11-11T21:15:19.228Z</time>
      </trkpt>
      <trkpt lat="47.523567" lon="7.900820">
        <ele>381.586081</ele>
        <time>2021-11-11T21:15:21.325Z</time>
      </trkpt>
      <trkpt lat="47.523433" lon="7.901043">
        <ele>381.914835</ele>
        <time>2021-11-11T21:15:26.569Z</time>
      </trkpt>
      <trkpt lat="47.523340" lon="7.901197">
        <ele>382.142368</ele>
        <time>2021-11-11T21:15:30.611Z</time>
      </trkpt>
      <trkpt lat="47.523036" lon="7.901580">
        <ele>383.488660</ele>
        <time>2021-11-11T21:15:42.307Z</time>
      </trkpt>
      <trkpt lat="47.522688" lon="7.901843">
        <ele>385.112018</ele>
        <time>2021-11-11T21:15:54.705Z</time>
      </trkpt>
      <trkpt lat="47.522554" lon="7.901999">
        <ele>385.820246</ele>
        <time>2021-11-11T21:16:01.215Z</time>
      </trkpt>
      <trkpt lat="47.522260" lon="7.902356">
        <ele>387.400003</ele>
        <time>2021-11-11T21:16:13.680Z</time>
      </trkpt>
      <trkpt lat="47.522132" lon="7.902476">
        <ele>388.029467</ele>
        <time>2021-11-11T21:16:18.150Z</time>
      </trkpt>
      <trkpt lat="47.522065" lon="7.902526">
        <ele>388.341205</ele>
        <time>2021-11-11T21:16:20.425Z</time>
      </trkpt>
      <trkpt lat="47.522038" lon="7.902562">
        <ele>388.492165</ele>
        <time>2021-11-11T21:16:21.985Z</time>
      </trkpt>
      <trkpt lat="47.522013" lon="7.902637">
        <ele>388.726847</ele>
        <time>2021-11-11T21:16:24.106Z</time>
      </trkpt>
      <trkpt lat="47.521792" lon="7.903347">
        <ele>390.612946</ele>
        <time>2021-11-11T21:16:40.025Z</time>
      </trkpt>
      <trkpt lat="47.521701" lon="7.903525">
        <ele>391.064731</ele>
        <time>2021-11-11T21:16:45.261Z</time>
      </trkpt>
      <trkpt lat="47.521297" lon="7.904312">
        <ele>393.065241</ele>
        <time>2021-11-11T21:17:04.134Z</time>
      </trkpt>
      <trkpt lat="47.520989" lon="7.905130">
        <ele>394.960511</ele>
        <time>2021-11-11T21:17:19.454Z</time>
      </trkpt>
      <trkpt lat="47.520678" lon="7.906050">
        <ele>395.568938</ele>
        <time>2021-11-11T21:17:32.714Z</time>
      </trkpt>
      <trkpt lat="47.520566" lon="7.906668">
        <ele>395.824145</ele>
        <time>2021-11-11T21:17:39.684Z</time>
      </trkpt>
      <trkpt lat="47.520528" lon="7.906930">
        <ele>395.931025</ele>
        <time>2021-11-11T21:17:42.945Z</time>
      </trkpt>
      <trkpt lat="47.520515" lon="7.907103">
        <ele>396.000451</ele>
        <time>2021-11-11T21:17:44.742Z</time>
      </trkpt>
      <trkpt lat="47.520506" lon="7.907236">
        <ele>396.053763</ele>
        <time>2021-11-11T21:17:45.819Z</time>
      </trkpt>
      <trkpt lat="47.520551" lon="7.907422">
        <ele>396.132565</ele>
        <time>2021-11-11T21:17:48.229Z</time>
      </trkpt>
      <trkpt lat="47.520733" lon="7.907655">
        <ele>396.271079</ele>
        <time>2021-11-11T21:17:51.415Z</time>
      </trkpt>
      <trkpt lat="47.520738" lon="7.907839">
        <ele>396.293623</ele>
        <time>2021-11-11T21:17:53.558Z</time>
      </trkpt>
      <trkpt lat="47.520493" lon="7.908683">
        <ele>396.406086</ele>
        <time>2021-11-11T21:18:01.737Z</time>
      </trkpt>
      <trkpt lat="47.519997" lon="7.910833">
        <ele>397.081180</ele>
        <time>2021-11-11T21:18:27.684Z</time>
      </trkpt>
      <trkpt lat="47.519891" lon="7.911129">
        <ele>397.305797</ele>
        <time>2021-11-11T21:18:32.274Z</time>
      </trkpt>
      <trkpt lat="47.519720" lon="7.911522">
        <ele>397.619223</ele>
        <time>2021-11-11T21:18:38.358Z</time>
      </trkpt>
      <trkpt lat="47.519421" lon="7.912098">
        <ele>398.106281</ele>
        <time>2021-11-11T21:18:47.925Z</time>
      </trkpt>
      <trkpt lat="47.517688" lon="7.914418">
        <ele>400.563860</ele>
        <time>2021-11-11T21:19:32.503Z</time>
      </trkpt>
      <trkpt lat="47.517281" lon="7.915238">
        <ele>401.219424</ele>
        <time>2021-11-11T21:19:45.517Z</time>
      </trkpt>
      <trkpt lat="47.517140" lon="7.915259">
        <ele>401.354597</ele>
        <time>2021-11-11T21:19:48.017Z</time>
      </trkpt>
      <trkpt lat="47.516806" lon="7.914896">
        <ele>401.749801</ele>
        <time>2021-11-11T21:19:55.592Z</time>
      </trkpt>
      <trkpt lat="47.516748" lon="7.914873">
        <ele>401.807074</ele>
        <time>2021-11-11T21:19:56.764Z</time>
      </trkpt>
      <trkpt lat="47.516662" lon="7.914835">
        <ele>401.892682</ele>
        <time>2021-11-11T21:19:58.555Z</time>
      </trkpt>
      <trkpt lat="47.516626" lon="7.914830">
        <ele>401.927172</ele>
        <time>2021-11-11T21:19:59.250Z</time>
      </trkpt>
      <trkpt lat="47.516590" lon="7.914840">
        <ele>401.962110</ele>
        <time>2021-11-11T21:19:59.846Z</time>
      </trkpt>
      <trkpt lat="47.516569" lon="7.914864">
        <ele>401.987414</ele>
        <time>2021-11-11T21:20:00.380Z</time>
      </trkpt>
      <trkpt lat="47.516544" lon="7.914936">
        <ele>402.039082</ele>
        <time>2021-11-11T21:20:01.227Z</time>
      </trkpt>
      <trkpt lat="47.516391" lon="7.915243">
        <ele>402.271334</ele>
        <time>2021-11-11T21:20:06.020Z</time>
      </trkpt>
      <trkpt lat="47.515014" lon="7.917030">
        <ele>404.057076</ele>
        <time>2021-11-11T21:20:39.796Z</time>
      </trkpt>
      <trkpt lat="47.514635" lon="7.917349">
        <ele>404.647178</ele>
        <time>2021-11-11T21:20:47.915Z</time>
      </trkpt>
      <trkpt lat="47.514561" lon="7.917409">
        <ele>404.761378</ele>
        <time>2021-11-11T21:20:49.807Z</time>
      </trkpt>
      <trkpt lat="47.514255" lon="7.917714">
        <ele>405.260681</ele>
        <time>2021-11-11T21:20:57.275Z</time>
      </trkpt>
      <trkpt lat="47.513378" lon="7.918393">
        <ele>406.801245</ele>
        <time>2021-11-11T21:21:18.980Z</time>
      </trkpt>
      <trkpt lat="47.513160" lon="7.918764">
        <ele>407.426671</ele>
        <time>2021-11-11T21:21:26.486Z</time>
      </trkpt>
      <trkpt lat="47.513058" lon="7.918896">
        <ele>407.681770</ele>
        <time>2021-11-11T21:21:29.619Z</time>
      </trkpt>
      <trkpt lat="47.512938" lon="7.919052">
        <ele>407.982479</ele>
        <time>2021-11-11T21:21:33.410Z</time>
      </trkpt>
      <trkpt lat="47.512664" lon="7.919306">
        <ele>408.591223</ele>
        <time>2021-11-11T21:21:40.736Z</time>
      </trkpt>
      <trkpt lat="47.512299" lon="7.919513">
        <ele>409.327230</ele>
        <time>2021-11-11T21:21:49.466Z</time>
      </trkpt>
      <trkpt lat="47.512255" lon="7.919538">
        <ele>409.415976</ele>
        <time>2021-11-11T21:21:50.461Z</time>
      </trkpt>
      <trkpt lat="47.512085" lon="7.919732">
        <ele>409.687857</ele>
        <time>2021-11-11T21:21:55.032Z</time>
      </trkpt>
      <trkpt lat="47.511964" lon="7.919989">
        <ele>409.934291</ele>
        <time>2021-11-11T21:21:59.591Z</time>
      </trkpt>
      <trkpt lat="47.511883" lon="7.920133">
        <ele>410.081704</ele>
        <time>2021-11-11T21:22:02.218Z</time>
      </trkpt>
      <trkpt lat="47.511773" lon="7.920121">
        <ele>410.210161</ele>
        <time>2021-11-11T21:22:05.253Z</time>
      </trkpt>
      <trkpt lat="47.511632" lon="7.920105">
        <ele>410.374856</ele>
        <time>2021-11-11T21:22:08.887Z</time>
      </trkpt>
      <trkpt lat="47.511613" lon="7.920183">
        <ele>410.440082</ele>
        <time>2021-11-11T21:22:09.793Z</time>
      </trkpt>
      <trkpt lat="47.511186" lon="7.920984">
        <ele>411.242787</ele>
        <time>2021-11-11T21:22:22.506Z</time>
      </trkpt>
      <trkpt lat="47.511067" lon="7.921207">
        <ele>411.466351</ele>
        <time>2021-11-11T21:22:25.862Z</time>
      </trkpt>
      <trkpt lat="47.511052" lon="7.921232">
        <ele>411.492656</ele>
        <time>2021-11-11T21:22:26.302Z</time>
      </trkpt>
      <trkpt lat="47.510872" lon="7.921477">
        <ele>411.760711</ele>
        <time>2021-11-11T21:22:30.596Z</time>
      </trkpt>
      <trkpt lat="47.510639" lon="7.921796">
        <ele>412.100803</ele>
        <time>2021-11-11T21:22:36.103Z</time>
      </trkpt>
      <trkpt lat="47.509688" lon="7.922616">
        <ele>413.280180</ele>
        <time>2021-11-11T21:22:56.591Z</time>
      </trkpt>
      <trkpt lat="47.509615" lon="7.922742">
        <ele>413.400339</ele>
        <time>2021-11-11T21:22:59.609Z</time>
      </trkpt>
      <trkpt lat="47.509583" lon="7.922962">
        <ele>413.628835</ele>
        <time>2021-11-11T21:23:02.393Z</time>
      </trkpt>
      <trkpt lat="47.509550" lon="7.923245">
        <ele>414.038470</ele>
        <time>2021-11-11T21:23:07.160Z</time>
      </trkpt>
      <trkpt lat="47.509595" lon="7.923295">
        <ele>414.157282</ele>
        <time>2021-11-11T21:23:08.263Z</time>
      </trkpt>
      <trkpt lat="47.509668" lon="7.923400">
        <ele>414.372210</ele>
        <time>2021-11-11T21:23:10.171Z</time>
      </trkpt>
      <trkpt lat="47.509817" lon="7.923703">
        <ele>414.906801</ele>
        <time>2021-11-11T21:23:16.361Z</time>
      </trkpt>
      <trkpt lat="47.509869" lon="7.923971">
        <ele>415.304527</ele>
        <time>2021-11-11T21:23:20.238Z</time>
      </trkpt>
      <trkpt lat="47.509886" lon="7.924134">
        <ele>415.539780</ele>
        <time>2021-11-11T21:23:23.590Z</time>
      </trkpt>
      <trkpt lat="47.509806" lon="7.924174">
        <ele>415.718089</ele>
        <time>2021-11-11T21:23:25.356Z</time>
      </trkpt>
      <trkpt lat="47.509676" lon="7.924247">
        <ele>416.011692</ele>
        <time>2021-11-11T21:23:28.241Z</time>
      </trkpt>
      <trkpt lat="47.509605" lon="7.924290">
        <ele>416.173683</ele>
        <time>2021-11-11T21:23:30.232Z</time>
      </trkpt>
      <trkpt lat="47.509572" lon="7.924311">
        <ele>416.249533</ele>
        <time>2021-11-11T21:23:31.486Z</time>
      </trkpt>
      <trkpt lat="47.509223" lon="7.924628">
        <ele>417.114166</ele>
        <time>2021-11-11T21:23:41.562Z</time>
      </trkpt>
      <trkpt lat="47.509032" lon="7.924863">
        <ele>417.668887</ele>
        <time>2021-11-11T21:23:47.465Z</time>
      </trkpt>
      <trkpt lat="47.509016" lon="7.924882">
        <ele>417.716004</ele>
        <time>2021-11-11T21:23:48.061Z</time>
      </trkpt>
      <trkpt lat="47.508667" lon="7.925295">
        <ele>418.742362</ele>
        <time>2021-11-11T21:23:59.299Z</time>
      </trkpt>
      <trkpt lat="47.508562" lon="7.925401">
        <ele>419.034306</ele>
        <time>2021-11-11T21:24:02.064Z</time>
      </trkpt>
      <trkpt lat="47.508355" lon="7.925609">
        <ele>419.609004</ele>
        <time>2021-11-11T21:24:07.673Z</time>
      </trkpt>
      <trkpt lat="47.508106" lon="7.925799">
        <ele>420.252506</ele>
        <time>2021-11-11T21:24:13.991Z</time>
      </trkpt>
      <trkpt lat="47.508002" lon="7.925879">
        <ele>420.521736</ele>
        <time>2021-11-11T21:24:16.380Z</time>
      </trkpt>
      <trkpt lat="47.507856" lon="7.925990">
        <ele>420.898762</ele>
        <time>2021-11-11T21:24:20.241Z</time>
      </trkpt>
      <trkpt lat="47.506112" lon="7.927414">
        <ele>426.890303</ele>
        <time>2021-11-11T21:25:13.224Z</time>
      </trkpt>
      <trkpt lat="47.505881" lon="7.927601">
        <ele>427.761860</ele>
        <time>2021-11-11T21:25:21.920Z</time>
      </trkpt>
      <trkpt lat="47.505868" lon="7.927611">
        <ele>427.810849</ele>
        <time>2021-11-11T21:25:22.383Z</time>
      </trkpt>
      <trkpt lat="47.505814" lon="7.927657">
        <ele>428.019178</ele>
        <time>2021-11-11T21:25:24.940Z</time>
      </trkpt>
      <trkpt lat="47.505253" lon="7.928170">
        <ele>430.224118</ele>
        <time>2021-11-11T21:25:45.609Z</time>
      </trkpt>
      <trkpt lat="47.504799" lon="7.928777">
        <ele>432.269754</ele>
        <time>2021-11-11T21:26:01.009Z</time>
      </trkpt>
      <trkpt lat="47.504724" lon="7.928871">
        <ele>432.598357</ele>
        <time>2021-11-11T21:26:04.974Z</time>
      </trkpt>
      <trkpt lat="47.504650" lon="7.928941">
        <ele>432.892009</ele>
        <time>2021-11-11T21:26:07.507Z</time>
      </trkpt>
      <trkpt lat="47.504005" lon="7.929312">
        <ele>433.837878</ele>
        <time>2021-11-11T21:26:21.948Z</time>
      </trkpt>
      <trkpt lat="47.503815" lon="7.929426">
        <ele>434.094923</ele>
        <time>2021-11-11T21:26:24.908Z</time>
      </trkpt>
      <trkpt lat="47.503598" lon="7.929585">
        <ele>434.398503</ele>
        <time>2021-11-11T21:26:30.184Z</time>
      </trkpt>
      <trkpt lat="47.503528" lon="7.929650">
        <ele>434.502107</ele>
        <time>2021-11-11T21:26:31.256Z</time>
      </trkpt>
      <trkpt lat="47.503485" lon="7.929688">
        <ele>434.564897</ele>
        <time>2021-11-11T21:26:32.767Z</time>
      </trkpt>
      <trkpt lat="47.503014" lon="7.930220">
        <ele>435.295210</ele>
        <time>2021-11-11T21:26:42.679Z</time>
      </trkpt>
      <trkpt lat="47.502761" lon="7.930610">
        <ele>435.591212</ele>
        <time>2021-11-11T21:26:49.033Z</time>
      </trkpt>
      <trkpt lat="47.502613" lon="7.930856">
        <ele>435.771546</ele>
        <time>2021-11-11T21:26:52.831Z</time>
      </trkpt>
      <trkpt lat="47.502400" lon="7.931256">
        <ele>436.050373</ele>
        <time>2021-11-11T21:26:59.634Z</time>
      </trkpt>
      <trkpt lat="47.502023" lon="7.932158">
        <ele>436.631038</ele>
        <time>2021-11-11T21:27:12.621Z</time>
      </trkpt>
      <trkpt lat="47.501901" lon="7.932351">
        <ele>436.757742</ele>
        <time>2021-11-11T21:27:16.379Z</time>
      </trkpt>
      <trkpt lat="47.501794" lon="7.932466">
        <ele>436.822820</ele>
        <time>2021-11-11T21:27:18.259Z</time>
      </trkpt>
      <trkpt lat="47.501463" lon="7.932668">
        <ele>436.999028</ele>
        <time>2021-11-11T21:27:24.398Z</time>
      </trkpt>
      <trkpt lat="47.501075" lon="7.932885">
        <ele>437.203163</ele>
        <time>2021-11-11T21:27:31.937Z</time>
      </trkpt>
      <trkpt lat="47.500990" lon="7.932950">
        <ele>437.250250</ele>
        <time>2021-11-11T21:27:33.755Z</time>
      </trkpt>
      <trkpt lat="47.500843" lon="7.933102">
        <ele>437.338502</ele>
        <time>2021-11-11T21:27:36.634Z</time>
      </trkpt>
      <trkpt lat="47.500435" lon="7.933872">
        <ele>437.704487</ele>
        <time>2021-11-11T21:27:46.465Z</time>
      </trkpt>
      <trkpt lat="47.500386" lon="7.933937">
        <ele>437.763850</ele>
        <time>2021-11-11T21:27:47.324Z</time>
      </trkpt>
      <trkpt lat="47.500352" lon="7.933976">
        <ele>437.802658</ele>
        <time>2021-11-11T21:27:48.087Z</time>
      </trkpt>
      <trkpt lat="47.500275" lon="7.934029">
        <ele>437.879271</ele>
        <time>2021-11-11T21:27:49.194Z</time>
      </trkpt>
      <trkpt lat="47.500208" lon="7.934071">
        <ele>437.944917</ele>
        <time>2021-11-11T21:27:50.428Z</time>
      </trkpt>
      <trkpt lat="47.500193" lon="7.934023">
        <ele>437.977152</ele>
        <time>2021-11-11T21:27:50.906Z</time>
      </trkpt>
      <trkpt lat="47.500169" lon="7.933984">
        <ele>438.009307</ele>
        <time>2021-11-11T21:27:51.339Z</time>
      </trkpt>
      <trkpt lat="47.500138" lon="7.933956">
        <ele>438.042071</ele>
        <time>2021-11-11T21:27:51.883Z</time>
      </trkpt>
      <trkpt lat="47.500067" lon="7.933946">
        <ele>438.106417</ele>
        <time>2021-11-11T21:27:52.831Z</time>
      </trkpt>
      <trkpt lat="47.500034" lon="7.933965">
        <ele>438.138363</ele>
        <time>2021-11-11T21:27:53.650Z</time>
      </trkpt>
      <trkpt lat="47.499993" lon="7.933864">
        <ele>438.210183</ele>
        <time>2021-11-11T21:27:55.192Z</time>
      </trkpt>
      <trkpt lat="47.499822" lon="7.933272">
        <ele>438.602618</ele>
        <time>2021-11-11T21:28:03.172Z</time>
      </trkpt>
      <trkpt lat="47.499538" lon="7.932868">
        <ele>438.957992</ele>
        <time>2021-11-11T21:28:11.154Z</time>
      </trkpt>
      <trkpt lat="47.499421" lon="7.932805">
        <ele>439.070318</ele>
        <time>2021-11-11T21:28:14.208Z</time>
      </trkpt>
      <trkpt lat="47.499354" lon="7.932769">
        <ele>439.134626</ele>
        <time>2021-11-11T21:28:15.935Z</time>
      </trkpt>
      <trkpt lat="47.499088" lon="7.932741">
        <ele>439.515739</ele>
        <time>2021-11-11T21:28:21.812Z</time>
      </trkpt>
      <trkpt lat="47.498997" lon="7.932758">
        <ele>439.683161</ele>
        <time>2021-11-11T21:28:23.850Z</time>
      </trkpt>
      <trkpt lat="47.498925" lon="7.932781">
        <ele>439.817611</ele>
        <time>2021-11-11T21:28:25.557Z</time>
      </trkpt>
      <trkpt lat="47.498481" lon="7.933011">
        <ele>440.676255</ele>
        <time>2021-11-11T21:28:34.811Z</time>
      </trkpt>
      <trkpt lat="47.498431" lon="7.932995">
        <ele>440.769630</ele>
        <time>2021-11-11T21:28:36.034Z</time>
      </trkpt>
      <trkpt lat="47.498391" lon="7.932972">
        <ele>440.847958</ele>
        <time>2021-11-11T21:28:36.952Z</time>
      </trkpt>
      <trkpt lat="47.498196" lon="7.932613">
        <ele>441.416022</ele>
        <time>2021-11-11T21:28:43.676Z</time>
      </trkpt>
      <trkpt lat="47.498138" lon="7.932522">
        <ele>441.570301</ele>
        <time>2021-11-11T21:28:45.676Z</time>
      </trkpt>
      <trkpt lat="47.498068" lon="7.932426">
        <ele>441.744490</ele>
        <time>2021-11-11T21:28:48.123Z</time>
      </trkpt>
      <trkpt lat="47.497907" lon="7.932254">
        <ele>442.106921</ele>
        <time>2021-11-11T21:28:52.826Z</time>
      </trkpt>
      <trkpt lat="47.497676" lon="7.932013">
        <ele>442.604486</ele>
        <time>2021-11-11T21:28:59.304Z</time>
      </trkpt>
      <trkpt lat="47.497430" lon="7.931757">
        <ele>443.054696</ele>
        <time>2021-11-11T21:29:06.895Z</time>
      </trkpt>
      <trkpt lat="47.497221" lon="7.931528">
        <ele>443.444002</ele>
        <time>2021-11-11T21:29:12.892Z</time>
      </trkpt>
      <trkpt lat="47.497104" lon="7.931414">
        <ele>443.653713</ele>
        <time>2021-11-11T21:29:15.690Z</time>
      </trkpt>
      <trkpt lat="47.496998" lon="7.931330">
        <ele>443.833722</ele>
        <time>2021-11-11T21:29:18.102Z</time>
      </trkpt>
      <trkpt lat="47.496424" lon="7.931075">
        <ele>444.730945</ele>
        <time>2021-11-11T21:29:28.851Z</time>
      </trkpt>
      <trkpt lat="47.496205" lon="7.930904">
        <ele>445.101642</ele>
        <time>2021-11-11T21:29:32.872Z</time>
      </trkpt>
      <trkpt lat="47.496162" lon="7.930842">
        <ele>445.191516</ele>
        <time>2021-11-11T21:29:34.439Z</time>
      </trkpt>
      <trkpt lat="47.496117" lon="7.930763">
        <ele>445.334103</ele>
        <time>2021-11-11T21:29:35.701Z</time>
      </trkpt>
      <trkpt lat="47.496051" lon="7.930607">
        <ele>445.606445</ele>
        <time>2021-11-11T21:29:38.486Z</time>
      </trkpt>
      <trkpt lat="47.495985" lon="7.930428">
        <ele>445.908172</ele>
        <time>2021-11-11T21:29:41.319Z</time>
      </trkpt>
      <trkpt lat="47.495801" lon="7.929891">
        <ele>446.799075</ele>
        <time>2021-11-11T21:29:50.975Z</time>
      </trkpt>
      <trkpt lat="47.495634" lon="7.929433">
        <ele>447.569140</ele>
        <time>2021-11-11T21:29:59.039Z</time>
      </trkpt>
      <trkpt lat="47.495622" lon="7.929400">
        <ele>447.624591</ele>
        <time>2021-11-11T21:29:59.583Z</time>
      </trkpt>
      <trkpt lat="47.495562" lon="7.929221">
        <ele>447.920251</ele>
        <time>2021-11-11T21:30:02.545Z</time>
      </trkpt>
      <trkpt lat="47.495530" lon="7.929063">
        <ele>448.164313</ele>
        <time>2021-11-11T21:30:05.023Z</time>
      </trkpt>
      <trkpt lat="47.495530" lon="7.929063">
        <ele>448.164313</ele>
        <time>2021-11-11T21:30:05.038Z</time>
      </trkpt>
      <trkpt lat="47.495530" lon="7.929063">
        <ele>448.164313</ele>
        <time>2021-11-11T21:30:05.182Z</time>
      </trkpt>
      <trkpt lat="47.495455" lon="7.928595">
        <ele>448.876001</ele>
        <time>2021-11-11T21:30:14.009Z</time>
      </trkpt>
      <trkpt lat="47.495268" lon="7.927740">
        <ele>450.957707</ele>
        <time>2021-11-11T21:30:31.016Z</time>
      </trkpt>
      <trkpt lat="47.495031" lon="7.927006">
        <ele>453.021038</ele>
        <time>2021-11-11T21:30:47.916Z</time>
      </trkpt>
      <trkpt lat="47.494945" lon="7.926765">
        <ele>453.712312</ele>
        <time>2021-11-11T21:30:54.559Z</time>
      </trkpt>
      <trkpt lat="47.494515" lon="7.925509">
        <ele>457.188185</ele>
        <time>2021-11-11T21:31:22.978Z</time>
      </trkpt>
      <trkpt lat="47.494438" lon="7.925289">
        <ele>457.773129</ele>
        <time>2021-11-11T21:31:28.411Z</time>
      </trkpt>
      <trkpt lat="47.494034" lon="7.924101">
        <ele>460.913086</ele>
        <time>2021-11-11T21:31:53.475Z</time>
      </trkpt>
      <trkpt lat="47.493708" lon="7.923049">
        <ele>463.720130</ele>
        <time>2021-11-11T21:32:15.046Z</time>
      </trkpt>
      <trkpt lat="47.493397" lon="7.921760">
        <ele>467.117138</ele>
        <time>2021-11-11T21:32:42.026Z</time>
      </trkpt>
      <trkpt lat="47.493307" lon="7.921373">
        <ele>468.132935</ele>
        <time>2021-11-11T21:32:50.520Z</time>
      </trkpt>
      <trkpt lat="47.493236" lon="7.921091">
        <ele>468.902754</ele>
        <time>2021-11-11T21:32:56.901Z</time>
      </trkpt>
      <trkpt lat="47.493132" lon="7.920716">
        <ele>470.184637</ele>
        <time>2021-11-11T21:33:05.951Z</time>
      </trkpt>
      <trkpt lat="47.492813" lon="7.919900">
        <ele>473.165896</ele>
        <time>2021-11-11T21:33:27.434Z</time>
      </trkpt>
      <trkpt lat="47.492584" lon="7.919482">
        <ele>474.867672</ele>
        <time>2021-11-11T21:33:40.206Z</time>
      </trkpt>
      <trkpt lat="47.492227" lon="7.918989">
        <ele>477.152926</ele>
        <time>2021-11-11T21:33:57.108Z</time>
      </trkpt>
      <trkpt lat="47.491324" lon="7.917985">
        <ele>481.801646</ele>
        <time>2021-11-11T21:34:33.893Z</time>
      </trkpt>
      <trkpt lat="47.490822" lon="7.917158">
        <ele>484.787355</ele>
        <time>2021-11-11T21:34:56.053Z</time>
      </trkpt>
      <trkpt lat="47.490607" lon="7.916690">
        <ele>485.797067</ele>
        <time>2021-11-11T21:35:06.251Z</time>
      </trkpt>
      <trkpt lat="47.490429" lon="7.916164">
        <ele>486.846672</ele>
        <time>2021-11-11T21:35:16.120Z</time>
      </trkpt>
      <trkpt lat="47.490283" lon="7.915612">
        <ele>487.904317</ele>
        <time>2021-11-11T21:35:25.948Z</time>
      </trkpt>
      <trkpt lat="47.489987" lon="7.914083">
        <ele>490.693546</ele>
        <time>2021-11-11T21:35:51.729Z</time>
      </trkpt>
      <trkpt lat="47.489951" lon="7.913893">
        <ele>491.033291</ele>
        <time>2021-11-11T21:35:54.723Z</time>
      </trkpt>
      <trkpt lat="47.489922" lon="7.913738">
        <ele>491.310201</ele>
        <time>2021-11-11T21:35:57.228Z</time>
      </trkpt>
      <trkpt lat="47.489843" lon="7.913398">
        <ele>491.929231</ele>
        <time>2021-11-11T21:36:02.575Z</time>
      </trkpt>
      <trkpt lat="47.489607" lon="7.912646">
        <ele>493.356803</ele>
        <time>2021-11-11T21:36:16.803Z</time>
      </trkpt>
      <trkpt lat="47.489216" lon="7.911685">
        <ele>496.070390</ele>
        <time>2021-11-11T21:36:39.117Z</time>
      </trkpt>
      <trkpt lat="47.489040" lon="7.911300">
        <ele>497.334280</ele>
        <time>2021-11-11T21:36:48.584Z</time>
      </trkpt>
      <trkpt lat="47.488908" lon="7.911009">
        <ele>498.287273</ele>
        <time>2021-11-11T21:36:57.145Z</time>
      </trkpt>
      <trkpt lat="47.488699" lon="7.910498">
        <ele>499.911412</ele>
        <time>2021-11-11T21:37:10.808Z</time>
      </trkpt>
      <trkpt lat="47.488366" lon="7.909318">
        <ele>503.014323</ele>
        <time>2021-11-11T21:37:36.680Z</time>
      </trkpt>
      <trkpt lat="47.488241" lon="7.908835">
        <ele>504.182909</ele>
        <time>2021-11-11T21:37:45.867Z</time>
      </trkpt>
      <trkpt lat="47.488185" lon="7.908663">
        <ele>504.614281</ele>
        <time>2021-11-11T21:37:49.919Z</time>
      </trkpt>
      <trkpt lat="47.488080" lon="7.908344">
        <ele>505.415989</ele>
        <time>2021-11-11T21:37:55.880Z</time>
      </trkpt>
      <trkpt lat="47.487763" lon="7.907711">
        <ele>507.197807</ele>
        <time>2021-11-11T21:38:10.937Z</time>
      </trkpt>
      <trkpt lat="47.487587" lon="7.907459">
        <ele>508.214561</ele>
        <time>2021-11-11T21:38:17.397Z</time>
      </trkpt>
      <trkpt lat="47.487378" lon="7.907191">
        <ele>509.362725</ele>
        <time>2021-11-11T21:38:24.558Z</time>
      </trkpt>
      <trkpt lat="47.487197" lon="7.906946">
        <ele>510.381145</ele>
        <time>2021-11-11T21:38:30.565Z</time>
      </trkpt>
      <trkpt lat="47.486969" lon="7.906583">
        <ele>511.771560</ele>
        <time>2021-11-11T21:38:38.856Z</time>
      </trkpt>
      <trkpt lat="47.486769" lon="7.905976">
        <ele>513.666208</ele>
        <time>2021-11-11T21:38:54.619Z</time>
      </trkpt>
      <trkpt lat="47.486724" lon="7.905485">
        <ele>515.454237</ele>
        <time>2021-11-11T21:39:08.871Z</time>
      </trkpt>
      <trkpt lat="47.486745" lon="7.904814">
        <ele>519.215250</ele>
        <time>2021-11-11T21:39:31.345Z</time>
      </trkpt>
      <trkpt lat="47.486755" lon="7.904487">
        <ele>521.048024</ele>
        <time>2021-11-11T21:39:40.809Z</time>
      </trkpt>
      <trkpt lat="47.486721" lon="7.904326">
        <ele>521.992470</ele>
        <time>2021-11-11T21:39:47.117Z</time>
      </trkpt>
      <trkpt lat="47.486721" lon="7.904326">
        <ele>521.992470</ele>
        <time>2021-11-11T21:39:47.237Z</time>
      </trkpt>
      <trkpt lat="47.486787" lon="7.904241">
        <ele>522.717416</ele>
        <time>2021-11-11T21:39:52.870Z</time>
      </trkpt>
      <trkpt lat="47.486851" lon="7.904088">
        <ele>523.724917</ele>
        <time>2021-11-11T21:40:00.959Z</time>
      </trkpt>
      <trkpt lat="47.486956" lon="7.903776">
        <ele>525.676473</ele>
        <time>2021-11-11T21:40:18.419Z</time>
      </trkpt>
      <trkpt lat="47.487094" lon="7.903449">
        <ele>527.835073</ele>
        <time>2021-11-11T21:40:37.498Z</time>
      </trkpt>
      <trkpt lat="47.487618" lon="7.902286">
        <ele>535.746509</ele>
        <time>2021-11-11T21:41:48.791Z</time>
      </trkpt>
      <trkpt lat="47.488244" lon="7.900510">
        <ele>545.639706</ele>
        <time>2021-11-11T21:43:22.183Z</time>
      </trkpt>
      <trkpt lat="47.488318" lon="7.900297">
        <ele>546.178174</ele>
        <time>2021-11-11T21:43:32.193Z</time>
      </trkpt>
      <trkpt lat="47.488332" lon="7.900256">
        <ele>546.281454</ele>
        <time>2021-11-11T21:43:34.197Z</time>
      </trkpt>
      <trkpt lat="47.488488" lon="7.899603">
        <ele>547.838624</ele>
        <time>2021-11-11T21:43:58.333Z</time>
      </trkpt>
      <trkpt lat="47.488504" lon="7.899482">
        <ele>548.115824</ele>
        <time>2021-11-11T21:44:02.786Z</time>
      </trkpt>
      <trkpt lat="47.488505" lon="7.899198">
        <ele>548.754341</ele>
        <time>2021-11-11T21:44:06.650Z</time>
      </trkpt>
      <trkpt lat="47.488370" lon="7.898235">
        <ele>550.365030</ele>
        <time>2021-11-11T21:44:18.039Z</time>
      </trkpt>
      <trkpt lat="47.488244" lon="7.897339">
        <ele>548.448688</ele>
        <time>2021-11-11T21:44:25.077Z</time>
      </trkpt>
      <trkpt lat="47.488196" lon="7.897116">
        <ele>547.958627</ele>
        <time>2021-11-11T21:44:26.485Z</time>
      </trkpt>
      <trkpt lat="47.488140" lon="7.896871">
        <ele>547.417064</ele>
        <time>2021-11-11T21:44:28.465Z</time>
      </trkpt>
      <trkpt lat="47.488083" lon="7.896718">
        <ele>547.051231</ele>
        <time>2021-11-11T21:44:29.566Z</time>
      </trkpt>
      <trkpt lat="47.487908" lon="7.896570">
        <ele>546.426653</ele>
        <time>2021-11-11T21:44:31.538Z</time>
      </trkpt>
      <trkpt lat="47.487421" lon="7.896715">
        <ele>544.618980</ele>
        <time>2021-11-11T21:44:36.320Z</time>
      </trkpt>
      <trkpt lat="47.487234" lon="7.896710">
        <ele>543.236929</ele>
        <time>2021-11-11T21:44:38.049Z</time>
      </trkpt>
      <trkpt lat="47.487132" lon="7.896643">
        <ele>542.412290</ele>
        <time>2021-11-11T21:44:39.334Z</time>
      </trkpt>
      <trkpt lat="47.487062" lon="7.896463">
        <ele>541.375255</ele>
        <time>2021-11-11T21:44:40.563Z</time>
      </trkpt>
      <trkpt lat="47.487149" lon="7.895169">
        <ele>534.881815</ele>
        <time>2021-11-11T21:44:48.364Z</time>
      </trkpt>
      <trkpt lat="47.487161" lon="7.894314">
        <ele>530.111714</ele>
        <time>2021-11-11T21:44:53.411Z</time>
      </trkpt>
      <trkpt lat="47.487170" lon="7.894195">
        <ele>529.260256</ele>
        <time>2021-11-11T21:44:54.075Z</time>
      </trkpt>
      <trkpt lat="47.487181" lon="7.894092">
        <ele>528.518763</ele>
        <time>2021-11-11T21:44:54.680Z</time>
      </trkpt>
      <trkpt lat="47.487216" lon="7.893977">
        <ele>527.621922</ele>
        <time>2021-11-11T21:44:55.518Z</time>
      </trkpt>
      <trkpt lat="47.487256" lon="7.893919">
        <ele>527.032642</ele>
        <time>2021-11-11T21:44:56.017Z</time>
      </trkpt>
      <trkpt lat="47.487323" lon="7.893893">
        <ele>526.303789</ele>
        <time>2021-11-11T21:44:56.607Z</time>
      </trkpt>
      <trkpt lat="47.487476" lon="7.893956">
        <ele>524.632667</ele>
        <time>2021-11-11T21:44:57.931Z</time>
      </trkpt>
      <trkpt lat="47.487632" lon="7.894208">
        <ele>522.202550</ele>
        <time>2021-11-11T21:44:59.953Z</time>
      </trkpt>
      <trkpt lat="47.487657" lon="7.894274">
        <ele>521.664546</ele>
        <time>2021-11-11T21:45:00.375Z</time>
      </trkpt>
      <trkpt lat="47.487689" lon="7.894368">
        <ele>520.916120</ele>
        <time>2021-11-11T21:45:00.961Z</time>
      </trkpt>
      <trkpt lat="47.487840" lon="7.894546">
        <ele>518.884710</ele>
        <time>2021-11-11T21:45:02.706Z</time>
      </trkpt>
      <trkpt lat="47.488123" lon="7.894358">
        <ele>515.620526</ele>
        <time>2021-11-11T21:45:05.313Z</time>
      </trkpt>
      <trkpt lat="47.488180" lon="7.894303">
        <ele>514.904501</ele>
        <time>2021-11-11T21:45:05.902Z</time>
      </trkpt>
      <trkpt lat="47.488216" lon="7.894259">
        <ele>514.413192</ele>
        <time>2021-11-11T21:45:06.277Z</time>
      </trkpt>
      <trkpt lat="47.488316" lon="7.893785">
        <ele>511.351469</ele>
        <time>2021-11-11T21:45:09.159Z</time>
      </trkpt>
      <trkpt lat="47.488417" lon="7.893532">
        <ele>509.756722</ele>
        <time>2021-11-11T21:45:10.859Z</time>
      </trkpt>
      <trkpt lat="47.488372" lon="7.893226">
        <ele>508.057178</ele>
        <time>2021-11-11T21:45:12.735Z</time>
      </trkpt>
      <trkpt lat="47.488323" lon="7.893133">
        <ele>507.417175</ele>
        <time>2021-11-11T21:45:13.406Z</time>
      </trkpt>
      <trkpt lat="47.488250" lon="7.893055">
        <ele>506.694045</ele>
        <time>2021-11-11T21:45:14.234Z</time>
      </trkpt>
      <trkpt lat="47.488168" lon="7.892899">
        <ele>505.621445</ele>
        <time>2021-11-11T21:45:15.451Z</time>
      </trkpt>
      <trkpt lat="47.488137" lon="7.892763">
        <ele>504.842504</ele>
        <time>2021-11-11T21:45:16.288Z</time>
      </trkpt>
      <trkpt lat="47.488084" lon="7.892534">
        <ele>503.528834</ele>
        <time>2021-11-11T21:45:17.769Z</time>
      </trkpt>
      <trkpt lat="47.487680" lon="7.891282">
        <ele>497.085906</ele>
        <time>2021-11-11T21:45:26.297Z</time>
      </trkpt>
      <trkpt lat="47.487518" lon="7.890485">
        <ele>494.598050</ele>
        <time>2021-11-11T21:45:31.676Z</time>
      </trkpt>
      <trkpt lat="47.487490" lon="7.890449">
        <ele>494.433971</ele>
        <time>2021-11-11T21:45:32.032Z</time>
      </trkpt>
      <trkpt lat="47.487367" lon="7.890321">
        <ele>493.768807</ele>
        <time>2021-11-11T21:45:33.518Z</time>
      </trkpt>
      <trkpt lat="47.486940" lon="7.889619">
        <ele>490.945455</ele>
        <time>2021-11-11T21:45:39.984Z</time>
      </trkpt>
      <trkpt lat="47.486763" lon="7.889251">
        <ele>489.621392</ele>
        <time>2021-11-11T21:45:43.120Z</time>
      </trkpt>
      <trkpt lat="47.486746" lon="7.889218">
        <ele>489.501097</ele>
        <time>2021-11-11T21:45:43.360Z</time>
      </trkpt>
      <trkpt lat="47.486185" lon="7.888073">
        <ele>485.401074</ele>
        <time>2021-11-11T21:45:52.599Z</time>
      </trkpt>
      <trkpt lat="47.485991" lon="7.887744">
        <ele>484.135239</ele>
        <time>2021-11-11T21:45:55.415Z</time>
      </trkpt>
      <trkpt lat="47.485842" lon="7.887493">
        <ele>483.166700</ele>
        <time>2021-11-11T21:45:57.517Z</time>
      </trkpt>
      <trkpt lat="47.485824" lon="7.887463">
        <ele>483.050395</ele>
        <time>2021-11-11T21:45:57.774Z</time>
      </trkpt>
      <trkpt lat="47.485730" lon="7.887323">
        <ele>482.485280</ele>
        <time>2021-11-11T21:45:59.036Z</time>
      </trkpt>
      <trkpt lat="47.484923" lon="7.886213">
        <ele>477.882728</ele>
        <time>2021-11-11T21:46:09.649Z</time>
      </trkpt>
      <trkpt lat="47.484859" lon="7.886144">
        <ele>477.551942</ele>
        <time>2021-11-11T21:46:10.379Z</time>
      </trkpt>
      <trkpt lat="47.484724" lon="7.885990">
        <ele>476.839877</ele>
        <time>2021-11-11T21:46:12.066Z</time>
      </trkpt>
      <trkpt lat="47.484124" lon="7.885514">
        <ele>474.324782</ele>
        <time>2021-11-11T21:46:18.922Z</time>
      </trkpt>
      <trkpt lat="47.483644" lon="7.884992">
        <ele>472.498218</ele>
        <time>2021-11-11T21:46:24.856Z</time>
      </trkpt>
      <trkpt lat="47.483551" lon="7.884901">
        <ele>472.156341</ele>
        <time>2021-11-11T21:46:26.000Z</time>
      </trkpt>
      <trkpt lat="47.483495" lon="7.884861">
        <ele>471.965669</ele>
        <time>2021-11-11T21:46:26.610Z</time>
      </trkpt>
      <trkpt lat="47.483344" lon="7.884768">
        <ele>471.464150</ele>
        <time>2021-11-11T21:46:28.392Z</time>
      </trkpt>
      <trkpt lat="47.482795" lon="7.884621">
        <ele>469.753407</ele>
        <time>2021-11-11T21:46:34.217Z</time>
      </trkpt>
      <trkpt lat="47.482343" lon="7.884501">
        <ele>468.773724</ele>
        <time>2021-11-11T21:46:39.145Z</time>
      </trkpt>
      <trkpt lat="47.482094" lon="7.884439">
        <ele>468.241286</ele>
        <time>2021-11-11T21:46:41.771Z</time>
      </trkpt>
      <trkpt lat="47.481625" lon="7.884355">
        <ele>467.245107</ele>
        <time>2021-11-11T21:46:47.082Z</time>
      </trkpt>
      <trkpt lat="47.481202" lon="7.884417">
        <ele>466.348780</ele>
        <time>2021-11-11T21:46:51.813Z</time>
      </trkpt>
      <trkpt lat="47.481022" lon="7.884472">
        <ele>465.961213</ele>
        <time>2021-11-11T21:46:53.764Z</time>
      </trkpt>
      <trkpt lat="47.480931" lon="7.884489">
        <ele>465.823896</ele>
        <time>2021-11-11T21:46:54.893Z</time>
      </trkpt>
      <trkpt lat="47.480537" lon="7.884477">
        <ele>465.290684</ele>
        <time>2021-11-11T21:46:59.281Z</time>
      </trkpt>
      <trkpt lat="47.479813" lon="7.884128">
        <ele>464.260404</ele>
        <time>2021-11-11T21:47:08.083Z</time>
      </trkpt>
      <trkpt lat="47.479273" lon="7.883853">
        <ele>463.492416</ele>
        <time>2021-11-11T21:47:15.072Z</time>
      </trkpt>
      <trkpt lat="47.479105" lon="7.883776">
        <ele>463.628492</ele>
        <time>2021-11-11T21:47:17.322Z</time>
      </trkpt>
      <trkpt lat="47.478811" lon="7.883733">
        <ele>463.857070</ele>
        <time>2021-11-11T21:47:21.264Z</time>
      </trkpt>
      <trkpt lat="47.478579" lon="7.883777">
        <ele>464.038038</ele>
        <time>2021-11-11T21:47:24.498Z</time>
      </trkpt>
      <trkpt lat="47.477249" lon="7.884423">
        <ele>466.186708</ele>
        <time>2021-11-11T21:47:53.002Z</time>
      </trkpt>
      <trkpt lat="47.476108" lon="7.884690">
        <ele>471.069163</ele>
        <time>2021-11-11T21:48:32.268Z</time>
      </trkpt>
      <trkpt lat="47.475795" lon="7.884698">
        <ele>472.392275</ele>
        <time>2021-11-11T21:48:44.132Z</time>
      </trkpt>
      <trkpt lat="47.475660" lon="7.884681">
        <ele>473.000550</ele>
        <time>2021-11-11T21:48:49.169Z</time>
      </trkpt>
      <trkpt lat="47.475395" lon="7.884643">
        <ele>474.209264</ele>
        <time>2021-11-11T21:48:59.685Z</time>
      </trkpt>
      <trkpt lat="47.474825" lon="7.884590">
        <ele>476.802120</ele>
        <time>2021-11-11T21:49:19.370Z</time>
      </trkpt>
      <trkpt lat="47.474703" lon="7.884534">
        <ele>477.382035</ele>
        <time>2021-11-11T21:49:24.918Z</time>
      </trkpt>
      <trkpt lat="47.474508" lon="7.884402">
        <ele>478.355583</ele>
        <time>2021-11-11T21:49:31.288Z</time>
      </trkpt>
      <trkpt lat="47.473290" lon="7.883592">
        <ele>481.308602</ele>
        <time>2021-11-11T21:50:07.047Z</time>
      </trkpt>
      <trkpt lat="47.473082" lon="7.883408">
        <ele>481.500882</ele>
        <time>2021-11-11T21:50:10.759Z</time>
      </trkpt>
      <trkpt lat="47.472670" lon="7.883027">
        <ele>481.886373</ele>
        <time>2021-11-11T21:50:17.478Z</time>
      </trkpt>
      <trkpt lat="47.471932" lon="7.882355">
        <ele>477.238533</ele>
        <time>2021-11-11T21:50:26.663Z</time>
      </trkpt>
      <trkpt lat="47.471600" lon="7.881776">
        <ele>473.272552</ele>
        <time>2021-11-11T21:50:31.146Z</time>
      </trkpt>
      <trkpt lat="47.471472" lon="7.881494">
        <ele>471.498241</ele>
        <time>2021-11-11T21:50:33.156Z</time>
      </trkpt>
      <trkpt lat="47.471451" lon="7.881438">
        <ele>471.163726</ele>
        <time>2021-11-11T21:50:33.539Z</time>
      </trkpt>
      <trkpt lat="47.471376" lon="7.881235">
        <ele>469.955302</ele>
        <time>2021-11-11T21:50:34.858Z</time>
      </trkpt>
      <trkpt lat="47.471173" lon="7.880721">
        <ele>465.596395</ele>
        <time>2021-11-11T21:50:38.228Z</time>
      </trkpt>
      <trkpt lat="47.471143" lon="7.880602">
        <ele>464.310851</ele>
        <time>2021-11-11T21:50:38.932Z</time>
      </trkpt>
      <trkpt lat="47.471122" lon="7.880528">
        <ele>463.498502</ele>
        <time>2021-11-11T21:50:39.383Z</time>
      </trkpt>
      <trkpt lat="47.471056" lon="7.880271">
        <ele>460.715771</ele>
        <time>2021-11-11T21:50:40.939Z</time>
      </trkpt>
      <trkpt lat="47.470688" lon="7.879298">
        <ele>449.430360</ele>
        <time>2021-11-11T21:50:47.171Z</time>
      </trkpt>
      <trkpt lat="47.470641" lon="7.879203">
        <ele>448.238742</ele>
        <time>2021-11-11T21:50:47.826Z</time>
      </trkpt>
      <trkpt lat="47.470626" lon="7.879175">
        <ele>447.877115</ele>
        <time>2021-11-11T21:50:48.024Z</time>
      </trkpt>
      <trkpt lat="47.470496" lon="7.878920">
        <ele>444.644245</ele>
        <time>2021-11-11T21:50:49.853Z</time>
      </trkpt>
      <trkpt lat="47.470372" lon="7.878664">
        <ele>441.456436</ele>
        <time>2021-11-11T21:50:51.598Z</time>
      </trkpt>
      <trkpt lat="47.470277" lon="7.878469">
        <ele>439.951204</ele>
        <time>2021-11-11T21:50:52.980Z</time>
      </trkpt>
      <trkpt lat="47.470106" lon="7.878102">
        <ele>437.323572</ele>
        <time>2021-11-11T21:50:55.534Z</time>
      </trkpt>
      <trkpt lat="47.469549" lon="7.877073">
        <ele>429.552367</ele>
        <time>2021-11-11T21:51:03.342Z</time>
      </trkpt>
      <trkpt lat="47.469512" lon="7.877020">
        <ele>429.103219</ele>
        <time>2021-11-11T21:51:03.788Z</time>
      </trkpt>
      <trkpt lat="47.469512" lon="7.877020">
        <ele>429.103219</ele>
        <time>2021-11-11T21:51:03.829Z</time>
      </trkpt>
      <trkpt lat="47.469512" lon="7.877020">
        <ele>429.103219</ele>
        <time>2021-11-11T21:51:03.836Z</time>
      </trkpt>
      <trkpt lat="47.469475" lon="7.876966">
        <ele>428.649950</ele>
        <time>2021-11-11T21:51:04.330Z</time>
      </trkpt>
      <trkpt lat="47.469413" lon="7.876875">
        <ele>427.888289</ele>
        <time>2021-11-11T21:51:05.203Z</time>
      </trkpt>
      <trkpt lat="47.469384" lon="7.876836">
        <ele>427.546503</ele>
        <time>2021-11-11T21:51:05.625Z</time>
      </trkpt>
      <trkpt lat="47.469354" lon="7.876797">
        <ele>427.198214</ele>
        <time>2021-11-11T21:51:06.025Z</time>
      </trkpt>
      <trkpt lat="47.469265" lon="7.876688">
        <ele>426.190592</ele>
        <time>2021-11-11T21:51:07.131Z</time>
      </trkpt>
      <trkpt lat="47.469083" lon="7.876505">
        <ele>425.143151</ele>
        <time>2021-11-11T21:51:09.376Z</time>
      </trkpt>
      <trkpt lat="47.468740" lon="7.876159">
        <ele>423.972860</ele>
        <time>2021-11-11T21:51:13.698Z</time>
      </trkpt>
      <trkpt lat="47.468698" lon="7.876140">
        <ele>423.849053</ele>
        <time>2021-11-11T21:51:14.137Z</time>
      </trkpt>
      <trkpt lat="47.468806" lon="7.875696">
        <ele>422.949874</ele>
        <time>2021-11-11T21:51:17.470Z</time>
      </trkpt>
      <trkpt lat="47.468925" lon="7.875205">
        <ele>421.955926</ele>
        <time>2021-11-11T21:51:21.180Z</time>
      </trkpt>
      <trkpt lat="47.468989" lon="7.874967">
        <ele>421.467837</ele>
        <time>2021-11-11T21:51:22.981Z</time>
      </trkpt>
      <trkpt lat="47.469050" lon="7.874738">
        <ele>420.998807</ele>
        <time>2021-11-11T21:51:24.952Z</time>
      </trkpt>
      <trkpt lat="47.469068" lon="7.874689">
        <ele>420.892539</ele>
        <time>2021-11-11T21:51:25.362Z</time>
      </trkpt>
      <trkpt lat="47.469097" lon="7.874606">
        <ele>420.714500</ele>
        <time>2021-11-11T21:51:26.013Z</time>
      </trkpt>
      <trkpt lat="47.469136" lon="7.874516">
        <ele>420.510788</ele>
        <time>2021-11-11T21:51:26.796Z</time>
      </trkpt>
      <trkpt lat="47.469173" lon="7.874432">
        <ele>420.375251</ele>
        <time>2021-11-11T21:51:27.579Z</time>
      </trkpt>
      <trkpt lat="47.469224" lon="7.874328">
        <ele>420.210592</ele>
        <time>2021-11-11T21:51:28.613Z</time>
      </trkpt>
      <trkpt lat="47.469422" lon="7.873965">
        <ele>419.612829</ele>
        <time>2021-11-11T21:51:32.044Z</time>
      </trkpt>
      <trkpt lat="47.469489" lon="7.873809">
        <ele>419.375969</ele>
        <time>2021-11-11T21:51:33.449Z</time>
      </trkpt>
      <trkpt lat="47.469626" lon="7.873477">
        <ele>418.877484</ele>
        <time>2021-11-11T21:51:36.346Z</time>
      </trkpt>
      <trkpt lat="47.469682" lon="7.873326">
        <ele>418.656761</ele>
        <time>2021-11-11T21:51:37.673Z</time>
      </trkpt>
      <trkpt lat="47.469710" lon="7.873249">
        <ele>418.544710</ele>
        <time>2021-11-11T21:51:38.265Z</time>
      </trkpt>
      <trkpt lat="47.469969" lon="7.872276">
        <ele>417.204577</ele>
        <time>2021-11-11T21:51:46.211Z</time>
      </trkpt>
      <trkpt lat="47.470156" lon="7.871491">
        <ele>416.372894</ele>
        <time>2021-11-11T21:51:52.550Z</time>
      </trkpt>
      <trkpt lat="47.470217" lon="7.871214">
        <ele>416.092729</ele>
        <time>2021-11-11T21:51:54.713Z</time>
      </trkpt>
      <trkpt lat="47.470245" lon="7.871088">
        <ele>415.965178</ele>
        <time>2021-11-11T21:51:55.723Z</time>
      </trkpt>
      <trkpt lat="47.470316" lon="7.870753">
        <ele>415.627552</ele>
        <time>2021-11-11T21:51:58.549Z</time>
      </trkpt>
      <trkpt lat="47.470333" lon="7.870669">
        <ele>415.543229</ele>
        <time>2021-11-11T21:51:59.193Z</time>
      </trkpt>
      <trkpt lat="47.470350" lon="7.870570">
        <ele>415.444999</ele>
        <time>2021-11-11T21:51:59.981Z</time>
      </trkpt>
      <trkpt lat="47.470379" lon="7.870338">
        <ele>415.218107</ele>
        <time>2021-11-11T21:52:01.930Z</time>
      </trkpt>
      <trkpt lat="47.470397" lon="7.870147">
        <ele>415.032651</ele>
        <time>2021-11-11T21:52:04.065Z</time>
      </trkpt>
      <trkpt lat="47.470397" lon="7.870140">
        <ele>415.025919</ele>
        <time>2021-11-11T21:52:04.135Z</time>
      </trkpt>
      <trkpt lat="47.470378" lon="7.869626">
        <ele>414.530879</ele>
        <time>2021-11-11T21:52:10.079Z</time>
      </trkpt>
      <trkpt lat="47.470309" lon="7.869201">
        <ele>414.323767</ele>
        <time>2021-11-11T21:52:15.365Z</time>
      </trkpt>
      <trkpt lat="47.470234" lon="7.868884">
        <ele>414.168778</ele>
        <time>2021-11-11T21:52:19.414Z</time>
      </trkpt>
      <trkpt lat="47.470127" lon="7.868484">
        <ele>413.970259</ele>
        <time>2021-11-11T21:52:24.865Z</time>
      </trkpt>
      <trkpt lat="47.469915" lon="7.867494">
        <ele>413.491019</ele>
        <time>2021-11-11T21:52:38.046Z</time>
      </trkpt>
      <trkpt lat="47.469808" lon="7.866690">
        <ele>412.941769</ele>
        <time>2021-11-11T21:52:47.770Z</time>
      </trkpt>
      <trkpt lat="47.469764" lon="7.866452">
        <ele>412.719494</ele>
        <time>2021-11-11T21:52:50.777Z</time>
      </trkpt>
      <trkpt lat="47.469710" lon="7.866208">
        <ele>412.488208</ele>
        <time>2021-11-11T21:52:53.742Z</time>
      </trkpt>
      <trkpt lat="47.469629" lon="7.865918">
        <ele>412.205539</ele>
        <time>2021-11-11T21:52:57.490Z</time>
      </trkpt>
      <trkpt lat="47.469305" lon="7.864692">
        <ele>411.019694</ele>
        <time>2021-11-11T21:53:11.861Z</time>
      </trkpt>
      <trkpt lat="47.469011" lon="7.863405">
        <ele>409.425292</ele>
        <time>2021-11-11T21:53:26.563Z</time>
      </trkpt>
      <trkpt lat="47.468986" lon="7.863323">
        <ele>409.316948</ele>
        <time>2021-11-11T21:53:27.419Z</time>
      </trkpt>
      <trkpt lat="47.468943" lon="7.863195">
        <ele>409.144793</ele>
        <time>2021-11-11T21:53:28.977Z</time>
      </trkpt>
      <trkpt lat="47.468859" lon="7.862978">
        <ele>408.843612</ele>
        <time>2021-11-11T21:53:31.747Z</time>
      </trkpt>
      <trkpt lat="47.468825" lon="7.862900">
        <ele>408.731828</ele>
        <time>2021-11-11T21:53:32.704Z</time>
      </trkpt>
      <trkpt lat="47.468543" lon="7.862357">
        <ele>407.907095</ele>
        <time>2021-11-11T21:53:40.130Z</time>
      </trkpt>
      <trkpt lat="47.468224" lon="7.861805">
        <ele>407.280905</ele>
        <time>2021-11-11T21:53:48.306Z</time>
      </trkpt>
      <trkpt lat="47.467944" lon="7.861300">
        <ele>406.791100</ele>
        <time>2021-11-11T21:53:55.685Z</time>
      </trkpt>
      <trkpt lat="47.467266" lon="7.860107">
        <ele>405.637093</ele>
        <time>2021-11-11T21:54:14.428Z</time>
      </trkpt>
      <trkpt lat="47.467047" lon="7.859682">
        <ele>405.317379</ele>
        <time>2021-11-11T21:54:20.635Z</time>
      </trkpt>
      <trkpt lat="47.466922" lon="7.859398">
        <ele>405.114628</ele>
        <time>2021-11-11T21:54:24.608Z</time>
      </trkpt>
      <trkpt lat="47.466824" lon="7.859137">
        <ele>404.936007</ele>
        <time>2021-11-11T21:54:28.304Z</time>
      </trkpt>
      <trkpt lat="47.466673" lon="7.858620">
        <ele>404.599062</ele>
        <time>2021-11-11T21:54:34.859Z</time>
      </trkpt>
      <trkpt lat="47.466576" lon="7.858236">
        <ele>404.353806</ele>
        <time>2021-11-11T21:54:39.659Z</time>
      </trkpt>
      <trkpt lat="47.466518" lon="7.858022">
        <ele>404.215867</ele>
        <time>2021-11-11T21:54:41.648Z</time>
      </trkpt>
      <trkpt lat="47.466409" lon="7.857354">
        <ele>404.054318</ele>
        <time>2021-11-11T21:54:47.572Z</time>
      </trkpt>
      <trkpt lat="47.466347" lon="7.856973">
        <ele>404.015559</ele>
        <time>2021-11-11T21:54:51.401Z</time>
      </trkpt>
      <trkpt lat="47.466344" lon="7.856945">
        <ele>404.012755</ele>
        <time>2021-11-11T21:54:51.592Z</time>
      </trkpt>
      <trkpt lat="47.466322" lon="7.856655">
        <ele>403.983893</ele>
        <time>2021-11-11T21:54:54.501Z</time>
      </trkpt>
      <trkpt lat="47.466310" lon="7.856541">
        <ele>403.972482</ele>
        <time>2021-11-11T21:54:55.612Z</time>
      </trkpt>
      <trkpt lat="47.466334" lon="7.856525">
        <ele>403.968630</ele>
        <time>2021-11-11T21:54:55.990Z</time>
      </trkpt>
      <trkpt lat="47.466353" lon="7.856496">
        <ele>403.964636</ele>
        <time>2021-11-11T21:54:56.457Z</time>
      </trkpt>
      <trkpt lat="47.466361" lon="7.856459">
        <ele>403.960794</ele>
        <time>2021-11-11T21:54:56.768Z</time>
      </trkpt>
      <trkpt lat="47.466359" lon="7.856420">
        <ele>403.956926</ele>
        <time>2021-11-11T21:54:57.077Z</time>
      </trkpt>
      <trkpt lat="47.466324" lon="7.856362">
        <ele>403.949236</ele>
        <time>2021-11-11T21:54:58.057Z</time>
      </trkpt>
      <trkpt lat="47.466298" lon="7.856354">
        <ele>403.945351</ele>
        <time>2021-11-11T21:54:58.410Z</time>
      </trkpt>
      <trkpt lat="47.466271" lon="7.856363">
        <ele>403.941302</ele>
        <time>2021-11-11T21:54:58.817Z</time>
      </trkpt>
      <trkpt lat="47.466237" lon="7.856421">
        <ele>403.933709</ele>
        <time>2021-11-11T21:54:59.560Z</time>
      </trkpt>
      <trkpt lat="47.466235" lon="7.856461">
        <ele>403.929742</ele>
        <time>2021-11-11T21:54:59.912Z</time>
      </trkpt>
      <trkpt lat="47.466156" lon="7.856481">
        <ele>403.918016</ele>
        <time>2021-11-11T21:55:01.105Z</time>
      </trkpt>
      <trkpt lat="47.465801" lon="7.856657">
        <ele>403.863238</ele>
        <time>2021-11-11T21:55:07.004Z</time>
      </trkpt>
      <trkpt lat="47.465748" lon="7.856649">
        <ele>403.855444</ele>
        <time>2021-11-11T21:55:07.845Z</time>
      </trkpt>
      <trkpt lat="47.465709" lon="7.856610">
        <ele>403.848556</ele>
        <time>2021-11-11T21:55:08.439Z</time>
      </trkpt>
      <trkpt lat="47.465583" lon="7.856194">
        <ele>404.004184</ele>
        <time>2021-11-11T21:55:13.775Z</time>
      </trkpt>
      <trkpt lat="47.465550" lon="7.856132">
        <ele>404.038569</ele>
        <time>2021-11-11T21:55:14.427Z</time>
      </trkpt>
      <trkpt lat="47.465527" lon="7.856111">
        <ele>404.055991</ele>
        <time>2021-11-11T21:55:15.079Z</time>
      </trkpt>
      <trkpt lat="47.465400" lon="7.856122">
        <ele>404.137991</ele>
        <time>2021-11-11T21:55:17.200Z</time>
      </trkpt>
      <trkpt lat="47.464855" lon="7.856521">
        <ele>404.529953</ele>
        <time>2021-11-11T21:55:28.408Z</time>
      </trkpt>
      <trkpt lat="47.464813" lon="7.856540">
        <ele>404.558263</ele>
        <time>2021-11-11T21:55:29.308Z</time>
      </trkpt>
      <trkpt lat="47.464805" lon="7.856519">
        <ele>404.568766</ele>
        <time>2021-11-11T21:55:29.603Z</time>
      </trkpt>
      <trkpt lat="47.464741" lon="7.856458">
        <ele>404.617841</ele>
        <time>2021-11-11T21:55:30.888Z</time>
      </trkpt>
      <trkpt lat="47.464713" lon="7.856451">
        <ele>404.636145</ele>
        <time>2021-11-11T21:55:31.334Z</time>
      </trkpt>
      <trkpt lat="47.464688" lon="7.856453">
        <ele>404.652282</ele>
        <time>2021-11-11T21:55:31.755Z</time>
      </trkpt>
      <trkpt lat="47.464650" lon="7.856478">
        <ele>404.679089</ele>
        <time>2021-11-11T21:55:32.489Z</time>
      </trkpt>
      <trkpt lat="47.464638" lon="7.856496">
        <ele>404.690105</ele>
        <time>2021-11-11T21:55:32.876Z</time>
      </trkpt>
      <trkpt lat="47.464622" lon="7.856523">
        <ele>404.705751</ele>
        <time>2021-11-11T21:55:33.365Z</time>
      </trkpt>
      <trkpt lat="47.464610" lon="7.856554">
        <ele>404.721317</ele>
        <time>2021-11-11T21:55:33.709Z</time>
      </trkpt>
      <trkpt lat="47.464600" lon="7.856587">
        <ele>404.737076</ele>
        <time>2021-11-11T21:55:34.138Z</time>
      </trkpt>
      <trkpt lat="47.464530" lon="7.856598">
        <ele>404.782449</ele>
        <time>2021-11-11T21:55:35.529Z</time>
      </trkpt>
      <trkpt lat="47.463900" lon="7.856772">
        <ele>405.210086</ele>
        <time>2021-11-11T21:55:46.549Z</time>
      </trkpt>
      <trkpt lat="47.463826" lon="7.856840">
        <ele>405.270413</ele>
        <time>2021-11-11T21:55:48.056Z</time>
      </trkpt>
      <trkpt lat="47.463762" lon="7.856925">
        <ele>405.329976</ele>
        <time>2021-11-11T21:55:49.613Z</time>
      </trkpt>
      <trkpt lat="47.463161" lon="7.858061">
        <ele>406.005293</ele>
        <time>2021-11-11T21:56:06.129Z</time>
      </trkpt>
      <trkpt lat="47.463081" lon="7.858188">
        <ele>406.086559</ele>
        <time>2021-11-11T21:56:08.429Z</time>
      </trkpt>
      <trkpt lat="47.462979" lon="7.858360">
        <ele>406.193672</ele>
        <time>2021-11-11T21:56:11.169Z</time>
      </trkpt>
      <trkpt lat="47.462880" lon="7.858574">
        <ele>406.389312</ele>
        <time>2021-11-11T21:56:14.318Z</time>
      </trkpt>
      <trkpt lat="47.462764" lon="7.858828">
        <ele>406.685918</ele>
        <time>2021-11-11T21:56:18.317Z</time>
      </trkpt>
      <trkpt lat="47.462720" lon="7.858959">
        <ele>406.827462</ele>
        <time>2021-11-11T21:56:20.262Z</time>
      </trkpt>
      <trkpt lat="47.462691" lon="7.859060">
        <ele>406.933644</ele>
        <time>2021-11-11T21:56:21.679Z</time>
      </trkpt>
      <trkpt lat="47.462623" lon="7.859309">
        <ele>407.193504</ele>
        <time>2021-11-11T21:56:25.197Z</time>
      </trkpt>
      <trkpt lat="47.462535" lon="7.859721">
        <ele>407.611601</ele>
        <time>2021-11-11T21:56:30.890Z</time>
      </trkpt>
      <trkpt lat="47.462471" lon="7.860097">
        <ele>407.986794</ele>
        <time>2021-11-11T21:56:36.467Z</time>
      </trkpt>
      <trkpt lat="47.462442" lon="7.860255">
        <ele>408.145218</ele>
        <time>2021-11-11T21:56:38.716Z</time>
      </trkpt>
      <trkpt lat="47.462327" lon="7.860669">
        <ele>408.578324</ele>
        <time>2021-11-11T21:56:45.462Z</time>
      </trkpt>
      <trkpt lat="47.462285" lon="7.860769">
        <ele>408.692242</ele>
        <time>2021-11-11T21:56:47.357Z</time>
      </trkpt>
      <trkpt lat="47.462231" lon="7.860873">
        <ele>408.819134</ele>
        <time>2021-11-11T21:56:49.718Z</time>
      </trkpt>
      <trkpt lat="47.462014" lon="7.861235">
        <ele>409.495644</ele>
        <time>2021-11-11T21:56:57.360Z</time>
      </trkpt>
      <trkpt lat="47.461855" lon="7.861499">
        <ele>409.990274</ele>
        <time>2021-11-11T21:57:02.829Z</time>
      </trkpt>
      <trkpt lat="47.461541" lon="7.862217">
        <ele>411.186586</ele>
        <time>2021-11-11T21:57:16.505Z</time>
      </trkpt>
      <trkpt lat="47.461527" lon="7.862242">
        <ele>411.232001</ele>
        <time>2021-11-11T21:57:16.974Z</time>
      </trkpt>
      <trkpt lat="47.461353" lon="7.862539">
        <ele>411.781804</ele>
        <time>2021-11-11T21:57:23.290Z</time>
      </trkpt>
      <trkpt lat="47.461277" lon="7.862632">
        <ele>411.985912</ele>
        <time>2021-11-11T21:57:25.544Z</time>
      </trkpt>
      <trkpt lat="47.461098" lon="7.862848">
        <ele>412.463943</ele>
        <time>2021-11-11T21:57:30.799Z</time>
      </trkpt>
      <trkpt lat="47.460786" lon="7.863164">
        <ele>413.064719</ele>
        <time>2021-11-11T21:57:39.206Z</time>
      </trkpt>
      <trkpt lat="47.460527" lon="7.863440">
        <ele>413.554954</ele>
        <time>2021-11-11T21:57:45.971Z</time>
      </trkpt>
      <trkpt lat="47.460398" lon="7.863603">
        <ele>413.815511</ele>
        <time>2021-11-11T21:57:49.407Z</time>
      </trkpt>
      <trkpt lat="47.460271" lon="7.863810">
        <ele>414.105742</ele>
        <time>2021-11-11T21:57:52.952Z</time>
      </trkpt>
      <trkpt lat="47.460115" lon="7.864146">
        <ele>414.528952</ele>
        <time>2021-11-11T21:57:58.764Z</time>
      </trkpt>
      <trkpt lat="47.460001" lon="7.864512">
        <ele>414.947361</ele>
        <time>2021-11-11T21:58:04.281Z</time>
      </trkpt>
      <trkpt lat="47.459616" lon="7.865526">
        <ele>416.070433</ele>
        <time>2021-11-11T21:58:20.329Z</time>
      </trkpt>
      <trkpt lat="47.459563" lon="7.865651">
        <ele>416.208430</ele>
        <time>2021-11-11T21:58:21.921Z</time>
      </trkpt>
      <trkpt lat="47.459497" lon="7.865844">
        <ele>416.410716</ele>
        <time>2021-11-11T21:58:25.452Z</time>
      </trkpt>
      <trkpt lat="47.459383" lon="7.866214">
        <ele>416.791011</ele>
        <time>2021-11-11T21:58:30.766Z</time>
      </trkpt>
      <trkpt lat="47.459231" lon="7.866811">
        <ele>417.387657</ele>
        <time>2021-11-11T21:58:39.668Z</time>
      </trkpt>
      <trkpt lat="47.459152" lon="7.867074">
        <ele>417.656822</ele>
        <time>2021-11-11T21:58:43.291Z</time>
      </trkpt>
      <trkpt lat="47.459058" lon="7.867339">
        <ele>417.957951</ele>
        <time>2021-11-11T21:58:47.801Z</time>
      </trkpt>
      <trkpt lat="47.458844" lon="7.867795">
        <ele>418.553352</ele>
        <time>2021-11-11T21:58:55.709Z</time>
      </trkpt>
      <trkpt lat="47.458680" lon="7.868173">
        <ele>419.035109</ele>
        <time>2021-11-11T21:59:01.989Z</time>
      </trkpt>
      <trkpt lat="47.458252" lon="7.869378">
        <ele>420.495144</ele>
        <time>2021-11-11T21:59:21.515Z</time>
      </trkpt>
      <trkpt lat="47.458055" lon="7.870048">
        <ele>421.626254</ele>
        <time>2021-11-11T21:59:32.283Z</time>
      </trkpt>
      <trkpt lat="47.457897" lon="7.870571">
        <ele>422.577798</ele>
        <time>2021-11-11T21:59:41.059Z</time>
      </trkpt>
      <trkpt lat="47.457834" lon="7.870782">
        <ele>422.960950</ele>
        <time>2021-11-11T21:59:45.038Z</time>
      </trkpt>
      <trkpt lat="47.457598" lon="7.871461">
        <ele>424.229159</ele>
        <time>2021-11-11T21:59:57.176Z</time>
      </trkpt>
      <trkpt lat="47.457107" lon="7.872555">
        <ele>426.866024</ele>
        <time>2021-11-11T22:00:24.101Z</time>
      </trkpt>
      <trkpt lat="47.456956" lon="7.873025">
        <ele>428.023065</ele>
        <time>2021-11-11T22:00:35.024Z</time>
      </trkpt>
      <trkpt lat="47.456839" lon="7.873690">
        <ele>429.550964</ele>
        <time>2021-11-11T22:00:48.005Z</time>
      </trkpt>
      <trkpt lat="47.456816" lon="7.873911">
        <ele>430.048155</ele>
        <time>2021-11-11T22:00:52.421Z</time>
      </trkpt>
      <trkpt lat="47.456788" lon="7.874217">
        <ele>430.734764</ele>
        <time>2021-11-11T22:00:57.653Z</time>
      </trkpt>
      <trkpt lat="47.456714" lon="7.874531">
        <ele>431.166526</ele>
        <time>2021-11-11T22:01:03.214Z</time>
      </trkpt>
      <trkpt lat="47.456658" lon="7.874665">
        <ele>431.298988</ele>
        <time>2021-11-11T22:01:05.068Z</time>
      </trkpt>
      <trkpt lat="47.456403" lon="7.875046">
        <ele>431.749773</ele>
        <time>2021-11-11T22:01:12.924Z</time>
      </trkpt>
      <trkpt lat="47.455780" lon="7.875652">
        <ele>432.677106</ele>
        <time>2021-11-11T22:01:28.418Z</time>
      </trkpt>
      <trkpt lat="47.455446" lon="7.875966">
        <ele>433.169295</ele>
        <time>2021-11-11T22:01:34.127Z</time>
      </trkpt>
      <trkpt lat="47.455123" lon="7.876253">
        <ele>433.316399</ele>
        <time>2021-11-11T22:01:39.106Z</time>
      </trkpt>
      <trkpt lat="47.454502" lon="7.876895">
        <ele>433.540151</ele>
        <time>2021-11-11T22:01:50.234Z</time>
      </trkpt>
      <trkpt lat="47.454362" lon="7.877045">
        <ele>433.591204</ele>
        <time>2021-11-11T22:01:53.169Z</time>
      </trkpt>
      <trkpt lat="47.454184" lon="7.877263">
        <ele>433.659453</ele>
        <time>2021-11-11T22:01:57.262Z</time>
      </trkpt>
      <trkpt lat="47.453945" lon="7.877554">
        <ele>433.756166</ele>
        <time>2021-11-11T22:02:03.300Z</time>
      </trkpt>
      <trkpt lat="47.453816" lon="7.877709">
        <ele>433.880775</ele>
        <time>2021-11-11T22:02:06.429Z</time>
      </trkpt>
      <trkpt lat="47.453517" lon="7.878069">
        <ele>434.169831</ele>
        <time>2021-11-11T22:02:13.442Z</time>
      </trkpt>
      <trkpt lat="47.453302" lon="7.878355">
        <ele>434.386630</ele>
        <time>2021-11-11T22:02:18.780Z</time>
      </trkpt>
      <trkpt lat="47.453057" lon="7.878652">
        <ele>434.624131</ele>
        <time>2021-11-11T22:02:24.380Z</time>
      </trkpt>
      <trkpt lat="47.452813" lon="7.878981">
        <ele>434.871678</ele>
        <time>2021-11-11T22:02:30.010Z</time>
      </trkpt>
      <trkpt lat="47.452655" lon="7.879223">
        <ele>435.042212</ele>
        <time>2021-11-11T22:02:33.830Z</time>
      </trkpt>
      <trkpt lat="47.452247" lon="7.879980">
        <ele>435.609892</ele>
        <time>2021-11-11T22:02:45.291Z</time>
      </trkpt>
      <trkpt lat="47.451953" lon="7.880518">
        <ele>436.022284</ele>
        <time>2021-11-11T22:02:53.633Z</time>
      </trkpt>
      <trkpt lat="47.451581" lon="7.881111">
        <ele>436.504527</ele>
        <time>2021-11-11T22:03:04.174Z</time>
      </trkpt>
      <trkpt lat="47.451351" lon="7.881477">
        <ele>436.860863</ele>
        <time>2021-11-11T22:03:10.733Z</time>
      </trkpt>
      <trkpt lat="47.451309" lon="7.881545">
        <ele>436.942354</ele>
        <time>2021-11-11T22:03:11.975Z</time>
      </trkpt>
      <trkpt lat="47.451241" lon="7.881654">
        <ele>437.073576</ele>
        <time>2021-11-11T22:03:13.949Z</time>
      </trkpt>
      <trkpt lat="47.451051" lon="7.881948">
        <ele>437.433417</ele>
        <time>2021-11-11T22:03:19.519Z</time>
      </trkpt>
      <trkpt lat="47.450772" lon="7.882435">
        <ele>437.998192</ele>
        <time>2021-11-11T22:03:28.311Z</time>
      </trkpt>
      <trkpt lat="47.450733" lon="7.882508">
        <ele>438.080513</ele>
        <time>2021-11-11T22:03:29.583Z</time>
      </trkpt>
      <trkpt lat="47.450650" lon="7.882664">
        <ele>438.256153</ele>
        <time>2021-11-11T22:03:32.317Z</time>
      </trkpt>
      <trkpt lat="47.450548" lon="7.882846">
        <ele>438.465314</ele>
        <time>2021-11-11T22:03:35.582Z</time>
      </trkpt>
      <trkpt lat="47.450472" lon="7.882973">
        <ele>438.615375</ele>
        <time>2021-11-11T22:03:37.841Z</time>
      </trkpt>
      <trkpt lat="47.450274" lon="7.883264">
        <ele>438.980652</ele>
        <time>2021-11-11T22:03:43.477Z</time>
      </trkpt>
      <trkpt lat="47.449712" lon="7.884119">
        <ele>440.120527</ele>
        <time>2021-11-11T22:03:59.209Z</time>
      </trkpt>
      <trkpt lat="47.449068" lon="7.885121">
        <ele>441.447425</ele>
        <time>2021-11-11T22:04:17.804Z</time>
      </trkpt>
      <trkpt lat="47.449022" lon="7.885187">
        <ele>441.538402</ele>
        <time>2021-11-11T22:04:19.435Z</time>
      </trkpt>
      <trkpt lat="47.448867" lon="7.885429">
        <ele>442.632644</ele>
        <time>2021-11-11T22:04:24.676Z</time>
      </trkpt>
      <trkpt lat="47.448801" lon="7.885554">
        <ele>443.221303</ele>
        <time>2021-11-11T22:04:27.329Z</time>
      </trkpt>
      <trkpt lat="47.448759" lon="7.885611">
        <ele>443.534210</ele>
        <time>2021-11-11T22:04:28.655Z</time>
      </trkpt>
      <trkpt lat="47.448727" lon="7.885648">
        <ele>443.757175</ele>
        <time>2021-11-11T22:04:29.689Z</time>
      </trkpt>
      <trkpt lat="47.448623" lon="7.885730">
        <ele>444.404099</ele>
        <time>2021-11-11T22:04:32.612Z</time>
      </trkpt>
      <trkpt lat="47.448497" lon="7.885784">
        <ele>445.124163</ele>
        <time>2021-11-11T22:04:36.136Z</time>
      </trkpt>
      <trkpt lat="47.448503" lon="7.885850">
        <ele>445.371351</ele>
        <time>2021-11-11T22:04:37.330Z</time>
      </trkpt>
      <trkpt lat="47.448510" lon="7.885941">
        <ele>445.711312</ele>
        <time>2021-11-11T22:04:38.890Z</time>
      </trkpt>
      <trkpt lat="47.448509" lon="7.886022">
        <ele>446.012025</ele>
        <time>2021-11-11T22:04:40.342Z</time>
      </trkpt>
      <trkpt lat="47.448479" lon="7.886216">
        <ele>446.750720</ele>
        <time>2021-11-11T22:04:44.757Z</time>
      </trkpt>
      <trkpt lat="47.448449" lon="7.886310">
        <ele>447.136543</ele>
        <time>2021-11-11T22:04:47.176Z</time>
      </trkpt>
      <trkpt lat="47.448327" lon="7.886693">
        <ele>448.708020</ele>
        <time>2021-11-11T22:04:58.802Z</time>
      </trkpt>
      <trkpt lat="47.448252" lon="7.886934">
        <ele>449.692767</ele>
        <time>2021-11-11T22:05:09.129Z</time>
      </trkpt>
      <trkpt lat="47.448187" lon="7.887164">
        <ele>450.618058</ele>
        <time>2021-11-11T22:05:17.135Z</time>
      </trkpt>
      <trkpt lat="47.448053" lon="7.887573">
        <ele>453.189270</ele>
        <time>2021-11-11T22:05:34.095Z</time>
      </trkpt>
      <trkpt lat="47.447994" lon="7.887745">
        <ele>454.655059</ele>
        <time>2021-11-11T22:05:42.126Z</time>
      </trkpt>
      <trkpt lat="47.447924" lon="7.887980">
        <ele>456.606694</ele>
        <time>2021-11-11T22:05:51.727Z</time>
      </trkpt>
      <trkpt lat="47.447918" lon="7.888002">
        <ele>456.786984</ele>
        <time>2021-11-11T22:05:52.802Z</time>
      </trkpt>
      <trkpt lat="47.447781" lon="7.888460">
        <ele>460.593209</ele>
        <time>2021-11-11T22:06:13.244Z</time>
      </trkpt>
      <trkpt lat="47.447728" lon="7.888631">
        <ele>462.022847</ele>
        <time>2021-11-11T22:06:22.173Z</time>
      </trkpt>
      <trkpt lat="47.447650" lon="7.888831">
        <ele>463.777556</ele>
        <time>2021-11-11T22:06:33.330Z</time>
      </trkpt>
      <trkpt lat="47.447509" lon="7.889081">
        <ele>466.251692</ele>
        <time>2021-11-11T22:06:46.364Z</time>
      </trkpt>
      <trkpt lat="47.447331" lon="7.889272">
        <ele>468.723371</ele>
        <time>2021-11-11T22:06:59.140Z</time>
      </trkpt>
      <trkpt lat="47.446668" lon="7.889866">
        <ele>475.957017</ele>
        <time>2021-11-11T22:07:45.902Z</time>
      </trkpt>
      <trkpt lat="47.446569" lon="7.889962">
        <ele>476.946037</ele>
        <time>2021-11-11T22:07:54.148Z</time>
      </trkpt>
      <trkpt lat="47.446400" lon="7.890153">
        <ele>478.723017</ele>
        <time>2021-11-11T22:08:03.990Z</time>
      </trkpt>
      <trkpt lat="47.445742" lon="7.891213">
        <ele>486.805556</ele>
        <time>2021-11-11T22:08:42.686Z</time>
      </trkpt>
      <trkpt lat="47.445595" lon="7.891655">
        <ele>488.732829</ele>
        <time>2021-11-11T22:08:55.779Z</time>
      </trkpt>
      <trkpt lat="47.445231" lon="7.893511">
        <ele>496.294232</ele>
        <time>2021-11-11T22:09:44.706Z</time>
      </trkpt>
      <trkpt lat="47.444611" lon="7.894568">
        <ele>501.384280</ele>
        <time>2021-11-11T22:10:20.406Z</time>
      </trkpt>
      <trkpt lat="47.444374" lon="7.895190">
        <ele>503.947240</ele>
        <time>2021-11-11T22:10:37.165Z</time>
      </trkpt>
      <trkpt lat="47.444269" lon="7.895507">
        <ele>505.214420</ele>
        <time>2021-11-11T22:10:45.506Z</time>
      </trkpt>
      <trkpt lat="47.444186" lon="7.895774">
        <ele>506.269351</ele>
        <time>2021-11-11T22:10:52.332Z</time>
      </trkpt>
      <trkpt lat="47.444057" lon="7.896377">
        <ele>508.840757</ele>
        <time>2021-11-11T22:11:07.137Z</time>
      </trkpt>
      <trkpt lat="47.443973" lon="7.897319">
        <ele>512.796375</ele>
        <time>2021-11-11T22:11:29.997Z</time>
      </trkpt>
      <trkpt lat="47.443656" lon="7.899062">
        <ele>521.900122</ele>
        <time>2021-11-11T22:12:23.932Z</time>
      </trkpt>
      <trkpt lat="47.443601" lon="7.899993">
        <ele>528.184399</ele>
        <time>2021-11-11T22:12:58.878Z</time>
      </trkpt>
      <trkpt lat="47.443701" lon="7.901256">
        <ele>536.844410</ele>
        <time>2021-11-11T22:13:50.862Z</time>
      </trkpt>
      <trkpt lat="47.443979" lon="7.902634">
        <ele>547.451432</ele>
        <time>2021-11-11T22:14:51.840Z</time>
      </trkpt>
      <trkpt lat="47.444039" lon="7.903160">
        <ele>551.386112</ele>
        <time>2021-11-11T22:15:12.855Z</time>
      </trkpt>
      <trkpt lat="47.443987" lon="7.903658">
        <ele>555.102983</ele>
        <time>2021-11-11T22:15:31.108Z</time>
      </trkpt>
      <trkpt lat="47.443774" lon="7.904468">
        <ele>558.524192</ele>
        <time>2021-11-11T22:15:59.189Z</time>
      </trkpt>
      <trkpt lat="47.443812" lon="7.904620">
        <ele>559.151119</ele>
        <time>2021-11-11T22:16:03.285Z</time>
      </trkpt>
      <trkpt lat="47.444103" lon="7.905127">
        <ele>561.723660</ele>
        <time>2021-11-11T22:16:19.089Z</time>
      </trkpt>
      <trkpt lat="47.444124" lon="7.905848">
        <ele>564.515536</ele>
        <time>2021-11-11T22:16:33.884Z</time>
      </trkpt>
      <trkpt lat="47.444095" lon="7.905911">
        <ele>564.810358</ele>
        <time>2021-11-11T22:16:36.253Z</time>
      </trkpt>
      <trkpt lat="47.444060" lon="7.905957">
        <ele>565.078224</ele>
        <time>2021-11-11T22:16:37.609Z</time>
      </trkpt>
      <trkpt lat="47.444021" lon="7.905974">
        <ele>565.310805</ele>
        <time>2021-11-11T22:16:38.109Z</time>
      </trkpt>
      <trkpt lat="47.443887" lon="7.905861">
        <ele>565.713198</ele>
        <time>2021-11-11T22:16:41.392Z</time>
      </trkpt>
      <trkpt lat="47.443715" lon="7.905422">
        <ele>566.285081</ele>
        <time>2021-11-11T22:16:49.589Z</time>
      </trkpt>
      <trkpt lat="47.443616" lon="7.905326">
        <ele>566.482402</ele>
        <time>2021-11-11T22:16:52.993Z</time>
      </trkpt>
      <trkpt lat="47.443478" lon="7.905315">
        <ele>566.712739</ele>
        <time>2021-11-11T22:16:56.254Z</time>
      </trkpt>
      <trkpt lat="47.443437" lon="7.905338">
        <ele>566.785826</ele>
        <time>2021-11-11T22:16:56.778Z</time>
      </trkpt>
      <trkpt lat="47.443060" lon="7.905749">
        <ele>567.566498</ele>
        <time>2021-11-11T22:17:06.468Z</time>
      </trkpt>
      <trkpt lat="47.442920" lon="7.905863">
        <ele>567.832879</ele>
        <time>2021-11-11T22:17:10.432Z</time>
      </trkpt>
      <trkpt lat="47.442740" lon="7.906009">
        <ele>568.175059</ele>
        <time>2021-11-11T22:17:13.126Z</time>
      </trkpt>
      <trkpt lat="47.442586" lon="7.906135">
        <ele>568.468406</ele>
        <time>2021-11-11T22:17:16.974Z</time>
      </trkpt>
      <trkpt lat="47.442338" lon="7.906317">
        <ele>568.451244</ele>
        <time>2021-11-11T22:17:20.778Z</time>
      </trkpt>
      <trkpt lat="47.442196" lon="7.906411">
        <ele>568.412391</ele>
        <time>2021-11-11T22:17:23.337Z</time>
      </trkpt>
      <trkpt lat="47.441977" lon="7.906511">
        <ele>568.355152</ele>
        <time>2021-11-11T22:17:26.551Z</time>
      </trkpt>
      <trkpt lat="47.441743" lon="7.906608">
        <ele>568.294463</ele>
        <time>2021-11-11T22:17:29.959Z</time>
      </trkpt>
      <trkpt lat="47.441622" lon="7.906657">
        <ele>568.263133</ele>
        <time>2021-11-11T22:17:32.153Z</time>
      </trkpt>
      <trkpt lat="47.441570" lon="7.906678">
        <ele>568.249671</ele>
        <time>2021-11-11T22:17:33.347Z</time>
      </trkpt>
      <trkpt lat="47.441463" lon="7.906711">
        <ele>568.222376</ele>
        <time>2021-11-11T22:17:34.847Z</time>
      </trkpt>
      <trkpt lat="47.441439" lon="7.906719">
        <ele>568.216232</ele>
        <time>2021-11-11T22:17:35.097Z</time>
      </trkpt>
      <trkpt lat="47.441212" lon="7.906790">
        <ele>568.158289</ele>
        <time>2021-11-11T22:17:38.477Z</time>
      </trkpt>
      <trkpt lat="47.440946" lon="7.906861">
        <ele>568.090788</ele>
        <time>2021-11-11T22:17:41.568Z</time>
      </trkpt>
      <trkpt lat="47.440759" lon="7.906942">
        <ele>567.938549</ele>
        <time>2021-11-11T22:17:44.431Z</time>
      </trkpt>
      <trkpt lat="47.440689" lon="7.906996">
        <ele>567.827316</ele>
        <time>2021-11-11T22:17:45.225Z</time>
      </trkpt>
      <trkpt lat="47.440645" lon="7.907088">
        <ele>567.719952</ele>
        <time>2021-11-11T22:17:46.101Z</time>
      </trkpt>
      <trkpt lat="47.440578" lon="7.907274">
        <ele>567.519153</ele>
        <time>2021-11-11T22:17:47.855Z</time>
      </trkpt>
      <trkpt lat="47.440484" lon="7.907616">
        <ele>567.167398</ele>
        <time>2021-11-11T22:17:50.503Z</time>
      </trkpt>
      <trkpt lat="47.440422" lon="7.907842">
        <ele>566.935012</ele>
        <time>2021-11-11T22:17:52.417Z</time>
      </trkpt>
      <trkpt lat="47.440348" lon="7.908111">
        <ele>566.658304</ele>
        <time>2021-11-11T22:17:54.503Z</time>
      </trkpt>
      <trkpt lat="47.440306" lon="7.908217">
        <ele>566.541246</ele>
        <time>2021-11-11T22:17:55.619Z</time>
      </trkpt>
      <trkpt lat="47.440124" lon="7.908395">
        <ele>566.233822</ele>
        <time>2021-11-11T22:17:57.978Z</time>
      </trkpt>
      <trkpt lat="47.439774" lon="7.908833">
        <ele>565.587823</ele>
        <time>2021-11-11T22:18:03.554Z</time>
      </trkpt>
      <trkpt lat="47.439615" lon="7.909100">
        <ele>565.482102</ele>
        <time>2021-11-11T22:18:06.564Z</time>
      </trkpt>
      <trkpt lat="47.439518" lon="7.909224">
        <ele>565.451058</ele>
        <time>2021-11-11T22:18:08.370Z</time>
      </trkpt>
      <trkpt lat="47.439483" lon="7.909286">
        <ele>565.437834</ele>
        <time>2021-11-11T22:18:09.124Z</time>
      </trkpt>
      <trkpt lat="47.439145" lon="7.909911">
        <ele>565.306800</ele>
        <time>2021-11-11T22:18:16.196Z</time>
      </trkpt>
      <trkpt lat="47.439047" lon="7.910071">
        <ele>565.271454</ele>
        <time>2021-11-11T22:18:18.315Z</time>
      </trkpt>
      <trkpt lat="47.438918" lon="7.910246">
        <ele>565.229068</ele>
        <time>2021-11-11T22:18:20.697Z</time>
      </trkpt>
      <trkpt lat="47.438881" lon="7.910291">
        <ele>565.217469</ele>
        <time>2021-11-11T22:18:21.368Z</time>
      </trkpt>
      <trkpt lat="47.438724" lon="7.910439">
        <ele>565.172391</ele>
        <time>2021-11-11T22:18:24.158Z</time>
      </trkpt>
      <trkpt lat="47.438659" lon="7.910501">
        <ele>565.153664</ele>
        <time>2021-11-11T22:18:25.227Z</time>
      </trkpt>
      <trkpt lat="47.438339" lon="7.910703">
        <ele>565.220058</ele>
        <time>2021-11-11T22:18:31.340Z</time>
      </trkpt>
      <trkpt lat="47.437939" lon="7.911215">
        <ele>565.844809</ele>
        <time>2021-11-11T22:18:41.240Z</time>
      </trkpt>
      <trkpt lat="47.437281" lon="7.911740">
        <ele>566.727711</ele>
        <time>2021-11-11T22:18:56.114Z</time>
      </trkpt>
      <trkpt lat="47.437154" lon="7.911831">
        <ele>566.894359</ele>
        <time>2021-11-11T22:18:59.170Z</time>
      </trkpt>
      <trkpt lat="47.436962" lon="7.911943">
        <ele>567.138085</ele>
        <time>2021-11-11T22:19:03.247Z</time>
      </trkpt>
      <trkpt lat="47.436670" lon="7.912144">
        <ele>567.810465</ele>
        <time>2021-11-11T22:19:10.135Z</time>
      </trkpt>
      <trkpt lat="47.436616" lon="7.912213">
        <ele>567.976923</ele>
        <time>2021-11-11T22:19:12.091Z</time>
      </trkpt>
      <trkpt lat="47.436578" lon="7.912267">
        <ele>568.099848</ele>
        <time>2021-11-11T22:19:13.488Z</time>
      </trkpt>
      <trkpt lat="47.436515" lon="7.912405">
        <ele>568.362487</ele>
        <time>2021-11-11T22:19:15.993Z</time>
      </trkpt>
      <trkpt lat="47.436476" lon="7.912706">
        <ele>568.845950</ele>
        <time>2021-11-11T22:19:20.618Z</time>
      </trkpt>
      <trkpt lat="47.436408" lon="7.913110">
        <ele>569.502700</ele>
        <time>2021-11-11T22:19:26.637Z</time>
      </trkpt>
      <trkpt lat="47.436396" lon="7.913182">
        <ele>569.619678</ele>
        <time>2021-11-11T22:19:27.967Z</time>
      </trkpt>
      <trkpt lat="47.436332" lon="7.913599">
        <ele>570.294222</ele>
        <time>2021-11-11T22:19:35.921Z</time>
      </trkpt>
      <trkpt lat="47.436328" lon="7.913781">
        <ele>570.581481</ele>
        <time>2021-11-11T22:19:39.725Z</time>
      </trkpt>
      <trkpt lat="47.436426" lon="7.914382">
        <ele>571.637468</ele>
        <time>2021-11-11T22:19:50.761Z</time>
      </trkpt>
      <trkpt lat="47.436448" lon="7.914429">
        <ele>571.778532</ele>
        <time>2021-11-11T22:19:51.708Z</time>
      </trkpt>
      <trkpt lat="47.436779" lon="7.915143">
        <ele>573.914848</ele>
        <time>2021-11-11T22:20:05.948Z</time>
      </trkpt>
      <trkpt lat="47.436788" lon="7.915208">
        <ele>574.078595</ele>
        <time>2021-11-11T22:20:07.902Z</time>
      </trkpt>
      <trkpt lat="47.436789" lon="7.915276">
        <ele>574.246460</ele>
        <time>2021-11-11T22:20:09.598Z</time>
      </trkpt>
      <trkpt lat="47.436664" lon="7.915572">
        <ele>575.107678</ele>
        <time>2021-11-11T22:20:15.580Z</time>
      </trkpt>
      <trkpt lat="47.436405" lon="7.916185">
        <ele>576.891475</ele>
        <time>2021-11-11T22:20:31.592Z</time>
      </trkpt>
      <trkpt lat="47.436153" lon="7.916928">
        <ele>579.337218</ele>
        <time>2021-11-11T22:20:49.672Z</time>
      </trkpt>
      <trkpt lat="47.436025" lon="7.917438">
        <ele>581.227674</ele>
        <time>2021-11-11T22:21:03.058Z</time>
      </trkpt>
      <trkpt lat="47.435776" lon="7.918311">
        <ele>584.520280</ele>
        <time>2021-11-11T22:21:26.031Z</time>
      </trkpt>
      <trkpt lat="47.435658" lon="7.918713">
        <ele>586.043218</ele>
        <time>2021-11-11T22:21:37.033Z</time>
      </trkpt>
      <trkpt lat="47.435475" lon="7.919362">
        <ele>588.603894</ele>
        <time>2021-11-11T22:21:54.665Z</time>
      </trkpt>
      <trkpt lat="47.435403" lon="7.919605">
        <ele>589.610906</ele>
        <time>2021-11-11T22:22:00.817Z</time>
      </trkpt>
      <trkpt lat="47.435333" lon="7.919826">
        <ele>590.537213</ele>
        <time>2021-11-11T22:22:06.950Z</time>
      </trkpt>
      <trkpt lat="47.435252" lon="7.920039">
        <ele>591.464751</ele>
        <time>2021-11-11T22:22:13.016Z</time>
      </trkpt>
      <trkpt lat="47.435052" lon="7.920397">
        <ele>593.227237</ele>
        <time>2021-11-11T22:22:25.442Z</time>
      </trkpt>
      <trkpt lat="47.434702" lon="7.921025">
        <ele>596.315987</ele>
        <time>2021-11-11T22:22:46.129Z</time>
      </trkpt>
      <trkpt lat="47.434524" lon="7.921435">
        <ele>598.192632</ele>
        <time>2021-11-11T22:22:57.989Z</time>
      </trkpt>
      <trkpt lat="47.434378" lon="7.921753">
        <ele>599.698209</ele>
        <time>2021-11-11T22:23:07.624Z</time>
      </trkpt>
      <trkpt lat="47.434253" lon="7.922015">
        <ele>600.954179</ele>
        <time>2021-11-11T22:23:15.252Z</time>
      </trkpt>
      <trkpt lat="47.433914" lon="7.922971">
        <ele>605.182627</ele>
        <time>2021-11-11T22:23:43.943Z</time>
      </trkpt>
      <trkpt lat="47.433902" lon="7.923204">
        <ele>606.098033</ele>
        <time>2021-11-11T22:23:50.224Z</time>
      </trkpt>
      <trkpt lat="47.434035" lon="7.924100">
        <ele>609.014577</ele>
        <time>2021-11-11T22:24:14.504Z</time>
      </trkpt>
      <trkpt lat="47.434048" lon="7.924524">
        <ele>610.104192</ele>
        <time>2021-11-11T22:24:24.280Z</time>
      </trkpt>
      <trkpt lat="47.434048" lon="7.924731">
        <ele>610.635604</ele>
        <time>2021-11-11T22:24:29.187Z</time>
      </trkpt>
      <trkpt lat="47.433985" lon="7.925315">
        <ele>612.153801</ele>
        <time>2021-11-11T22:24:40.971Z</time>
      </trkpt>
      <trkpt lat="47.433569" lon="7.926574">
        <ele>614.359209</ele>
        <time>2021-11-11T22:25:03.204Z</time>
      </trkpt>
      <trkpt lat="47.433455" lon="7.926970">
        <ele>614.179857</ele>
        <time>2021-11-11T22:25:07.729Z</time>
      </trkpt>
      <trkpt lat="47.433388" lon="7.927259">
        <ele>614.052542</ele>
        <time>2021-11-11T22:25:10.409Z</time>
      </trkpt>
      <trkpt lat="47.433296" lon="7.927408">
        <ele>613.968469</ele>
        <time>2021-11-11T22:25:12.198Z</time>
      </trkpt>
      <trkpt lat="47.432918" lon="7.927850">
        <ele>613.671550</ele>
        <time>2021-11-11T22:25:18.259Z</time>
      </trkpt>
      <trkpt lat="47.432392" lon="7.928678">
        <ele>611.713717</ele>
        <time>2021-11-11T22:25:25.968Z</time>
      </trkpt>
      <trkpt lat="47.432343" lon="7.928929">
        <ele>610.951322</ele>
        <time>2021-11-11T22:25:27.695Z</time>
      </trkpt>
      <trkpt lat="47.432332" lon="7.929564">
        <ele>609.097568</ele>
        <time>2021-11-11T22:25:31.836Z</time>
      </trkpt>
      <trkpt lat="47.432320" lon="7.929632">
        <ele>608.892480</ele>
        <time>2021-11-11T22:25:32.343Z</time>
      </trkpt>
      <trkpt lat="47.432376" lon="7.929666">
        <ele>608.631306</ele>
        <time>2021-11-11T22:25:32.876Z</time>
      </trkpt>
      <trkpt lat="47.432548" lon="7.929945">
        <ele>607.529691</ele>
        <time>2021-11-11T22:25:35.298Z</time>
      </trkpt>
      <trkpt lat="47.432569" lon="7.930011">
        <ele>607.316838</ele>
        <time>2021-11-11T22:25:35.815Z</time>
      </trkpt>
      <trkpt lat="47.432626" lon="7.930198">
        <ele>606.718267</ele>
        <time>2021-11-11T22:25:37.083Z</time>
      </trkpt>
      <trkpt lat="47.432655" lon="7.930328">
        <ele>606.318788</ele>
        <time>2021-11-11T22:25:37.981Z</time>
      </trkpt>
      <trkpt lat="47.432664" lon="7.930471">
        <ele>605.899666</ele>
        <time>2021-11-11T22:25:38.900Z</time>
      </trkpt>
      <trkpt lat="47.432518" lon="7.931622">
        <ele>601.035806</ele>
        <time>2021-11-11T22:25:46.254Z</time>
      </trkpt>
      <trkpt lat="47.432491" lon="7.931730">
        <ele>600.548098</ele>
        <time>2021-11-11T22:25:46.932Z</time>
      </trkpt>
      <trkpt lat="47.432474" lon="7.931798">
        <ele>600.241023</ele>
        <time>2021-11-11T22:25:47.396Z</time>
      </trkpt>
      <trkpt lat="47.432246" lon="7.932289">
        <ele>597.718377</ele>
        <time>2021-11-11T22:25:51.014Z</time>
      </trkpt>
      <trkpt lat="47.431940" lon="7.932715">
        <ele>595.086366</ele>
        <time>2021-11-11T22:25:54.779Z</time>
      </trkpt>
      <trkpt lat="47.431916" lon="7.932769">
        <ele>594.812680</ele>
        <time>2021-11-11T22:25:55.297Z</time>
      </trkpt>
      <trkpt lat="47.431934" lon="7.932867">
        <ele>594.384240</ele>
        <time>2021-11-11T22:25:55.893Z</time>
      </trkpt>
      <trkpt lat="47.432257" lon="7.933273">
        <ele>591.840321</ele>
        <time>2021-11-11T22:25:59.760Z</time>
      </trkpt>
      <trkpt lat="47.432362" lon="7.933398">
        <ele>591.031420</ele>
        <time>2021-11-11T22:26:00.966Z</time>
      </trkpt>
      <trkpt lat="47.432488" lon="7.933576">
        <ele>589.985705</ele>
        <time>2021-11-11T22:26:02.571Z</time>
      </trkpt>
      <trkpt lat="47.432554" lon="7.933755">
        <ele>589.158260</ele>
        <time>2021-11-11T22:26:03.865Z</time>
      </trkpt>
      <trkpt lat="47.432569" lon="7.933827">
        <ele>588.852480</ele>
        <time>2021-11-11T22:26:04.313Z</time>
      </trkpt>
      <trkpt lat="47.432578" lon="7.933907">
        <ele>588.523315</ele>
        <time>2021-11-11T22:26:04.856Z</time>
      </trkpt>
      <trkpt lat="47.432647" lon="7.934240">
        <ele>587.109745</ele>
        <time>2021-11-11T22:26:06.988Z</time>
      </trkpt>
      <trkpt lat="47.432802" lon="7.934732">
        <ele>584.906870</ele>
        <time>2021-11-11T22:26:10.346Z</time>
      </trkpt>
      <trkpt lat="47.432965" lon="7.935043">
        <ele>583.539319</ele>
        <time>2021-11-11T22:26:12.846Z</time>
      </trkpt>
      <trkpt lat="47.433050" lon="7.935392">
        <ele>583.108468</ele>
        <time>2021-11-11T22:26:15.169Z</time>
      </trkpt>
      <trkpt lat="47.433187" lon="7.935304">
        <ele>582.851977</ele>
        <time>2021-11-11T22:26:16.622Z</time>
      </trkpt>
      <trkpt lat="47.433385" lon="7.935078">
        <ele>582.422442</ele>
        <time>2021-11-11T22:26:19.320Z</time>
      </trkpt>
      <trkpt lat="47.433512" lon="7.934950">
        <ele>582.158510</ele>
        <time>2021-11-11T22:26:20.890Z</time>
      </trkpt>
      <trkpt lat="47.433620" lon="7.934930">
        <ele>581.971614</ele>
        <time>2021-11-11T22:26:23.401Z</time>
      </trkpt>
      <trkpt lat="47.434298" lon="7.934609">
        <ele>580.749170</ele>
        <time>2021-11-11T22:26:35.332Z</time>
      </trkpt>
      <trkpt lat="47.434567" lon="7.934576">
        <ele>580.462873</ele>
        <time>2021-11-11T22:26:39.847Z</time>
      </trkpt>
      <trkpt lat="47.434614" lon="7.934590">
        <ele>580.437286</ele>
        <time>2021-11-11T22:26:41.007Z</time>
      </trkpt>
      <trkpt lat="47.434668" lon="7.934617">
        <ele>580.406862</ele>
        <time>2021-11-11T22:26:42.527Z</time>
      </trkpt>
      <trkpt lat="47.434806" lon="7.934720">
        <ele>580.324359</ele>
        <time>2021-11-11T22:26:44.117Z</time>
      </trkpt>
      <trkpt lat="47.434953" lon="7.934914">
        <ele>580.219193</ele>
        <time>2021-11-11T22:26:48.434Z</time>
      </trkpt>
      <trkpt lat="47.435021" lon="7.934988">
        <ele>580.174130</ele>
        <time>2021-11-11T22:26:49.231Z</time>
      </trkpt>
      <trkpt lat="47.435108" lon="7.935067">
        <ele>580.119639</ele>
        <time>2021-11-11T22:26:50.655Z</time>
      </trkpt>
      <trkpt lat="47.435139" lon="7.935085">
        <ele>580.101865</ele>
        <time>2021-11-11T22:26:51.672Z</time>
      </trkpt>
      <trkpt lat="47.435218" lon="7.935133">
        <ele>580.056281</ele>
        <time>2021-11-11T22:26:53.106Z</time>
      </trkpt>
      <trkpt lat="47.435945" lon="7.935453">
        <ele>579.651454</ele>
        <time>2021-11-11T22:27:02.513Z</time>
      </trkpt>
      <trkpt lat="47.435987" lon="7.935459">
        <ele>579.628934</ele>
        <time>2021-11-11T22:27:03.070Z</time>
      </trkpt>
      <trkpt lat="47.436041" lon="7.935466">
        <ele>579.600004</ele>
        <time>2021-11-11T22:27:03.555Z</time>
      </trkpt>
      <trkpt lat="47.436379" lon="7.935508">
        <ele>579.478684</ele>
        <time>2021-11-11T22:27:07.798Z</time>
      </trkpt>
      <trkpt lat="47.436645" lon="7.935783">
        <ele>579.368564</ele>
        <time>2021-11-11T22:27:11.802Z</time>
      </trkpt>
      <trkpt lat="47.436754" lon="7.935830">
        <ele>579.330044</ele>
        <time>2021-11-11T22:27:12.953Z</time>
      </trkpt>
      <trkpt lat="47.436817" lon="7.935819">
        <ele>579.308522</ele>
        <time>2021-11-11T22:27:13.540Z</time>
      </trkpt>
      <trkpt lat="47.436959" lon="7.935813">
        <ele>579.260327</ele>
        <time>2021-11-11T22:27:17.007Z</time>
      </trkpt>
      <trkpt lat="47.437163" lon="7.935805">
        <ele>579.191094</ele>
        <time>2021-11-11T22:27:19.087Z</time>
      </trkpt>
      <trkpt lat="47.437455" lon="7.935929">
        <ele>579.088024</ele>
        <time>2021-11-11T22:27:23.964Z</time>
      </trkpt>
      <trkpt lat="47.438097" lon="7.936295">
        <ele>579.764631</ele>
        <time>2021-11-11T22:27:39.829Z</time>
      </trkpt>
      <trkpt lat="47.438488" lon="7.936601">
        <ele>580.771443</ele>
        <time>2021-11-11T22:27:51.394Z</time>
      </trkpt>
      <trkpt lat="47.438795" lon="7.937030">
        <ele>581.732800</ele>
        <time>2021-11-11T22:28:02.786Z</time>
      </trkpt>
      <trkpt lat="47.439053" lon="7.937594">
        <ele>582.780868</ele>
        <time>2021-11-11T22:28:13.760Z</time>
      </trkpt>
      <trkpt lat="47.439305" lon="7.937977">
        <ele>583.682692</ele>
        <time>2021-11-11T22:28:21.111Z</time>
      </trkpt>
      <trkpt lat="47.439513" lon="7.938183">
        <ele>584.336579</ele>
        <time>2021-11-11T22:28:26.240Z</time>
      </trkpt>
      <trkpt lat="47.439973" lon="7.938391">
        <ele>585.592960</ele>
        <time>2021-11-11T22:28:38.332Z</time>
      </trkpt>
      <trkpt lat="47.440111" lon="7.938384">
        <ele>585.953606</ele>
        <time>2021-11-11T22:28:40.995Z</time>
      </trkpt>
      <trkpt lat="47.440276" lon="7.938174">
        <ele>586.522240</ele>
        <time>2021-11-11T22:28:47.337Z</time>
      </trkpt>
      <trkpt lat="47.440493" lon="7.937497">
        <ele>587.922718</ele>
        <time>2021-11-11T22:29:00.733Z</time>
      </trkpt>
      <trkpt lat="47.440535" lon="7.937445">
        <ele>588.200313</ele>
        <time>2021-11-11T22:29:01.282Z</time>
      </trkpt>
      <trkpt lat="47.440583" lon="7.937384">
        <ele>588.521049</ele>
        <time>2021-11-11T22:29:05.883Z</time>
      </trkpt>
      <trkpt lat="47.440806" lon="7.937210">
        <ele>589.798777</ele>
        <time>2021-11-11T22:29:12.749Z</time>
      </trkpt>
      <trkpt lat="47.441000" lon="7.937143">
        <ele>590.808308</ele>
        <time>2021-11-11T22:29:20.742Z</time>
      </trkpt>
      <trkpt lat="47.441541" lon="7.937289">
        <ele>593.595042</ele>
        <time>2021-11-11T22:29:39.657Z</time>
      </trkpt>
      <trkpt lat="47.442638" lon="7.937187">
        <ele>598.351460</ele>
        <time>2021-11-11T22:30:23.932Z</time>
      </trkpt>
      <trkpt lat="47.443543" lon="7.937251">
        <ele>601.309481</ele>
        <time>2021-11-11T22:30:48.943Z</time>
      </trkpt>
      <trkpt lat="47.443821" lon="7.937284">
        <ele>602.220015</ele>
        <time>2021-11-11T22:30:54.530Z</time>
      </trkpt>
      <trkpt lat="47.444030" lon="7.937346">
        <ele>602.595464</ele>
        <time>2021-11-11T22:30:58.081Z</time>
      </trkpt>
      <trkpt lat="47.444304" lon="7.937471">
        <ele>601.720048</ele>
        <time>2021-11-11T22:31:01.951Z</time>
      </trkpt>
      <trkpt lat="47.444544" lon="7.937668">
        <ele>600.882012</ele>
        <time>2021-11-11T22:31:05.293Z</time>
      </trkpt>
      <trkpt lat="47.444935" lon="7.938269">
        <ele>599.160175</ele>
        <time>2021-11-11T22:31:11.006Z</time>
      </trkpt>
      <trkpt lat="47.445088" lon="7.938426">
        <ele>598.591615</ele>
        <time>2021-11-11T22:31:12.777Z</time>
      </trkpt>
      <trkpt lat="47.445739" lon="7.938730">
        <ele>595.622208</ele>
        <time>2021-11-11T22:31:19.044Z</time>
      </trkpt>
      <trkpt lat="47.445987" lon="7.938989">
        <ele>593.603873</ele>
        <time>2021-11-11T22:31:21.727Z</time>
      </trkpt>
      <trkpt lat="47.446136" lon="7.939210">
        <ele>592.200949</ele>
        <time>2021-11-11T22:31:23.620Z</time>
      </trkpt>
      <trkpt lat="47.446200" lon="7.939305">
        <ele>591.598116</ele>
        <time>2021-11-11T22:31:24.393Z</time>
      </trkpt>
      <trkpt lat="47.446350" lon="7.939484">
        <ele>590.316765</ele>
        <time>2021-11-11T22:31:26.225Z</time>
      </trkpt>
      <trkpt lat="47.446714" lon="7.939663">
        <ele>587.766740</ele>
        <time>2021-11-11T22:31:29.667Z</time>
      </trkpt>
      <trkpt lat="47.446911" lon="7.939640">
        <ele>586.453089</ele>
        <time>2021-11-11T22:31:31.415Z</time>
      </trkpt>
      <trkpt lat="47.447023" lon="7.939500">
        <ele>585.478180</ele>
        <time>2021-11-11T22:31:32.816Z</time>
      </trkpt>
      <trkpt lat="47.447088" lon="7.939400">
        <ele>585.119053</ele>
        <time>2021-11-11T22:31:33.622Z</time>
      </trkpt>
      <trkpt lat="47.447148" lon="7.939307">
        <ele>584.882345</ele>
        <time>2021-11-11T22:31:34.418Z</time>
      </trkpt>
      <trkpt lat="47.447375" lon="7.938987">
        <ele>584.028278</ele>
        <time>2021-11-11T22:31:37.308Z</time>
      </trkpt>
      <trkpt lat="47.447514" lon="7.938816">
        <ele>583.535882</ele>
        <time>2021-11-11T22:31:39.311Z</time>
      </trkpt>
      <trkpt lat="47.447579" lon="7.938758">
        <ele>583.329143</ele>
        <time>2021-11-11T22:31:40.040Z</time>
      </trkpt>
      <trkpt lat="47.447622" lon="7.938729">
        <ele>583.200441</ele>
        <time>2021-11-11T22:31:40.475Z</time>
      </trkpt>
      <trkpt lat="47.447884" lon="7.938706">
        <ele>582.485703</ele>
        <time>2021-11-11T22:31:43.723Z</time>
      </trkpt>
      <trkpt lat="47.448076" lon="7.938764">
        <ele>581.952049</ele>
        <time>2021-11-11T22:31:45.714Z</time>
      </trkpt>
      <trkpt lat="47.448323" lon="7.938940">
        <ele>581.205397</ele>
        <time>2021-11-11T22:31:48.760Z</time>
      </trkpt>
      <trkpt lat="47.448504" lon="7.939113">
        <ele>580.618496</ele>
        <time>2021-11-11T22:31:52.756Z</time>
      </trkpt>
      <trkpt lat="47.448566" lon="7.939145">
        <ele>580.439668</ele>
        <time>2021-11-11T22:31:54.113Z</time>
      </trkpt>
      <trkpt lat="47.448632" lon="7.939166">
        <ele>580.546996</ele>
        <time>2021-11-11T22:31:55.390Z</time>
      </trkpt>
      <trkpt lat="47.448737" lon="7.939187">
        <ele>580.823711</ele>
        <time>2021-11-11T22:31:57.344Z</time>
      </trkpt>
      <trkpt lat="47.448995" lon="7.939236">
        <ele>581.503040</ele>
        <time>2021-11-11T22:32:02.828Z</time>
      </trkpt>
      <trkpt lat="47.449095" lon="7.939194">
        <ele>581.774530</ele>
        <time>2021-11-11T22:32:04.861Z</time>
      </trkpt>
      <trkpt lat="47.449121" lon="7.939164">
        <ele>581.860656</ele>
        <time>2021-11-11T22:32:05.568Z</time>
      </trkpt>
      <trkpt lat="47.449215" lon="7.939276">
        <ele>582.175920</ele>
        <time>2021-11-11T22:32:08.394Z</time>
      </trkpt>
      <trkpt lat="47.449278" lon="7.939333">
        <ele>582.368804</ele>
        <time>2021-11-11T22:32:10.046Z</time>
      </trkpt>
      <trkpt lat="47.449351" lon="7.939383">
        <ele>582.578908</ele>
        <time>2021-11-11T22:32:11.638Z</time>
      </trkpt>
      <trkpt lat="47.449443" lon="7.939446">
        <ele>582.843687</ele>
        <time>2021-11-11T22:32:13.780Z</time>
      </trkpt>
      <trkpt lat="47.449589" lon="7.939535">
        <ele>583.256108</ele>
        <time>2021-11-11T22:32:18.576Z</time>
      </trkpt>
      <trkpt lat="47.449814" lon="7.939672">
        <ele>583.891582</ele>
        <time>2021-11-11T22:32:24.673Z</time>
      </trkpt>
      <trkpt lat="47.449913" lon="7.939726">
        <ele>584.167159</ele>
        <time>2021-11-11T22:32:28.551Z</time>
      </trkpt>
      <trkpt lat="47.450248" lon="7.939948">
        <ele>585.159345</ele>
        <time>2021-11-11T22:32:40.757Z</time>
      </trkpt>
      <trkpt lat="47.450383" lon="7.940114">
        <ele>586.255225</ele>
        <time>2021-11-11T22:32:46.625Z</time>
      </trkpt>
      <trkpt lat="47.450538" lon="7.940621">
        <ele>588.603718</ele>
        <time>2021-11-11T22:33:00.546Z</time>
      </trkpt>
      <trkpt lat="47.450568" lon="7.940770">
        <ele>589.259904</ele>
        <time>2021-11-11T22:33:05.055Z</time>
      </trkpt>
      <trkpt lat="47.450647" lon="7.940719">
        <ele>589.797939</ele>
        <time>2021-11-11T22:33:09.033Z</time>
      </trkpt>
      <trkpt lat="47.450818" lon="7.940534">
        <ele>591.120410</ele>
        <time>2021-11-11T22:33:17.177Z</time>
      </trkpt>
      <trkpt lat="47.450926" lon="7.940417">
        <ele>591.956047</ele>
        <time>2021-11-11T22:33:23.460Z</time>
      </trkpt>
      <trkpt lat="47.451066" lon="7.940265">
        <ele>593.040112</ele>
        <time>2021-11-11T22:33:30.388Z</time>
      </trkpt>
      <trkpt lat="47.451687" lon="7.939736">
        <ele>597.453264</ele>
        <time>2021-11-11T22:34:01.551Z</time>
      </trkpt>
      <trkpt lat="47.451870" lon="7.939623">
        <ele>598.628342</ele>
        <time>2021-11-11T22:34:10.089Z</time>
      </trkpt>
      <trkpt lat="47.452527" lon="7.939169">
        <ele>602.925359</ele>
        <time>2021-11-11T22:34:39.894Z</time>
      </trkpt>
      <trkpt lat="47.452569" lon="7.939136">
        <ele>603.207170</ele>
        <time>2021-11-11T22:34:41.692Z</time>
      </trkpt>
      <trkpt lat="47.452671" lon="7.939085">
        <ele>603.845170</ele>
        <time>2021-11-11T22:34:45.812Z</time>
      </trkpt>
      <trkpt lat="47.453247" lon="7.938949">
        <ele>607.169694</ele>
        <time>2021-11-11T22:35:05.292Z</time>
      </trkpt>
      <trkpt lat="47.453399" lon="7.938926">
        <ele>607.696833</ele>
        <time>2021-11-11T22:35:10.508Z</time>
      </trkpt>
      <trkpt lat="47.453527" lon="7.938907">
        <ele>608.140653</ele>
        <time>2021-11-11T22:35:13.979Z</time>
      </trkpt>
      <trkpt lat="47.453896" lon="7.938837">
        <ele>609.424137</ele>
        <time>2021-11-11T22:35:24.948Z</time>
      </trkpt>
      <trkpt lat="47.453952" lon="7.938831">
        <ele>609.617843</ele>
        <time>2021-11-11T22:35:26.465Z</time>
      </trkpt>
      <trkpt lat="47.454186" lon="7.938810">
        <ele>610.426630</ele>
        <time>2021-11-11T22:35:33.367Z</time>
      </trkpt>
      <trkpt lat="47.454409" lon="7.938779">
        <ele>611.199373</ele>
        <time>2021-11-11T22:35:39.475Z</time>
      </trkpt>
      <trkpt lat="47.454590" lon="7.938738">
        <ele>611.831107</ele>
        <time>2021-11-11T22:35:44.133Z</time>
      </trkpt>
      <trkpt lat="47.455114" lon="7.938524">
        <ele>613.466054</ele>
        <time>2021-11-11T22:35:58.342Z</time>
      </trkpt>
      <trkpt lat="47.455980" lon="7.938143">
        <ele>615.127774</ele>
        <time>2021-11-11T22:36:19.692Z</time>
      </trkpt>
      <trkpt lat="47.456527" lon="7.937909">
        <ele>616.175052</ele>
        <time>2021-11-11T22:36:31.236Z</time>
      </trkpt>
      <trkpt lat="47.456612" lon="7.937840">
        <ele>616.353384</ele>
        <time>2021-11-11T22:36:33.352Z</time>
      </trkpt>
      <trkpt lat="47.456885" lon="7.937800">
        <ele>616.618810</ele>
        <time>2021-11-11T22:36:39.627Z</time>
      </trkpt>
      <trkpt lat="47.457759" lon="7.938112">
        <ele>617.169276</ele>
        <time>2021-11-11T22:36:59.825Z</time>
      </trkpt>
      <trkpt lat="47.458684" lon="7.938601">
        <ele>617.924951</ele>
        <time>2021-11-11T22:37:20.998Z</time>
      </trkpt>
      <trkpt lat="47.459661" lon="7.938631">
        <ele>619.066142</ele>
        <time>2021-11-11T22:37:44.910Z</time>
      </trkpt>
      <trkpt lat="47.460344" lon="7.938606">
        <ele>620.261248</ele>
        <time>2021-11-11T22:38:03.213Z</time>
      </trkpt>
      <trkpt lat="47.460640" lon="7.938599">
        <ele>621.450323</ele>
        <time>2021-11-11T22:38:11.501Z</time>
      </trkpt>
      <trkpt lat="47.461076" lon="7.938696">
        <ele>623.221274</ele>
        <time>2021-11-11T22:38:25.309Z</time>
      </trkpt>
      <trkpt lat="47.461309" lon="7.938844">
        <ele>624.239799</ele>
        <time>2021-11-11T22:38:34.476Z</time>
      </trkpt>
      <trkpt lat="47.461855" lon="7.939515">
        <ele>627.239076</ele>
        <time>2021-11-11T22:39:05.517Z</time>
      </trkpt>
      <trkpt lat="47.462056" lon="7.939688">
        <ele>629.008652</ele>
        <time>2021-11-11T22:39:16.999Z</time>
      </trkpt>
      <trkpt lat="47.462207" lon="7.939778">
        <ele>630.247441</ele>
        <time>2021-11-11T22:39:25.680Z</time>
      </trkpt>
      <trkpt lat="47.462671" lon="7.939972">
        <ele>633.916518</ele>
        <time>2021-11-11T22:39:50.307Z</time>
      </trkpt>
      <trkpt lat="47.462895" lon="7.940071">
        <ele>635.695471</ele>
        <time>2021-11-11T22:40:02.466Z</time>
      </trkpt>
      <trkpt lat="47.463169" lon="7.940192">
        <ele>637.871367</ele>
        <time>2021-11-11T22:40:18.082Z</time>
      </trkpt>
      <trkpt lat="47.463351" lon="7.940342">
        <ele>639.456738</ele>
        <time>2021-11-11T22:40:30.318Z</time>
      </trkpt>
      <trkpt lat="47.463757" lon="7.940617">
        <ele>641.881969</ele>
        <time>2021-11-11T22:40:53.363Z</time>
      </trkpt>
      <trkpt lat="47.464307" lon="7.940722">
        <ele>644.271503</ele>
        <time>2021-11-11T22:41:17.160Z</time>
      </trkpt>
      <trkpt lat="47.464341" lon="7.940728">
        <ele>644.419044</ele>
        <time>2021-11-11T22:41:19.505Z</time>
      </trkpt>
      <trkpt lat="47.464912" lon="7.940831">
        <ele>646.897634</ele>
        <time>2021-11-11T22:41:35.951Z</time>
      </trkpt>
      <trkpt lat="47.465246" lon="7.940877">
        <ele>648.343021</ele>
        <time>2021-11-11T22:41:43.737Z</time>
      </trkpt>
      <trkpt lat="47.465632" lon="7.940899">
        <ele>648.694035</ele>
        <time>2021-11-11T22:41:53.720Z</time>
      </trkpt>
      <trkpt lat="47.465949" lon="7.940958">
        <ele>648.971672</ele>
        <time>2021-11-11T22:42:01.713Z</time>
      </trkpt>
      <trkpt lat="47.466346" lon="7.941118">
        <ele>649.329230</ele>
        <time>2021-11-11T22:42:11.204Z</time>
      </trkpt>
      <trkpt lat="47.466651" lon="7.941234">
        <ele>649.602888</ele>
        <time>2021-11-11T22:42:17.592Z</time>
      </trkpt>
      <trkpt lat="47.466822" lon="7.941310">
        <ele>649.758044</ele>
        <time>2021-11-11T22:42:22.135Z</time>
      </trkpt>
      <trkpt lat="47.467100" lon="7.941411">
        <ele>649.977655</ele>
        <time>2021-11-11T22:42:28.429Z</time>
      </trkpt>
      <trkpt lat="47.467399" lon="7.941540">
        <ele>650.151625</ele>
        <time>2021-11-11T22:42:35.338Z</time>
      </trkpt>
      <trkpt lat="47.467548" lon="7.941633">
        <ele>650.241956</ele>
        <time>2021-11-11T22:42:39.594Z</time>
      </trkpt>
      <trkpt lat="47.467899" lon="7.941853">
        <ele>650.454886</ele>
        <time>2021-11-11T22:42:48.687Z</time>
      </trkpt>
      <trkpt lat="47.468006" lon="7.941992">
        <ele>650.534427</ele>
        <time>2021-11-11T22:42:51.694Z</time>
      </trkpt>
      <trkpt lat="47.468260" lon="7.942246">
        <ele>650.705678</ele>
        <time>2021-11-11T22:42:59.162Z</time>
      </trkpt>
      <trkpt lat="47.468737" lon="7.942334">
        <ele>650.909041</ele>
        <time>2021-11-11T22:43:09.192Z</time>
      </trkpt>
      <trkpt lat="47.468954" lon="7.942332">
        <ele>650.852044</ele>
        <time>2021-11-11T22:43:13.369Z</time>
      </trkpt>
      <trkpt lat="47.469044" lon="7.942317">
        <ele>650.828256</ele>
        <time>2021-11-11T22:43:15.082Z</time>
      </trkpt>
      <trkpt lat="47.469073" lon="7.942318">
        <ele>650.820637</ele>
        <time>2021-11-11T22:43:16.166Z</time>
      </trkpt>
      <trkpt lat="47.469073" lon="7.942318">
        <ele>650.820637</ele>
        <time>2021-11-11T22:43:16.209Z</time>
      </trkpt>
      <trkpt lat="47.469073" lon="7.942318">
        <ele>650.820637</ele>
        <time>2021-11-11T22:43:16.269Z</time>
      </trkpt>
      <trkpt lat="47.469044" lon="7.942317">
        <ele>650.813018</ele>
        <time>2021-11-11T22:43:17.337Z</time>
      </trkpt>
      <trkpt lat="47.469058" lon="7.942569">
        <ele>650.768124</ele>
        <time>2021-11-11T22:43:19.571Z</time>
      </trkpt>
      <trkpt lat="47.469215" lon="7.943133">
        <ele>650.659828</ele>
        <time>2021-11-11T22:43:24.977Z</time>
      </trkpt>
      <trkpt lat="47.469517" lon="7.943834">
        <ele>650.512239</ele>
        <time>2021-11-11T22:43:32.649Z</time>
      </trkpt>
      <trkpt lat="47.469843" lon="7.944430">
        <ele>650.091014</ele>
        <time>2021-11-11T22:43:39.960Z</time>
      </trkpt>
      <trkpt lat="47.470096" lon="7.944809">
        <ele>649.664957</ele>
        <time>2021-11-11T22:43:44.933Z</time>
      </trkpt>
      <trkpt lat="47.470904" lon="7.946018">
        <ele>648.248693</ele>
        <time>2021-11-11T22:43:58.358Z</time>
      </trkpt>
      <trkpt lat="47.471580" lon="7.947013">
        <ele>644.477301</ele>
        <time>2021-11-11T22:44:08.008Z</time>
      </trkpt>
      <trkpt lat="47.471655" lon="7.947281">
        <ele>643.701868</ele>
        <time>2021-11-11T22:44:09.857Z</time>
      </trkpt>
      <trkpt lat="47.471588" lon="7.947530">
        <ele>642.985401</ele>
        <time>2021-11-11T22:44:11.760Z</time>
      </trkpt>
      <trkpt lat="47.471526" lon="7.947625">
        <ele>642.632377</ele>
        <time>2021-11-11T22:44:12.581Z</time>
      </trkpt>
      <trkpt lat="47.471433" lon="7.947675">
        <ele>642.241033</ele>
        <time>2021-11-11T22:44:13.486Z</time>
      </trkpt>
      <trkpt lat="47.470644" lon="7.947609">
        <ele>636.657680</ele>
        <time>2021-11-11T22:44:20.724Z</time>
      </trkpt>
      <trkpt lat="47.470424" lon="7.947722">
        <ele>634.658639</ele>
        <time>2021-11-11T22:44:22.776Z</time>
      </trkpt>
      <trkpt lat="47.470368" lon="7.947828">
        <ele>633.878018</ele>
        <time>2021-11-11T22:44:23.572Z</time>
      </trkpt>
      <trkpt lat="47.470333" lon="7.948107">
        <ele>632.231491</ele>
        <time>2021-11-11T22:44:25.259Z</time>
      </trkpt>
      <trkpt lat="47.470426" lon="7.948527">
        <ele>629.667041</ele>
        <time>2021-11-11T22:44:27.837Z</time>
      </trkpt>
      <trkpt lat="47.470338" lon="7.948724">
        <ele>628.296917</ele>
        <time>2021-11-11T22:44:29.222Z</time>
      </trkpt>
      <trkpt lat="47.470241" lon="7.948800">
        <ele>627.354711</ele>
        <time>2021-11-11T22:44:30.168Z</time>
      </trkpt>
      <trkpt lat="47.470079" lon="7.948808">
        <ele>625.963348</ele>
        <time>2021-11-11T22:44:31.557Z</time>
      </trkpt>
      <trkpt lat="47.469762" lon="7.948654">
        <ele>621.360500</ele>
        <time>2021-11-11T22:44:34.372Z</time>
      </trkpt>
      <trkpt lat="47.469469" lon="7.948624">
        <ele>617.201894</ele>
        <time>2021-11-11T22:44:36.824Z</time>
      </trkpt>
      <trkpt lat="47.469180" lon="7.948713">
        <ele>613.022122</ele>
        <time>2021-11-11T22:44:39.279Z</time>
      </trkpt>
      <trkpt lat="47.468810" lon="7.949041">
        <ele>606.914517</ele>
        <time>2021-11-11T22:44:42.851Z</time>
      </trkpt>
      <trkpt lat="47.468558" lon="7.949650">
        <ele>600.100649</ele>
        <time>2021-11-11T22:44:46.856Z</time>
      </trkpt>
      <trkpt lat="47.468441" lon="7.950143">
        <ele>595.550260</ele>
        <time>2021-11-11T22:44:49.788Z</time>
      </trkpt>
      <trkpt lat="47.468300" lon="7.950849">
        <ele>589.139041</ele>
        <time>2021-11-11T22:44:53.938Z</time>
      </trkpt>
      <trkpt lat="47.468208" lon="7.951691">
        <ele>581.710945</ele>
        <time>2021-11-11T22:44:58.798Z</time>
      </trkpt>
      <trkpt lat="47.468258" lon="7.952349">
        <ele>576.413997</ele>
        <time>2021-11-11T22:45:02.643Z</time>
      </trkpt>
      <trkpt lat="47.468338" lon="7.952658">
        <ele>574.667339</ele>
        <time>2021-11-11T22:45:04.596Z</time>
      </trkpt>
      <trkpt lat="47.468688" lon="7.953623">
        <ele>568.886519</ele>
        <time>2021-11-11T22:45:11.151Z</time>
      </trkpt>
      <trkpt lat="47.468825" lon="7.953883">
        <ele>567.146373</ele>
        <time>2021-11-11T22:45:13.165Z</time>
      </trkpt>
      <trkpt lat="47.469129" lon="7.954175">
        <ele>564.315994</ele>
        <time>2021-11-11T22:45:16.461Z</time>
      </trkpt>
      <trkpt lat="47.469948" lon="7.954438">
        <ele>558.328467</ele>
        <time>2021-11-11T22:45:24.092Z</time>
      </trkpt>
      <trkpt lat="47.470173" lon="7.954771">
        <ele>556.103303</ele>
        <time>2021-11-11T22:45:26.947Z</time>
      </trkpt>
      <trkpt lat="47.470344" lon="7.955464">
        <ele>552.616771</ele>
        <time>2021-11-11T22:45:31.383Z</time>
      </trkpt>
      <trkpt lat="47.470551" lon="7.956984">
        <ele>544.874347</ele>
        <time>2021-11-11T22:45:40.739Z</time>
      </trkpt>
      <trkpt lat="47.470611" lon="7.957558">
        <ele>541.911700</ele>
        <time>2021-11-11T22:45:44.233Z</time>
      </trkpt>
      <trkpt lat="47.470622" lon="7.958630">
        <ele>536.438063</ele>
        <time>2021-11-11T22:45:50.666Z</time>
      </trkpt>
      <trkpt lat="47.470999" lon="7.960100">
        <ele>528.338815</ele>
        <time>2021-11-11T22:46:00.078Z</time>
      </trkpt>
      <trkpt lat="47.471231" lon="7.960809">
        <ele>524.281066</ele>
        <time>2021-11-11T22:46:04.812Z</time>
      </trkpt>
      <trkpt lat="47.471575" lon="7.961333">
        <ele>521.206313</ele>
        <time>2021-11-11T22:46:09.273Z</time>
      </trkpt>
      <trkpt lat="47.471579" lon="7.961404">
        <ele>520.932187</ele>
        <time>2021-11-11T22:46:09.672Z</time>
      </trkpt>
      <trkpt lat="47.471568" lon="7.961446">
        <ele>520.758883</ele>
        <time>2021-11-11T22:46:09.929Z</time>
      </trkpt>
      <trkpt lat="47.471484" lon="7.961507">
        <ele>520.226250</ele>
        <time>2021-11-11T22:46:10.832Z</time>
      </trkpt>
      <trkpt lat="47.471375" lon="7.961461">
        <ele>519.581064</ele>
        <time>2021-11-11T22:46:11.945Z</time>
      </trkpt>
      <trkpt lat="47.470924" lon="7.960881">
        <ele>516.179561</ele>
        <time>2021-11-11T22:46:17.384Z</time>
      </trkpt>
      <trkpt lat="47.470268" lon="7.959615">
        <ele>511.247963</ele>
        <time>2021-11-11T22:46:28.083Z</time>
      </trkpt>
      <trkpt lat="47.469974" lon="7.958722">
        <ele>508.984897</ele>
        <time>2021-11-11T22:46:35.006Z</time>
      </trkpt>
      <trkpt lat="47.469781" lon="7.958087">
        <ele>507.398610</ele>
        <time>2021-11-11T22:46:39.800Z</time>
      </trkpt>
      <trkpt lat="47.469604" lon="7.957623">
        <ele>505.788491</ele>
        <time>2021-11-11T22:46:43.350Z</time>
      </trkpt>
      <trkpt lat="47.469296" lon="7.957034">
        <ele>503.197738</ele>
        <time>2021-11-11T22:46:48.233Z</time>
      </trkpt>
      <trkpt lat="47.469049" lon="7.956742">
        <ele>501.570436</ele>
        <time>2021-11-11T22:46:51.308Z</time>
      </trkpt>
      <trkpt lat="47.468875" lon="7.956583">
        <ele>500.517828</ele>
        <time>2021-11-11T22:46:53.161Z</time>
      </trkpt>
      <trkpt lat="47.468475" lon="7.956375">
        <ele>498.335653</ele>
        <time>2021-11-11T22:46:56.968Z</time>
      </trkpt>
      <trkpt lat="47.468322" lon="7.956470">
        <ele>497.328121</ele>
        <time>2021-11-11T22:46:58.562Z</time>
      </trkpt>
      <trkpt lat="47.468267" lon="7.956746">
        <ele>495.550091</ele>
        <time>2021-11-11T22:47:00.313Z</time>
      </trkpt>
      <trkpt lat="47.468479" lon="7.957453">
        <ele>490.770857</ele>
        <time>2021-11-11T22:47:04.912Z</time>
      </trkpt>
      <trkpt lat="47.468507" lon="7.957558">
        <ele>490.073380</ele>
        <time>2021-11-11T22:47:05.579Z</time>
      </trkpt>
      <trkpt lat="47.468524" lon="7.957646">
        <ele>489.507841</ele>
        <time>2021-11-11T22:47:06.096Z</time>
      </trkpt>
      <trkpt lat="47.468536" lon="7.958296">
        <ele>485.489852</ele>
        <time>2021-11-11T22:47:09.935Z</time>
      </trkpt>
      <trkpt lat="47.468627" lon="7.958965">
        <ele>481.273099</ele>
        <time>2021-11-11T22:47:13.868Z</time>
      </trkpt>
      <trkpt lat="47.468637" lon="7.959076">
        <ele>480.461486</ele>
        <time>2021-11-11T22:47:14.493Z</time>
      </trkpt>
      <trkpt lat="47.468641" lon="7.959158">
        <ele>479.860962</ele>
        <time>2021-11-11T22:47:14.979Z</time>
      </trkpt>
      <trkpt lat="47.468645" lon="7.959223">
        <ele>479.384209</ele>
        <time>2021-11-11T22:47:15.347Z</time>
      </trkpt>
      <trkpt lat="47.468655" lon="7.959428">
        <ele>477.882900</ele>
        <time>2021-11-11T22:47:16.543Z</time>
      </trkpt>
      <trkpt lat="47.468634" lon="7.959800">
        <ele>475.156181</ele>
        <time>2021-11-11T22:47:18.667Z</time>
      </trkpt>
      <trkpt lat="47.468516" lon="7.960416">
        <ele>470.479455</ele>
        <time>2021-11-11T22:47:22.371Z</time>
      </trkpt>
      <trkpt lat="47.468503" lon="7.960562">
        <ele>469.403789</ele>
        <time>2021-11-11T22:47:23.198Z</time>
      </trkpt>
      <trkpt lat="47.468498" lon="7.960883">
        <ele>467.058427</ele>
        <time>2021-11-11T22:47:25.069Z</time>
      </trkpt>
      <trkpt lat="47.468509" lon="7.961184">
        <ele>464.856567</ele>
        <time>2021-11-11T22:47:26.774Z</time>
      </trkpt>
      <trkpt lat="47.468526" lon="7.961310">
        <ele>463.918050</ele>
        <time>2021-11-11T22:47:27.545Z</time>
      </trkpt>
      <trkpt lat="47.468560" lon="7.961576">
        <ele>461.940630</ele>
        <time>2021-11-11T22:47:29.112Z</time>
      </trkpt>
      <trkpt lat="47.468616" lon="7.962000">
        <ele>459.868823</ele>
        <time>2021-11-11T22:47:31.717Z</time>
      </trkpt>
      <trkpt lat="47.469373" lon="7.963006">
        <ele>452.822022</ele>
        <time>2021-11-11T22:47:40.787Z</time>
      </trkpt>
      <trkpt lat="47.469749" lon="7.963424">
        <ele>449.564979</ele>
        <time>2021-11-11T22:47:45.275Z</time>
      </trkpt>
      <trkpt lat="47.470318" lon="7.964176">
        <ele>446.688924</ele>
        <time>2021-11-11T22:47:52.737Z</time>
      </trkpt>
      <trkpt lat="47.470351" lon="7.964220">
        <ele>446.527484</ele>
        <time>2021-11-11T22:47:53.153Z</time>
      </trkpt>
      <trkpt lat="47.470610" lon="7.964511">
        <ele>445.345613</ele>
        <time>2021-11-11T22:47:56.410Z</time>
      </trkpt>
      <trkpt lat="47.471250" lon="7.965231">
        <ele>442.414930</ele>
        <time>2021-11-11T22:48:04.801Z</time>
      </trkpt>
      <trkpt lat="47.471503" lon="7.965463">
        <ele>441.308508</ele>
        <time>2021-11-11T22:48:07.779Z</time>
      </trkpt>
      <trkpt lat="47.471880" lon="7.965766">
        <ele>439.713733</ele>
        <time>2021-11-11T22:48:12.062Z</time>
      </trkpt>
      <trkpt lat="47.472564" lon="7.966330">
        <ele>436.803028</ele>
        <time>2021-11-11T22:48:19.797Z</time>
      </trkpt>
      <trkpt lat="47.472594" lon="7.966357">
        <ele>436.672503</ele>
        <time>2021-11-11T22:48:20.103Z</time>
      </trkpt>
      <trkpt lat="47.472859" lon="7.966644">
        <ele>435.339049</ele>
        <time>2021-11-11T22:48:23.251Z</time>
      </trkpt>
      <trkpt lat="47.473444" lon="7.967380">
        <ele>432.007224</ele>
        <time>2021-11-11T22:48:30.525Z</time>
      </trkpt>
      <trkpt lat="47.473664" lon="7.967490">
        <ele>430.999673</ele>
        <time>2021-11-11T22:48:32.784Z</time>
      </trkpt>
      <trkpt lat="47.474076" lon="7.967608">
        <ele>429.178942</ele>
        <time>2021-11-11T22:48:36.748Z</time>
      </trkpt>
      <trkpt lat="47.474238" lon="7.967666">
        <ele>428.455785</ele>
        <time>2021-11-11T22:48:38.393Z</time>
      </trkpt>
      <trkpt lat="47.474560" lon="7.967748">
        <ele>427.816916</ele>
        <time>2021-11-11T22:48:41.688Z</time>
      </trkpt>
      <trkpt lat="47.475217" lon="7.967697">
        <ele>426.694066</ele>
        <time>2021-11-11T22:48:48.971Z</time>
      </trkpt>
      <trkpt lat="47.475280" lon="7.967711">
        <ele>426.585337</ele>
        <time>2021-11-11T22:48:49.676Z</time>
      </trkpt>
      <trkpt lat="47.475359" lon="7.967770">
        <ele>426.434302</ele>
        <time>2021-11-11T22:48:50.711Z</time>
      </trkpt>
      <trkpt lat="47.475436" lon="7.967868">
        <ele>426.260950</ele>
        <time>2021-11-11T22:48:52.045Z</time>
      </trkpt>
      <trkpt lat="47.475607" lon="7.968209">
        <ele>425.771140</ele>
        <time>2021-11-11T22:48:55.829Z</time>
      </trkpt>
      <trkpt lat="47.475616" lon="7.968229">
        <ele>425.743423</ele>
        <time>2021-11-11T22:48:56.113Z</time>
      </trkpt>
      <trkpt lat="47.475684" lon="7.968334">
        <ele>425.575673</ele>
        <time>2021-11-11T22:48:57.765Z</time>
      </trkpt>
      <trkpt lat="47.475729" lon="7.968403">
        <ele>425.465065</ele>
        <time>2021-11-11T22:48:58.806Z</time>
      </trkpt>
      <trkpt lat="47.475871" lon="7.968576">
        <ele>425.241541</ele>
        <time>2021-11-11T22:49:01.198Z</time>
      </trkpt>
      <trkpt lat="47.475991" lon="7.968695">
        <ele>425.215706</ele>
        <time>2021-11-11T22:49:03.325Z</time>
      </trkpt>
      <trkpt lat="47.476103" lon="7.968806">
        <ele>425.191598</ele>
        <time>2021-11-11T22:49:05.011Z</time>
      </trkpt>
      <trkpt lat="47.476327" lon="7.969094">
        <ele>425.138526</ele>
        <time>2021-11-11T22:49:09.025Z</time>
      </trkpt>
      <trkpt lat="47.476396" lon="7.969182">
        <ele>425.122234</ele>
        <time>2021-11-11T22:49:10.243Z</time>
      </trkpt>
      <trkpt lat="47.476670" lon="7.969631">
        <ele>425.049114</ele>
        <time>2021-11-11T22:49:16.574Z</time>
      </trkpt>
      <trkpt lat="47.476944" lon="7.970103">
        <ele>424.973906</ele>
        <time>2021-11-11T22:49:23.500Z</time>
      </trkpt>
      <trkpt lat="47.477029" lon="7.970212">
        <ele>424.953790</ele>
        <time>2021-11-11T22:49:24.973Z</time>
      </trkpt>
      <trkpt lat="47.477135" lon="7.970342">
        <ele>424.914466</ele>
        <time>2021-11-11T22:49:27.409Z</time>
      </trkpt>
      <trkpt lat="47.477203" lon="7.970445">
        <ele>424.699303</ele>
        <time>2021-11-11T22:49:28.674Z</time>
      </trkpt>
      <trkpt lat="47.477262" lon="7.970548">
        <ele>424.497542</ele>
        <time>2021-11-11T22:49:29.754Z</time>
      </trkpt>
      <trkpt lat="47.477284" lon="7.970600">
        <ele>424.405867</ele>
        <time>2021-11-11T22:49:30.253Z</time>
      </trkpt>
      <trkpt lat="47.477322" lon="7.970682">
        <ele>424.257293</ele>
        <time>2021-11-11T22:49:31.307Z</time>
      </trkpt>
      <trkpt lat="47.477370" lon="7.970827">
        <ele>424.016018</ele>
        <time>2021-11-11T22:49:32.618Z</time>
      </trkpt>
      <trkpt lat="47.477522" lon="7.971381">
        <ele>423.122536</ele>
        <time>2021-11-11T22:49:37.279Z</time>
      </trkpt>
      <trkpt lat="47.477553" lon="7.971461">
        <ele>422.984734</ele>
        <time>2021-11-11T22:49:37.879Z</time>
      </trkpt>
      <trkpt lat="47.477623" lon="7.971640">
        <ele>422.675698</ele>
        <time>2021-11-11T22:49:39.330Z</time>
      </trkpt>
      <trkpt lat="47.477698" lon="7.971759">
        <ele>422.432553</ele>
        <time>2021-11-11T22:49:40.613Z</time>
      </trkpt>
      <trkpt lat="47.477778" lon="7.971876">
        <ele>422.183848</ele>
        <time>2021-11-11T22:49:41.704Z</time>
      </trkpt>
      <trkpt lat="47.478083" lon="7.972275">
        <ele>421.283712</ele>
        <time>2021-11-11T22:49:45.726Z</time>
      </trkpt>
      <trkpt lat="47.478198" lon="7.972475">
        <ele>420.835024</ele>
        <time>2021-11-11T22:49:47.629Z</time>
      </trkpt>
      <trkpt lat="47.478213" lon="7.972508">
        <ele>420.721974</ele>
        <time>2021-11-11T22:49:47.884Z</time>
      </trkpt>
      <trkpt lat="47.478295" lon="7.972689">
        <ele>420.102556</ele>
        <time>2021-11-11T22:49:49.276Z</time>
      </trkpt>
      <trkpt lat="47.478424" lon="7.973015">
        <ele>419.028703</ele>
        <time>2021-11-11T22:49:51.852Z</time>
      </trkpt>
      <trkpt lat="47.478494" lon="7.973191">
        <ele>418.448197</ele>
        <time>2021-11-11T22:49:53.118Z</time>
      </trkpt>
      <trkpt lat="47.478606" lon="7.973396">
        <ele>417.698871</ele>
        <time>2021-11-11T22:49:54.941Z</time>
      </trkpt>
      <trkpt lat="47.478952" lon="7.973850">
        <ele>415.753803</ele>
        <time>2021-11-11T22:49:59.339Z</time>
      </trkpt>
      <trkpt lat="47.479061" lon="7.974014">
        <ele>415.099963</ele>
        <time>2021-11-11T22:50:00.850Z</time>
      </trkpt>
      <trkpt lat="47.479095" lon="7.974066">
        <ele>414.894296</ele>
        <time>2021-11-11T22:50:01.368Z</time>
      </trkpt>
      <trkpt lat="47.479172" lon="7.974215">
        <ele>414.361119</ele>
        <time>2021-11-11T22:50:02.588Z</time>
      </trkpt>
      <trkpt lat="47.479198" lon="7.974266">
        <ele>414.179528</ele>
        <time>2021-11-11T22:50:02.974Z</time>
      </trkpt>
      <trkpt lat="47.479256" lon="7.974388">
        <ele>413.755526</ele>
        <time>2021-11-11T22:50:03.910Z</time>
      </trkpt>
      <trkpt lat="47.479521" lon="7.975122">
        <ele>411.785907</ele>
        <time>2021-11-11T22:50:09.338Z</time>
      </trkpt>
      <trkpt lat="47.479548" lon="7.975187">
        <ele>411.611988</ele>
        <time>2021-11-11T22:50:09.819Z</time>
      </trkpt>
      <trkpt lat="47.479650" lon="7.975428">
        <ele>410.963783</ele>
        <time>2021-11-11T22:50:11.703Z</time>
      </trkpt>
      <trkpt lat="47.479662" lon="7.975458">
        <ele>410.884317</ele>
        <time>2021-11-11T22:50:11.949Z</time>
      </trkpt>
      <trkpt lat="47.479744" lon="7.975611">
        <ele>410.439193</ele>
        <time>2021-11-11T22:50:13.259Z</time>
      </trkpt>
      <trkpt lat="47.480019" lon="7.976061">
        <ele>409.056232</ele>
        <time>2021-11-11T22:50:17.543Z</time>
      </trkpt>
      <trkpt lat="47.480019" lon="7.976061">
        <ele>409.056232</ele>
        <time>2021-11-11T22:50:17.548Z</time>
      </trkpt>
      <trkpt lat="47.480172" lon="7.976321">
        <ele>408.270373</ele>
        <time>2021-11-11T22:50:20.079Z</time>
      </trkpt>
      <trkpt lat="47.480204" lon="7.976396">
        <ele>408.068190</ele>
        <time>2021-11-11T22:50:20.725Z</time>
      </trkpt>
      <trkpt lat="47.480258" lon="7.976521">
        <ele>407.730011</ele>
        <time>2021-11-11T22:50:21.814Z</time>
      </trkpt>
      <trkpt lat="47.480294" lon="7.976615">
        <ele>407.483724</ele>
        <time>2021-11-11T22:50:22.538Z</time>
      </trkpt>
      <trkpt lat="47.480540" lon="7.977249">
        <ele>406.300536</ele>
        <time>2021-11-11T22:50:27.779Z</time>
      </trkpt>
      <trkpt lat="47.481057" lon="7.978315">
        <ele>404.270116</ele>
        <time>2021-11-11T22:50:37.226Z</time>
      </trkpt>
      <trkpt lat="47.481075" lon="7.978353">
        <ele>404.198307</ele>
        <time>2021-11-11T22:50:37.516Z</time>
      </trkpt>
      <trkpt lat="47.481331" lon="7.978796">
        <ele>403.296337</ele>
        <time>2021-11-11T22:50:41.844Z</time>
      </trkpt>
      <trkpt lat="47.481417" lon="7.978989">
        <ele>403.014367</ele>
        <time>2021-11-11T22:50:43.675Z</time>
      </trkpt>
      <trkpt lat="47.481508" lon="7.979190">
        <ele>402.746958</ele>
        <time>2021-11-11T22:50:45.463Z</time>
      </trkpt>
      <trkpt lat="47.481627" lon="7.979494">
        <ele>402.358652</ele>
        <time>2021-11-11T22:50:48.284Z</time>
      </trkpt>
      <trkpt lat="47.481673" lon="7.979611">
        <ele>402.209040</ele>
        <time>2021-11-11T22:50:49.318Z</time>
      </trkpt>
      <trkpt lat="47.481757" lon="7.979824">
        <ele>401.936460</ele>
        <time>2021-11-11T22:50:51.194Z</time>
      </trkpt>
      <trkpt lat="47.481977" lon="7.980334">
        <ele>401.267716</ele>
        <time>2021-11-11T22:50:55.866Z</time>
      </trkpt>
      <trkpt lat="47.482025" lon="7.980480">
        <ele>401.088262</ele>
        <time>2021-11-11T22:50:57.075Z</time>
      </trkpt>
      <trkpt lat="47.482099" lon="7.980698">
        <ele>400.818622</ele>
        <time>2021-11-11T22:50:58.993Z</time>
      </trkpt>
      <trkpt lat="47.482159" lon="7.980898">
        <ele>400.576762</ele>
        <time>2021-11-11T22:51:00.669Z</time>
      </trkpt>
      <trkpt lat="47.482458" lon="7.981897">
        <ele>399.526597</ele>
        <time>2021-11-11T22:51:09.198Z</time>
      </trkpt>
      <trkpt lat="47.482472" lon="7.981944">
        <ele>399.479837</ele>
        <time>2021-11-11T22:51:09.575Z</time>
      </trkpt>
      <trkpt lat="47.482563" lon="7.982231">
        <ele>399.191226</ele>
        <time>2021-11-11T22:51:12.243Z</time>
      </trkpt>
      <trkpt lat="47.482594" lon="7.982339">
        <ele>399.084403</ele>
        <time>2021-11-11T22:51:13.146Z</time>
      </trkpt>
      <trkpt lat="47.482652" lon="7.982524">
        <ele>398.898740</ele>
        <time>2021-11-11T22:51:14.764Z</time>
      </trkpt>
      <trkpt lat="47.482704" lon="7.982687">
        <ele>398.734644</ele>
        <time>2021-11-11T22:51:16.336Z</time>
      </trkpt>
      <trkpt lat="47.482729" lon="7.982770">
        <ele>398.651916</ele>
        <time>2021-11-11T22:51:17.024Z</time>
      </trkpt>
      <trkpt lat="47.482840" lon="7.983205">
        <ele>398.228608</ele>
        <time>2021-11-11T22:51:20.846Z</time>
      </trkpt>
      <trkpt lat="47.482897" lon="7.983529">
        <ele>397.923813</ele>
        <time>2021-11-11T22:51:23.462Z</time>
      </trkpt>
      <trkpt lat="47.483001" lon="7.984129">
        <ele>397.234302</ele>
        <time>2021-11-11T22:51:28.271Z</time>
      </trkpt>
      <trkpt lat="47.483130" lon="7.984873">
        <ele>396.351785</ele>
        <time>2021-11-11T22:51:34.031Z</time>
      </trkpt>
      <trkpt lat="47.483153" lon="7.984996">
        <ele>396.205152</ele>
        <time>2021-11-11T22:51:35.002Z</time>
      </trkpt>
      <trkpt lat="47.483173" lon="7.985106">
        <ele>396.074272</ele>
        <time>2021-11-11T22:51:35.883Z</time>
      </trkpt>
      <trkpt lat="47.483274" lon="7.985553">
        <ele>395.532740</ele>
        <time>2021-11-11T22:51:39.467Z</time>
      </trkpt>
      <trkpt lat="47.483382" lon="7.985915">
        <ele>395.078090</ele>
        <time>2021-11-11T22:51:42.506Z</time>
      </trkpt>
      <trkpt lat="47.483462" lon="7.986151">
        <ele>394.773504</ele>
        <time>2021-11-11T22:51:44.510Z</time>
      </trkpt>
      <trkpt lat="47.483550" lon="7.986378">
        <ele>394.415720</ele>
        <time>2021-11-11T22:51:46.480Z</time>
      </trkpt>
      <trkpt lat="47.483775" lon="7.986910">
        <ele>393.557698</ele>
        <time>2021-11-11T22:51:51.140Z</time>
      </trkpt>
      <trkpt lat="47.484569" lon="7.988582">
        <ele>390.872764</ele>
        <time>2021-11-11T22:52:06.041Z</time>
      </trkpt>
      <trkpt lat="47.485480" lon="7.990116">
        <ele>388.883712</ele>
        <time>2021-11-11T22:52:22.102Z</time>
      </trkpt>
      <trkpt lat="47.485638" lon="7.990371">
        <ele>388.548709</ele>
        <time>2021-11-11T22:52:24.962Z</time>
      </trkpt>
      <trkpt lat="47.485781" lon="7.990604">
        <ele>388.418046</ele>
        <time>2021-11-11T22:52:27.588Z</time>
      </trkpt>
      <trkpt lat="47.486196" lon="7.991276">
        <ele>388.040136</ele>
        <time>2021-11-11T22:52:35.563Z</time>
      </trkpt>
      <trkpt lat="47.486319" lon="7.991471">
        <ele>387.929401</ele>
        <time>2021-11-11T22:52:38.001Z</time>
      </trkpt>
      <trkpt lat="47.486334" lon="7.991668">
        <ele>387.847104</ele>
        <time>2021-11-11T22:52:40.552Z</time>
      </trkpt>
      <trkpt lat="47.486383" lon="7.991737">
        <ele>387.805552</ele>
        <time>2021-11-11T22:52:41.836Z</time>
      </trkpt>
      <trkpt lat="47.487213" lon="7.993014">
        <ele>386.829483</ele>
        <time>2021-11-11T22:53:04.160Z</time>
      </trkpt>
      <trkpt lat="47.487633" lon="7.993524">
        <ele>386.281766</ele>
        <time>2021-11-11T22:53:13.530Z</time>
      </trkpt>
      <trkpt lat="47.488246" lon="7.994102">
        <ele>385.487945</ele>
        <time>2021-11-11T22:53:25.582Z</time>
      </trkpt>
      <trkpt lat="47.488959" lon="7.994757">
        <ele>384.019427</ele>
        <time>2021-11-11T22:53:39.119Z</time>
      </trkpt>
      <trkpt lat="47.489284" lon="7.995053">
        <ele>383.351641</ele>
        <time>2021-11-11T22:53:45.244Z</time>
      </trkpt>
      <trkpt lat="47.490780" lon="7.996642">
        <ele>379.863545</ele>
        <time>2021-11-11T22:54:14.563Z</time>
      </trkpt>
      <trkpt lat="47.491680" lon="7.997343">
        <ele>377.753502</ele>
        <time>2021-11-11T22:54:30.373Z</time>
      </trkpt>
      <trkpt lat="47.491748" lon="7.997367">
        <ele>377.601325</ele>
        <time>2021-11-11T22:54:31.336Z</time>
      </trkpt>
      <trkpt lat="47.491854" lon="7.997405">
        <ele>377.363906</ele>
        <time>2021-11-11T22:54:33.062Z</time>
      </trkpt>
      <trkpt lat="47.491886" lon="7.997365">
        <ele>377.272725</ele>
        <time>2021-11-11T22:54:33.692Z</time>
      </trkpt>
      <trkpt lat="47.492317" lon="7.997637">
        <ele>376.252761</ele>
        <time>2021-11-11T22:54:38.767Z</time>
      </trkpt>
      <trkpt lat="47.492477" lon="7.997747">
        <ele>375.868719</ele>
        <time>2021-11-11T22:54:40.644Z</time>
      </trkpt>
      <trkpt lat="47.492617" lon="7.997908">
        <ele>375.482770</ele>
        <time>2021-11-11T22:54:42.602Z</time>
      </trkpt>
      <trkpt lat="47.492722" lon="7.998050">
        <ele>375.173145</ele>
        <time>2021-11-11T22:54:44.114Z</time>
      </trkpt>
      <trkpt lat="47.492747" lon="7.998084">
        <ele>375.099235</ele>
        <time>2021-11-11T22:54:44.502Z</time>
      </trkpt>
      <trkpt lat="47.492877" lon="7.998257">
        <ele>374.903224</ele>
        <time>2021-11-11T22:54:46.443Z</time>
      </trkpt>
      <trkpt lat="47.493144" lon="7.998645">
        <ele>374.520794</ele>
        <time>2021-11-11T22:54:50.573Z</time>
      </trkpt>
      <trkpt lat="47.493296" lon="7.998833">
        <ele>374.318343</ele>
        <time>2021-11-11T22:54:53.038Z</time>
      </trkpt>
      <trkpt lat="47.493358" lon="7.998911">
        <ele>374.235178</ele>
        <time>2021-11-11T22:54:53.997Z</time>
      </trkpt>
      <trkpt lat="47.493433" lon="7.998996">
        <ele>374.138634</ele>
        <time>2021-11-11T22:54:55.198Z</time>
      </trkpt>
      <trkpt lat="47.493502" lon="7.999071">
        <ele>374.051140</ele>
        <time>2021-11-11T22:54:56.314Z</time>
      </trkpt>
      <trkpt lat="47.493603" lon="7.999152">
        <ele>373.933735</ele>
        <time>2021-11-11T22:54:57.755Z</time>
      </trkpt>
      <trkpt lat="47.493742" lon="7.999216">
        <ele>373.784959</ele>
        <time>2021-11-11T22:54:59.598Z</time>
      </trkpt>
      <trkpt lat="47.493937" lon="7.999285">
        <ele>373.580050</ele>
        <time>2021-11-11T22:55:02.231Z</time>
      </trkpt>
      <trkpt lat="47.493961" lon="7.999292">
        <ele>373.555050</ele>
        <time>2021-11-11T22:55:02.537Z</time>
      </trkpt>
      <trkpt lat="47.494272" lon="7.999381">
        <ele>373.231315</ele>
        <time>2021-11-11T22:55:06.969Z</time>
      </trkpt>
      <trkpt lat="47.494489" lon="7.999417">
        <ele>373.146003</ele>
        <time>2021-11-11T22:55:10.307Z</time>
      </trkpt>
      <trkpt lat="47.494643" lon="7.999430">
        <ele>373.087065</ele>
        <time>2021-11-11T22:55:12.658Z</time>
      </trkpt>
      <trkpt lat="47.494812" lon="7.999457">
        <ele>373.022117</ele>
        <time>2021-11-11T22:55:15.149Z</time>
      </trkpt>
      <trkpt lat="47.495197" lon="7.999589">
        <ele>372.871117</ele>
        <time>2021-11-11T22:55:20.694Z</time>
      </trkpt>
      <trkpt lat="47.495430" lon="7.999752">
        <ele>372.772646</ele>
        <time>2021-11-11T22:55:24.191Z</time>
      </trkpt>
      <trkpt lat="47.495718" lon="8.000005">
        <ele>372.644680</ele>
        <time>2021-11-11T22:55:28.609Z</time>
      </trkpt>
      <trkpt lat="47.496011" lon="8.000286">
        <ele>372.430987</ele>
        <time>2021-11-11T22:55:33.071Z</time>
      </trkpt>
      <trkpt lat="47.496234" lon="8.000584">
        <ele>372.006773</ele>
        <time>2021-11-11T22:55:36.737Z</time>
      </trkpt>
      <trkpt lat="47.496272" lon="8.000651">
        <ele>371.923323</ele>
        <time>2021-11-11T22:55:37.590Z</time>
      </trkpt>
      <trkpt lat="47.496280" lon="8.000664">
        <ele>371.906548</ele>
        <time>2021-11-11T22:55:37.725Z</time>
      </trkpt>
      <trkpt lat="47.496429" lon="8.000925">
        <ele>371.580582</ele>
        <time>2021-11-11T22:55:40.395Z</time>
      </trkpt>
      <trkpt lat="47.496517" lon="8.001077">
        <ele>371.389625</ele>
        <time>2021-11-11T22:55:42.103Z</time>
      </trkpt>
      <trkpt lat="47.496533" lon="8.001104">
        <ele>371.355365</ele>
        <time>2021-11-11T22:55:42.355Z</time>
      </trkpt>
      <trkpt lat="47.496535" lon="8.001108">
        <ele>371.350618</ele>
        <time>2021-11-11T22:55:42.395Z</time>
      </trkpt>
      <trkpt lat="47.496585" lon="8.001187">
        <ele>371.247353</ele>
        <time>2021-11-11T22:55:43.192Z</time>
      </trkpt>
      <trkpt lat="47.496820" lon="8.001547">
        <ele>370.769819</ele>
        <time>2021-11-11T22:55:47.085Z</time>
      </trkpt>
      <trkpt lat="47.496861" lon="8.001608">
        <ele>370.687736</ele>
        <time>2021-11-11T22:55:47.718Z</time>
      </trkpt>
      <trkpt lat="47.496908" lon="8.001680">
        <ele>370.592230</ele>
        <time>2021-11-11T22:55:48.482Z</time>
      </trkpt>
      <trkpt lat="47.496932" lon="8.001715">
        <ele>370.544658</ele>
        <time>2021-11-11T22:55:48.847Z</time>
      </trkpt>
      <trkpt lat="47.497207" lon="8.002132">
        <ele>369.984767</ele>
        <time>2021-11-11T22:55:53.148Z</time>
      </trkpt>
      <trkpt lat="47.497264" lon="8.002219">
        <ele>369.832721</ele>
        <time>2021-11-11T22:55:54.090Z</time>
      </trkpt>
      <trkpt lat="47.497307" lon="8.002279">
        <ele>369.722981</ele>
        <time>2021-11-11T22:55:54.723Z</time>
      </trkpt>
      <trkpt lat="47.497390" lon="8.002409">
        <ele>369.498575</ele>
        <time>2021-11-11T22:55:56.085Z</time>
      </trkpt>
      <trkpt lat="47.497540" lon="8.002634">
        <ele>369.101993</ele>
        <time>2021-11-11T22:55:58.484Z</time>
      </trkpt>
      <trkpt lat="47.497607" lon="8.002710">
        <ele>368.945239</ele>
        <time>2021-11-11T22:55:59.403Z</time>
      </trkpt>
      <trkpt lat="47.497951" lon="8.003094">
        <ele>368.145130</ele>
        <time>2021-11-11T22:56:04.274Z</time>
      </trkpt>
      <trkpt lat="47.498072" lon="8.003250">
        <ele>367.847147</ele>
        <time>2021-11-11T22:56:06.006Z</time>
      </trkpt>
      <trkpt lat="47.498166" lon="8.003383">
        <ele>367.605665</ele>
        <time>2021-11-11T22:56:07.484Z</time>
      </trkpt>
      <trkpt lat="47.498213" lon="8.003454">
        <ele>367.480957</ele>
        <time>2021-11-11T22:56:08.251Z</time>
      </trkpt>
      <trkpt lat="47.498450" lon="8.003874">
        <ele>366.794406</ele>
        <time>2021-11-11T22:56:12.327Z</time>
      </trkpt>
      <trkpt lat="47.498698" lon="8.004313">
        <ele>366.221732</ele>
        <time>2021-11-11T22:56:16.568Z</time>
      </trkpt>
      <trkpt lat="47.498753" lon="8.004410">
        <ele>366.102313</ele>
        <time>2021-11-11T22:56:17.483Z</time>
      </trkpt>
      <trkpt lat="47.498898" lon="8.004636">
        <ele>365.808399</ele>
        <time>2021-11-11T22:56:19.980Z</time>
      </trkpt>
      <trkpt lat="47.498965" lon="8.004710">
        <ele>365.691712</ele>
        <time>2021-11-11T22:56:20.914Z</time>
      </trkpt>
      <trkpt lat="47.499012" lon="8.004762">
        <ele>365.609807</ele>
        <time>2021-11-11T22:56:21.571Z</time>
      </trkpt>
      <trkpt lat="47.499183" lon="8.004875">
        <ele>365.348414</ele>
        <time>2021-11-11T22:56:23.860Z</time>
      </trkpt>
      <trkpt lat="47.499409" lon="8.005000">
        <ele>365.011653</ele>
        <time>2021-11-11T22:56:26.706Z</time>
      </trkpt>
      <trkpt lat="47.499496" lon="8.005059">
        <ele>364.878078</ele>
        <time>2021-11-11T22:56:27.878Z</time>
      </trkpt>
      <trkpt lat="47.499523" lon="8.005078">
        <ele>364.836348</ele>
        <time>2021-11-11T22:56:28.222Z</time>
      </trkpt>
      <trkpt lat="47.499586" lon="8.005126">
        <ele>364.737445</ele>
        <time>2021-11-11T22:56:29.041Z</time>
      </trkpt>
      <trkpt lat="47.499770" lon="8.005268">
        <ele>364.447801</ele>
        <time>2021-11-11T22:56:31.550Z</time>
      </trkpt>
      <trkpt lat="47.499810" lon="8.005300">
        <ele>364.384335</ele>
        <time>2021-11-11T22:56:32.089Z</time>
      </trkpt>
      <trkpt lat="47.499856" lon="8.005338">
        <ele>364.310805</ele>
        <time>2021-11-11T22:56:32.706Z</time>
      </trkpt>
      <trkpt lat="47.499880" lon="8.005358">
        <ele>364.272361</ele>
        <time>2021-11-11T22:56:33.013Z</time>
      </trkpt>
      <trkpt lat="47.499991" lon="8.005468">
        <ele>364.123840</ele>
        <time>2021-11-11T22:56:34.591Z</time>
      </trkpt>
      <trkpt lat="47.500009" lon="8.005488">
        <ele>364.110782</ele>
        <time>2021-11-11T22:56:34.886Z</time>
      </trkpt>
      <trkpt lat="47.500207" lon="8.005727">
        <ele>363.962550</ele>
        <time>2021-11-11T22:56:38.033Z</time>
      </trkpt>
      <trkpt lat="47.500252" lon="8.005784">
        <ele>363.928187</ele>
        <time>2021-11-11T22:56:38.829Z</time>
      </trkpt>
      <trkpt lat="47.500310" lon="8.005852">
        <ele>363.885259</ele>
        <time>2021-11-11T22:56:39.768Z</time>
      </trkpt>
      <trkpt lat="47.500540" lon="8.006079">
        <ele>363.724873</ele>
        <time>2021-11-11T22:56:43.320Z</time>
      </trkpt>
      <trkpt lat="47.500647" lon="8.006180">
        <ele>363.651245</ele>
        <time>2021-11-11T22:56:45.054Z</time>
      </trkpt>
      <trkpt lat="47.500764" lon="8.006290">
        <ele>363.570827</ele>
        <time>2021-11-11T22:56:46.796Z</time>
      </trkpt>
      <trkpt lat="47.500997" lon="8.006551">
        <ele>363.401298</ele>
        <time>2021-11-11T22:56:50.948Z</time>
      </trkpt>
      <trkpt lat="47.501276" lon="8.006911">
        <ele>363.186558</ele>
        <time>2021-11-11T22:56:56.381Z</time>
      </trkpt>
      <trkpt lat="47.501293" lon="8.006936">
        <ele>363.172655</ele>
        <time>2021-11-11T22:56:56.706Z</time>
      </trkpt>
      <trkpt lat="47.501496" lon="8.007247">
        <ele>362.941481</ele>
        <time>2021-11-11T22:57:00.660Z</time>
      </trkpt>
      <trkpt lat="47.501537" lon="8.007308">
        <ele>362.887777</ele>
        <time>2021-11-11T22:57:01.404Z</time>
      </trkpt>
      <trkpt lat="47.501943" lon="8.008353">
        <ele>362.135420</ele>
        <time>2021-11-11T22:57:11.877Z</time>
      </trkpt>
      <trkpt lat="47.502062" lon="8.008650">
        <ele>361.919910</ele>
        <time>2021-11-11T22:57:14.816Z</time>
      </trkpt>
      <trkpt lat="47.502158" lon="8.008808">
        <ele>361.787286</ele>
        <time>2021-11-11T22:57:16.360Z</time>
      </trkpt>
      <trkpt lat="47.502267" lon="8.008979">
        <ele>361.640556</ele>
        <time>2021-11-11T22:57:18.299Z</time>
      </trkpt>
      <trkpt lat="47.502773" lon="8.009928">
        <ele>359.986855</ele>
        <time>2021-11-11T22:57:27.579Z</time>
      </trkpt>
      <trkpt lat="47.502959" lon="8.010415">
        <ele>359.076690</ele>
        <time>2021-11-11T22:57:31.491Z</time>
      </trkpt>
      <trkpt lat="47.502991" lon="8.010405">
        <ele>358.997927</ele>
        <time>2021-11-11T22:57:31.784Z</time>
      </trkpt>
      <trkpt lat="47.503467" lon="8.010296">
        <ele>357.837956</ele>
        <time>2021-11-11T22:57:36.775Z</time>
      </trkpt>
      <trkpt lat="47.504018" lon="8.010447">
        <ele>356.635512</ele>
        <time>2021-11-11T22:57:42.707Z</time>
      </trkpt>
      <trkpt lat="47.504178" lon="8.010516">
        <ele>356.328520</ele>
        <time>2021-11-11T22:57:44.356Z</time>
      </trkpt>
      <trkpt lat="47.504256" lon="8.010566">
        <ele>356.171941</ele>
        <time>2021-11-11T22:57:45.240Z</time>
      </trkpt>
      <trkpt lat="47.504446" lon="8.010688">
        <ele>355.790430</ele>
        <time>2021-11-11T22:57:47.443Z</time>
      </trkpt>
      <trkpt lat="47.505237" lon="8.011270">
        <ele>354.163250</ele>
        <time>2021-11-11T22:57:57.445Z</time>
      </trkpt>
      <trkpt lat="47.505388" lon="8.011390">
        <ele>353.847543</ele>
        <time>2021-11-11T22:57:59.650Z</time>
      </trkpt>
      <trkpt lat="47.505808" lon="8.011926">
        <ele>353.905011</ele>
        <time>2021-11-11T22:58:07.472Z</time>
      </trkpt>
      <trkpt lat="47.506101" lon="8.012240">
        <ele>353.976324</ele>
        <time>2021-11-11T22:58:13.856Z</time>
      </trkpt>
      <trkpt lat="47.506308" lon="8.012429">
        <ele>354.024272</ele>
        <time>2021-11-11T22:58:18.182Z</time>
      </trkpt>
      <trkpt lat="47.506346" lon="8.012464">
        <ele>354.033096</ele>
        <time>2021-11-11T22:58:18.955Z</time>
      </trkpt>
      <trkpt lat="47.506389" lon="8.012514">
        <ele>354.043876</ele>
        <time>2021-11-11T22:58:19.906Z</time>
      </trkpt>
      <trkpt lat="47.506472" lon="8.012743">
        <ele>354.078486</ele>
        <time>2021-11-11T22:58:22.994Z</time>
      </trkpt>
      <trkpt lat="47.506492" lon="8.012798">
        <ele>354.086804</ele>
        <time>2021-11-11T22:58:23.797Z</time>
      </trkpt>
      <trkpt lat="47.506533" lon="8.012868">
        <ele>354.099143</ele>
        <time>2021-11-11T22:58:24.791Z</time>
      </trkpt>
      <trkpt lat="47.506633" lon="8.012949">
        <ele>354.121616</ele>
        <time>2021-11-11T22:58:26.663Z</time>
      </trkpt>
      <trkpt lat="47.506663" lon="8.012973">
        <ele>354.128339</ele>
        <time>2021-11-11T22:58:27.181Z</time>
      </trkpt>
      <trkpt lat="47.506697" lon="8.013001">
        <ele>354.136010</ele>
        <time>2021-11-11T22:58:27.769Z</time>
      </trkpt>
      <trkpt lat="47.506760" lon="8.013057">
        <ele>354.150497</ele>
        <time>2021-11-11T22:58:28.950Z</time>
      </trkpt>
      <trkpt lat="47.506825" lon="8.013107">
        <ele>354.182798</ele>
        <time>2021-11-11T22:58:30.146Z</time>
      </trkpt>
      <trkpt lat="47.506890" lon="8.013159">
        <ele>354.224361</ele>
        <time>2021-11-11T22:58:31.328Z</time>
      </trkpt>
      <trkpt lat="47.506929" lon="8.013191">
        <ele>354.249445</ele>
        <time>2021-11-11T22:58:31.976Z</time>
      </trkpt>
      <trkpt lat="47.506955" lon="8.013213">
        <ele>354.266292</ele>
        <time>2021-11-11T22:58:32.409Z</time>
      </trkpt>
      <trkpt lat="47.506989" lon="8.013246">
        <ele>354.289162</ele>
        <time>2021-11-11T22:58:33.007Z</time>
      </trkpt>
      <trkpt lat="47.507007" lon="8.013263">
        <ele>354.301173</ele>
        <time>2021-11-11T22:58:33.316Z</time>
      </trkpt>
      <trkpt lat="47.507038" lon="8.013279">
        <ele>354.319642</ele>
        <time>2021-11-11T22:58:33.841Z</time>
      </trkpt>
      <trkpt lat="47.507084" lon="8.013290">
        <ele>354.345854</ele>
        <time>2021-11-11T22:58:34.520Z</time>
      </trkpt>
      <trkpt lat="47.507106" lon="8.013288">
        <ele>354.358253</ele>
        <time>2021-11-11T22:58:34.885Z</time>
      </trkpt>
      <trkpt lat="47.507191" lon="8.013279">
        <ele>354.406192</ele>
        <time>2021-11-11T22:58:36.332Z</time>
      </trkpt>
      <trkpt lat="47.507231" lon="8.013292">
        <ele>354.429229</ele>
        <time>2021-11-11T22:58:37.017Z</time>
      </trkpt>
      <trkpt lat="47.507559" lon="8.013585">
        <ele>354.644733</ele>
        <time>2021-11-11T22:58:43.396Z</time>
      </trkpt>
      <trkpt lat="47.507595" lon="8.013616">
        <ele>354.668161</ele>
        <time>2021-11-11T22:58:43.992Z</time>
      </trkpt>
      <trkpt lat="47.508011" lon="8.013995">
        <ele>354.942944</ele>
        <time>2021-11-11T22:58:52.336Z</time>
      </trkpt>
      <trkpt lat="47.508075" lon="8.014054">
        <ele>354.985357</ele>
        <time>2021-11-11T22:58:53.643Z</time>
      </trkpt>
      <trkpt lat="47.508214" lon="8.014183">
        <ele>355.077645</ele>
        <time>2021-11-11T22:58:56.609Z</time>
      </trkpt>
      <trkpt lat="47.508281" lon="8.014277">
        <ele>355.129572</ele>
        <time>2021-11-11T22:58:58.115Z</time>
      </trkpt>
      <trkpt lat="47.508333" lon="8.014419">
        <ele>355.220174</ele>
        <time>2021-11-11T22:59:00.347Z</time>
      </trkpt>
      <trkpt lat="47.508375" lon="8.014403">
        <ele>355.274489</ele>
        <time>2021-11-11T22:59:01.394Z</time>
      </trkpt>
      <trkpt lat="47.508562" lon="8.014341">
        <ele>355.514493</ele>
        <time>2021-11-11T22:59:04.526Z</time>
      </trkpt>
      <trkpt lat="47.508646" lon="8.014383">
        <ele>355.625534</ele>
        <time>2021-11-11T22:59:06.436Z</time>
      </trkpt>
      <trkpt lat="47.508749" lon="8.014436">
        <ele>355.762103</ele>
        <time>2021-11-11T22:59:08.723Z</time>
      </trkpt>
      <trkpt lat="47.509142" lon="8.014737">
        <ele>356.316272</ele>
        <time>2021-11-11T22:59:17.567Z</time>
      </trkpt>
      <trkpt lat="47.509444" lon="8.014982">
        <ele>356.747567</ele>
        <time>2021-11-11T22:59:25.242Z</time>
      </trkpt>
      <trkpt lat="47.509546" lon="8.015060">
        <ele>356.891350</ele>
        <time>2021-11-11T22:59:27.443Z</time>
      </trkpt>
      <trkpt lat="47.509612" lon="8.015079">
        <ele>356.975558</ele>
        <time>2021-11-11T22:59:29.195Z</time>
      </trkpt>
      <trkpt lat="47.509686" lon="8.015069">
        <ele>357.068622</ele>
        <time>2021-11-11T22:59:31.060Z</time>
      </trkpt>
      <trkpt lat="47.509799" lon="8.014989">
        <ele>357.225494</ele>
        <time>2021-11-11T22:59:33.538Z</time>
      </trkpt>
      <trkpt lat="47.509823" lon="8.014904">
        <ele>357.303431</ele>
        <time>2021-11-11T22:59:34.663Z</time>
      </trkpt>
      <trkpt lat="47.509848" lon="8.014785">
        <ele>357.408857</ele>
        <time>2021-11-11T22:59:36.618Z</time>
      </trkpt>
      <trkpt lat="47.509891" lon="8.014585">
        <ele>357.343889</ele>
        <time>2021-11-11T22:59:39.495Z</time>
      </trkpt>
      <trkpt lat="47.509928" lon="8.014411">
        <ele>357.273617</ele>
        <time>2021-11-11T22:59:41.449Z</time>
      </trkpt>
      <trkpt lat="47.510028" lon="8.013857">
        <ele>357.052715</ele>
        <time>2021-11-11T22:59:47.071Z</time>
      </trkpt>
      <trkpt lat="47.510139" lon="8.013722">
        <ele>356.970788</ele>
        <time>2021-11-11T22:59:49.434Z</time>
      </trkpt>
      <trkpt lat="47.510195" lon="8.013657">
        <ele>356.930205</ele>
        <time>2021-11-11T22:59:50.261Z</time>
      </trkpt>
      <trkpt lat="47.510610" lon="8.013245">
        <ele>356.645239</ele>
        <time>2021-11-11T22:59:56.080Z</time>
      </trkpt>
      <trkpt lat="47.511060" lon="8.012793">
        <ele>356.236632</ele>
        <time>2021-11-11T23:00:02.358Z</time>
      </trkpt>
      <trkpt lat="47.511153" lon="8.012630">
        <ele>356.016970</ele>
        <time>2021-11-11T23:00:03.847Z</time>
      </trkpt>
      <trkpt lat="47.511240" lon="8.012453">
        <ele>355.791610</ele>
        <time>2021-11-11T23:00:05.620Z</time>
      </trkpt>
      <trkpt lat="47.511339" lon="8.012189">
        <ele>355.480747</ele>
        <time>2021-11-11T23:00:07.735Z</time>
      </trkpt>
      <trkpt lat="47.511369" lon="8.012112">
        <ele>355.389235</ele>
        <time>2021-11-11T23:00:08.392Z</time>
      </trkpt>
      <trkpt lat="47.511725" lon="8.011067">
        <ele>354.184336</ele>
        <time>2021-11-11T23:00:17.155Z</time>
      </trkpt>
      <trkpt lat="47.511743" lon="8.011016">
        <ele>354.125097</ele>
        <time>2021-11-11T23:00:17.803Z</time>
      </trkpt>
      <trkpt lat="47.511819" lon="8.010960">
        <ele>353.995707</ele>
        <time>2021-11-11T23:00:19.210Z</time>
      </trkpt>
      <trkpt lat="47.512231" lon="8.010689">
        <ele>353.645593</ele>
        <time>2021-11-11T23:00:27.597Z</time>
      </trkpt>
      <trkpt lat="47.512828" lon="8.010284">
        <ele>353.625311</ele>
        <time>2021-11-11T23:00:42.047Z</time>
      </trkpt>
      <trkpt lat="47.513001" lon="8.010158">
        <ele>353.619356</ele>
        <time>2021-11-11T23:00:46.148Z</time>
      </trkpt>
      <trkpt lat="47.513230" lon="8.010045">
        <ele>353.611900</ele>
        <time>2021-11-11T23:00:51.399Z</time>
      </trkpt>
      <trkpt lat="47.513914" lon="8.009618">
        <ele>353.261263</ele>
        <time>2021-11-11T23:01:06.343Z</time>
      </trkpt>
      <trkpt lat="47.514240" lon="8.009205">
        <ele>352.707719</ele>
        <time>2021-11-11T23:01:14.128Z</time>
      </trkpt>
      <trkpt lat="47.514604" lon="8.008601">
        <ele>352.002350</ele>
        <time>2021-11-11T23:01:23.269Z</time>
      </trkpt>
      <trkpt lat="47.514868" lon="8.008490">
        <ele>351.648282</ele>
        <time>2021-11-11T23:01:27.630Z</time>
      </trkpt>
      <trkpt lat="47.515777" lon="8.008451">
        <ele>349.335478</ele>
        <time>2021-11-11T23:01:41.314Z</time>
      </trkpt>
      <trkpt lat="47.516279" lon="8.008426">
        <ele>347.766036</ele>
        <time>2021-11-11T23:01:48.499Z</time>
      </trkpt>
      <trkpt lat="47.516778" lon="8.008407">
        <ele>346.206339</ele>
        <time>2021-11-11T23:01:55.670Z</time>
      </trkpt>
      <trkpt lat="47.516850" lon="8.008403">
        <ele>345.981209</ele>
        <time>2021-11-11T23:01:56.670Z</time>
      </trkpt>
      <trkpt lat="47.516886" lon="8.008468">
        <ele>345.803816</ele>
        <time>2021-11-11T23:01:57.430Z</time>
      </trkpt>
      <trkpt lat="47.516966" lon="8.008595">
        <ele>345.514614</ele>
        <time>2021-11-11T23:01:59.210Z</time>
      </trkpt>
      <trkpt lat="47.517345" lon="8.009165">
        <ele>344.422074</ele>
        <time>2021-11-11T23:02:07.204Z</time>
      </trkpt>
      <trkpt lat="47.517409" lon="8.009275">
        <ele>344.223764</ele>
        <time>2021-11-11T23:02:08.620Z</time>
      </trkpt>
      <trkpt lat="47.517508" lon="8.009440">
        <ele>343.922305</ele>
        <time>2021-11-11T23:02:11.043Z</time>
      </trkpt>
      <trkpt lat="47.517564" lon="8.009350">
        <ele>343.755159</ele>
        <time>2021-11-11T23:02:12.335Z</time>
      </trkpt>
      <trkpt lat="47.517615" lon="8.009232">
        <ele>343.563810</ele>
        <time>2021-11-11T23:02:13.695Z</time>
      </trkpt>
      <trkpt lat="47.517791" lon="8.009018">
        <ele>343.103233</ele>
        <time>2021-11-11T23:02:17.563Z</time>
      </trkpt>
      <trkpt lat="47.517851" lon="8.008946">
        <ele>342.947043</ele>
        <time>2021-11-11T23:02:18.725Z</time>
      </trkpt>
      <trkpt lat="47.518239" lon="8.008485">
        <ele>342.056566</ele>
        <time>2021-11-11T23:02:27.274Z</time>
      </trkpt>
      <trkpt lat="47.518926" lon="8.007732">
        <ele>342.894126</ele>
        <time>2021-11-11T23:02:46.004Z</time>
      </trkpt>
      <trkpt lat="47.520956" lon="8.005345">
        <ele>346.728099</ele>
        <time>2021-11-11T23:03:58.778Z</time>
      </trkpt>
      <trkpt lat="47.521277" lon="8.005104">
        <ele>346.830401</ele>
        <time>2021-11-11T23:04:07.446Z</time>
      </trkpt>
      <trkpt lat="47.521327" lon="8.004951">
        <ele>346.787334</ele>
        <time>2021-11-11T23:04:09.990Z</time>
      </trkpt>
      <trkpt lat="47.521214" lon="8.004538">
        <ele>346.674428</ele>
        <time>2021-11-11T23:04:16.231Z</time>
      </trkpt>
      <trkpt lat="47.521488" lon="8.004236">
        <ele>346.546273</ele>
        <time>2021-11-11T23:04:22.411Z</time>
      </trkpt>
      <trkpt lat="47.521691" lon="8.004044">
        <ele>346.455898</ele>
        <time>2021-11-11T23:04:26.859Z</time>
      </trkpt>
      <trkpt lat="47.521941" lon="8.003805">
        <ele>346.344251</ele>
        <time>2021-11-11T23:04:31.794Z</time>
      </trkpt>
      <trkpt lat="47.522286" lon="8.003405">
        <ele>345.953243</ele>
        <time>2021-11-11T23:04:39.076Z</time>
      </trkpt>
      <trkpt lat="47.522593" lon="8.003040">
        <ele>345.318849</ele>
        <time>2021-11-11T23:04:45.220Z</time>
      </trkpt>
      <trkpt lat="47.522812" lon="8.002772">
        <ele>344.861061</ele>
        <time>2021-11-11T23:04:49.621Z</time>
      </trkpt>
      <trkpt lat="47.526232" lon="7.998874">
        <ele>338.329403</ele>
        <time>2021-11-11T23:06:00.346Z</time>
      </trkpt>
      <trkpt lat="47.526462" lon="7.998465">
        <ele>338.018842</ele>
        <time>2021-11-11T23:06:06.896Z</time>
      </trkpt>
      <trkpt lat="47.526659" lon="7.997896">
        <ele>337.969417</ele>
        <time>2021-11-11T23:06:14.907Z</time>
      </trkpt>
      <trkpt lat="47.527005" lon="7.997436">
        <ele>337.916192</ele>
        <time>2021-11-11T23:06:24.313Z</time>
      </trkpt>
      <trkpt lat="47.527061" lon="7.997361">
        <ele>337.907549</ele>
        <time>2021-11-11T23:06:26.045Z</time>
      </trkpt>
      <trkpt lat="47.527239" lon="7.997118">
        <ele>337.879837</ele>
        <time>2021-11-11T23:06:31.102Z</time>
      </trkpt>
      <trkpt lat="47.527390" lon="7.996879">
        <ele>337.854538</ele>
        <time>2021-11-11T23:06:36.769Z</time>
      </trkpt>
      <trkpt lat="47.528522" lon="7.994788">
        <ele>336.858648</ele>
        <time>2021-11-11T23:07:12.407Z</time>
      </trkpt>
      <trkpt lat="47.528851" lon="7.994185">
        <ele>335.816590</ele>
        <time>2021-11-11T23:07:20.237Z</time>
      </trkpt>
      <trkpt lat="47.529180" lon="7.994531">
        <ele>334.634574</ele>
        <time>2021-11-11T23:07:26.068Z</time>
      </trkpt>
      <trkpt lat="47.529261" lon="7.994394">
        <ele>334.274397</ele>
        <time>2021-11-11T23:07:27.324Z</time>
      </trkpt>
      <trkpt lat="47.529350" lon="7.994228">
        <ele>333.855144</ele>
        <time>2021-11-11T23:07:28.751Z</time>
      </trkpt>
      <trkpt lat="47.530141" lon="7.992757">
        <ele>331.086105</ele>
        <time>2021-11-11T23:07:41.506Z</time>
      </trkpt>
      <trkpt lat="47.530495" lon="7.992103">
        <ele>330.617853</ele>
        <time>2021-11-11T23:07:49.408Z</time>
      </trkpt>
      <trkpt lat="47.530776" lon="7.991586">
        <ele>330.247092</ele>
        <time>2021-11-11T23:07:56.734Z</time>
      </trkpt>
      <trkpt lat="47.530933" lon="7.991310">
        <ele>330.045487</ele>
        <time>2021-11-11T23:08:00.393Z</time>
      </trkpt>
      <trkpt lat="47.530979" lon="7.991211">
        <ele>329.978352</ele>
        <time>2021-11-11T23:08:01.923Z</time>
      </trkpt>
      <trkpt lat="47.531363" lon="7.990436">
        <ele>330.508930</ele>
        <time>2021-11-11T23:08:13.272Z</time>
      </trkpt>
      <trkpt lat="47.531667" lon="7.989873">
        <ele>330.916313</ele>
        <time>2021-11-11T23:08:23.092Z</time>
      </trkpt>
      <trkpt lat="47.531823" lon="7.989607">
        <ele>331.115419</ele>
        <time>2021-11-11T23:08:27.785Z</time>
      </trkpt>
      <trkpt lat="47.531897" lon="7.989450">
        <ele>331.223620</ele>
        <time>2021-11-11T23:08:30.311Z</time>
      </trkpt>
      <trkpt lat="47.532014" lon="7.989225">
        <ele>331.384106</ele>
        <time>2021-11-11T23:08:34.078Z</time>
      </trkpt>
      <trkpt lat="47.532299" lon="7.988577">
        <ele>331.040284</ele>
        <time>2021-11-11T23:08:42.594Z</time>
      </trkpt>
      <trkpt lat="47.532373" lon="7.988399">
        <ele>330.890015</ele>
        <time>2021-11-11T23:08:44.862Z</time>
      </trkpt>
      <trkpt lat="47.532401" lon="7.988331">
        <ele>330.832759</ele>
        <time>2021-11-11T23:08:45.702Z</time>
      </trkpt>
      <trkpt lat="47.532464" lon="7.988171">
        <ele>330.699611</ele>
        <time>2021-11-11T23:08:47.074Z</time>
      </trkpt>
      <trkpt lat="47.532544" lon="7.987973">
        <ele>330.533737</ele>
        <time>2021-11-11T23:08:49.039Z</time>
      </trkpt>
      <trkpt lat="47.532621" lon="7.987826">
        <ele>330.399992</ele>
        <time>2021-11-11T23:08:50.400Z</time>
      </trkpt>
      <trkpt lat="47.532716" lon="7.987667">
        <ele>330.247365</ele>
        <time>2021-11-11T23:08:52.055Z</time>
      </trkpt>
      <trkpt lat="47.532879" lon="7.987447">
        <ele>330.012568</ele>
        <time>2021-11-11T23:08:54.467Z</time>
      </trkpt>
      <trkpt lat="47.533114" lon="7.987128">
        <ele>329.673175</ele>
        <time>2021-11-11T23:08:58.000Z</time>
      </trkpt>
      <trkpt lat="47.533142" lon="7.987165">
        <ele>329.633222</ele>
        <time>2021-11-11T23:08:58.341Z</time>
      </trkpt>
      <trkpt lat="47.533195" lon="7.987215">
        <ele>329.566318</ele>
        <time>2021-11-11T23:08:59.057Z</time>
      </trkpt>
      <trkpt lat="47.533509" lon="7.987411">
        <ele>328.749159</ele>
        <time>2021-11-11T23:09:02.657Z</time>
      </trkpt>
      <trkpt lat="47.533728" lon="7.987557">
        <ele>328.169750</ele>
        <time>2021-11-11T23:09:05.226Z</time>
      </trkpt>
      <trkpt lat="47.534072" lon="7.987749">
        <ele>327.282853</ele>
        <time>2021-11-11T23:09:09.096Z</time>
      </trkpt>
      <trkpt lat="47.534280" lon="7.987862">
        <ele>326.748345</ele>
        <time>2021-11-11T23:09:11.393Z</time>
      </trkpt>
      <trkpt lat="47.534363" lon="7.987895">
        <ele>326.541012</ele>
        <time>2021-11-11T23:09:12.271Z</time>
      </trkpt>
      <trkpt lat="47.534466" lon="7.987626">
        <ele>326.037292</ele>
        <time>2021-11-11T23:09:14.435Z</time>
      </trkpt>
      <trkpt lat="47.534590" lon="7.987330">
        <ele>325.469883</ele>
        <time>2021-11-11T23:09:16.912Z</time>
      </trkpt>
      <trkpt lat="47.534974" lon="7.986602">
        <ele>324.766551</ele>
        <time>2021-11-11T23:09:23.892Z</time>
      </trkpt>
      <trkpt lat="47.535270" lon="7.985985">
        <ele>324.319143</ele>
        <time>2021-11-11T23:09:30.393Z</time>
      </trkpt>
      <trkpt lat="47.535614" lon="7.985212">
        <ele>323.771893</ele>
        <time>2021-11-11T23:09:38.874Z</time>
      </trkpt>
      <trkpt lat="47.535807" lon="7.984740">
        <ele>323.988518</ele>
        <time>2021-11-11T23:09:44.683Z</time>
      </trkpt>
      <trkpt lat="47.536026" lon="7.984206">
        <ele>324.608687</ele>
        <time>2021-11-11T23:09:51.777Z</time>
      </trkpt>
      <trkpt lat="47.536199" lon="7.983737">
        <ele>325.139159</ele>
        <time>2021-11-11T23:09:58.883Z</time>
      </trkpt>
      <trkpt lat="47.536410" lon="7.983244">
        <ele>325.718543</ele>
        <time>2021-11-11T23:10:08.030Z</time>
      </trkpt>
      <trkpt lat="47.536530" lon="7.982859">
        <ele>326.139443</ele>
        <time>2021-11-11T23:10:15.253Z</time>
      </trkpt>
      <trkpt lat="47.536550" lon="7.982803">
        <ele>326.202325</ele>
        <time>2021-11-11T23:10:16.481Z</time>
      </trkpt>
      <trkpt lat="47.536764" lon="7.982225">
        <ele>327.381714</ele>
        <time>2021-11-11T23:10:29.003Z</time>
      </trkpt>
      <trkpt lat="47.536775" lon="7.982096">
        <ele>327.630936</ele>
        <time>2021-11-11T23:10:31.387Z</time>
      </trkpt>
      <trkpt lat="47.536842" lon="7.981878">
        <ele>328.090043</ele>
        <time>2021-11-11T23:10:36.137Z</time>
      </trkpt>
      <trkpt lat="47.536896" lon="7.981697">
        <ele>328.469336</ele>
        <time>2021-11-11T23:10:39.987Z</time>
      </trkpt>
      <trkpt lat="47.536959" lon="7.981602">
        <ele>328.724578</ele>
        <time>2021-11-11T23:10:42.330Z</time>
      </trkpt>
      <trkpt lat="47.537107" lon="7.981082">
        <ele>329.806224</ele>
        <time>2021-11-11T23:10:53.045Z</time>
      </trkpt>
      <trkpt lat="47.537461" lon="7.980118">
        <ele>331.434847</ele>
        <time>2021-11-11T23:11:11.523Z</time>
      </trkpt>
      <trkpt lat="47.537583" lon="7.979760">
        <ele>331.488475</ele>
        <time>2021-11-11T23:11:17.527Z</time>
      </trkpt>
      <trkpt lat="47.537955" lon="7.978125">
        <ele>331.719204</ele>
        <time>2021-11-11T23:11:33.870Z</time>
      </trkpt>
      <trkpt lat="47.538107" lon="7.977240">
        <ele>330.996273</ele>
        <time>2021-11-11T23:11:40.776Z</time>
      </trkpt>
      <trkpt lat="47.538242" lon="7.976347">
        <ele>329.913340</ele>
        <time>2021-11-11T23:11:47.652Z</time>
      </trkpt>
      <trkpt lat="47.538706" lon="7.974459">
        <ele>327.262405</ele>
        <time>2021-11-11T23:12:02.582Z</time>
      </trkpt>
      <trkpt lat="47.539262" lon="7.971768">
        <ele>322.937907</ele>
        <time>2021-11-11T23:12:22.926Z</time>
      </trkpt>
      <trkpt lat="47.539783" lon="7.969587">
        <ele>319.468107</ele>
        <time>2021-11-11T23:12:39.406Z</time>
      </trkpt>
      <trkpt lat="47.540214" lon="7.967628">
        <ele>317.008624</ele>
        <time>2021-11-11T23:12:55.206Z</time>
      </trkpt>
      <trkpt lat="47.540896" lon="7.964711">
        <ele>315.083202</ele>
        <time>2021-11-11T23:13:21.311Z</time>
      </trkpt>
      <trkpt lat="47.541095" lon="7.964204">
        <ele>314.749004</ele>
        <time>2021-11-11T23:13:26.348Z</time>
      </trkpt>
      <trkpt lat="47.541169" lon="7.964123">
        <ele>314.671335</ele>
        <time>2021-11-11T23:13:27.306Z</time>
      </trkpt>
      <trkpt lat="47.541129" lon="7.964008">
        <ele>314.597615</ele>
        <time>2021-11-11T23:13:28.749Z</time>
      </trkpt>
      <trkpt lat="47.541019" lon="7.963815">
        <ele>314.453679</ele>
        <time>2021-11-11T23:13:31.099Z</time>
      </trkpt>
      <trkpt lat="47.541123" lon="7.963520">
        <ele>314.264031</ele>
        <time>2021-11-11T23:13:33.832Z</time>
      </trkpt>
      <trkpt lat="47.541217" lon="7.963187">
        <ele>314.058351</ele>
        <time>2021-11-11T23:13:36.734Z</time>
      </trkpt>
      <trkpt lat="47.541258" lon="7.962975">
        <ele>313.932685</ele>
        <time>2021-11-11T23:13:39.129Z</time>
      </trkpt>
      <trkpt lat="47.541293" lon="7.962730">
        <ele>313.693912</ele>
        <time>2021-11-11T23:13:41.113Z</time>
      </trkpt>
      <trkpt lat="47.541308" lon="7.962513">
        <ele>313.401213</ele>
        <time>2021-11-11T23:13:43.137Z</time>
      </trkpt>
      <trkpt lat="47.541314" lon="7.962377">
        <ele>313.218336</ele>
        <time>2021-11-11T23:13:44.491Z</time>
      </trkpt>
      <trkpt lat="47.541316" lon="7.962197">
        <ele>312.976774</ele>
        <time>2021-11-11T23:13:45.835Z</time>
      </trkpt>
      <trkpt lat="47.541242" lon="7.961294">
        <ele>311.756209</ele>
        <time>2021-11-11T23:13:52.859Z</time>
      </trkpt>
      <trkpt lat="47.541153" lon="7.960814">
        <ele>311.088278</ele>
        <time>2021-11-11T23:13:56.389Z</time>
      </trkpt>
      <trkpt lat="47.541060" lon="7.960321">
        <ele>310.401412</ele>
        <time>2021-11-11T23:13:59.979Z</time>
      </trkpt>
      <trkpt lat="47.541027" lon="7.959944">
        <ele>309.573151</ele>
        <time>2021-11-11T23:14:02.481Z</time>
      </trkpt>
      <trkpt lat="47.541019" lon="7.959792">
        <ele>309.203541</ele>
        <time>2021-11-11T23:14:03.526Z</time>
      </trkpt>
      <trkpt lat="47.541012" lon="7.959578">
        <ele>308.684136</ele>
        <time>2021-11-11T23:14:05.001Z</time>
      </trkpt>
      <trkpt lat="47.541016" lon="7.959388">
        <ele>308.223297</ele>
        <time>2021-11-11T23:14:06.203Z</time>
      </trkpt>
      <trkpt lat="47.541081" lon="7.958828">
        <ele>306.845776</ele>
        <time>2021-11-11T23:14:09.972Z</time>
      </trkpt>
      <trkpt lat="47.541226" lon="7.958150">
        <ele>305.121602</ele>
        <time>2021-11-11T23:14:14.733Z</time>
      </trkpt>
      <trkpt lat="47.541305" lon="7.957787">
        <ele>304.196989</ele>
        <time>2021-11-11T23:14:17.217Z</time>
      </trkpt>
      <trkpt lat="47.541355" lon="7.957559">
        <ele>303.712262</ele>
        <time>2021-11-11T23:14:18.918Z</time>
      </trkpt>
      <trkpt lat="47.541450" lon="7.956897">
        <ele>302.822939</ele>
        <time>2021-11-11T23:14:23.553Z</time>
      </trkpt>
      <trkpt lat="47.541464" lon="7.956698">
        <ele>302.560031</ele>
        <time>2021-11-11T23:14:24.958Z</time>
      </trkpt>
      <trkpt lat="47.541533" lon="7.955526">
        <ele>301.014149</ele>
        <time>2021-11-11T23:14:33.792Z</time>
      </trkpt>
      <trkpt lat="47.541554" lon="7.955311">
        <ele>300.728692</ele>
        <time>2021-11-11T23:14:35.830Z</time>
      </trkpt>
      <trkpt lat="47.541735" lon="7.953892">
        <ele>300.388098</ele>
        <time>2021-11-11T23:14:50.039Z</time>
      </trkpt>
      <trkpt lat="47.541773" lon="7.953695">
        <ele>300.399418</ele>
        <time>2021-11-11T23:14:52.286Z</time>
      </trkpt>
      <trkpt lat="47.541791" lon="7.953601">
        <ele>300.404816</ele>
        <time>2021-11-11T23:14:53.321Z</time>
      </trkpt>
      <trkpt lat="47.541991" lon="7.952667">
        <ele>300.458953</ele>
        <time>2021-11-11T23:15:04.177Z</time>
      </trkpt>
      <trkpt lat="47.542169" lon="7.951815">
        <ele>300.569295</ele>
        <time>2021-11-11T23:15:13.915Z</time>
      </trkpt>
      <trkpt lat="47.542192" lon="7.951713">
        <ele>300.585387</ele>
        <time>2021-11-11T23:15:15.177Z</time>
      </trkpt>
      <trkpt lat="47.542357" lon="7.951037">
        <ele>300.692951</ele>
        <time>2021-11-11T23:15:22.642Z</time>
      </trkpt>
      <trkpt lat="47.542444" lon="7.950687">
        <ele>300.748761</ele>
        <time>2021-11-11T23:15:26.473Z</time>
      </trkpt>
      <trkpt lat="47.542546" lon="7.950274">
        <ele>300.814567</ele>
        <time>2021-11-11T23:15:30.834Z</time>
      </trkpt>
      <trkpt lat="47.542554" lon="7.950231">
        <ele>300.821241</ele>
        <time>2021-11-11T23:15:31.334Z</time>
      </trkpt>
      <trkpt lat="47.542560" lon="7.950202">
        <ele>300.825780</ele>
        <time>2021-11-11T23:15:31.662Z</time>
      </trkpt>
      <trkpt lat="47.542609" lon="7.949914">
        <ele>300.870223</ele>
        <time>2021-11-11T23:15:34.638Z</time>
      </trkpt>
      <trkpt lat="47.542719" lon="7.949175">
        <ele>301.278217</ele>
        <time>2021-11-11T23:15:42.566Z</time>
      </trkpt>
      <trkpt lat="47.542826" lon="7.948298">
        <ele>301.761680</ele>
        <time>2021-11-11T23:15:53.484Z</time>
      </trkpt>
      <trkpt lat="47.542838" lon="7.948225">
        <ele>301.802438</ele>
        <time>2021-11-11T23:15:54.312Z</time>
      </trkpt>
      <trkpt lat="47.542850" lon="7.948153">
        <ele>301.842669</ele>
        <time>2021-11-11T23:15:55.085Z</time>
      </trkpt>
      <trkpt lat="47.542875" lon="7.948001">
        <ele>301.927538</ele>
        <time>2021-11-11T23:15:57.195Z</time>
      </trkpt>
      <trkpt lat="47.542928" lon="7.947798">
        <ele>302.045611</ele>
        <time>2021-11-11T23:16:00.118Z</time>
      </trkpt>
      <trkpt lat="47.542957" lon="7.947651">
        <ele>302.128691</ele>
        <time>2021-11-11T23:16:01.854Z</time>
      </trkpt>
      <trkpt lat="47.543050" lon="7.947411">
        <ele>302.278812</ele>
        <time>2021-11-11T23:16:06.190Z</time>
      </trkpt>
      <trkpt lat="47.543087" lon="7.947317">
        <ele>302.366844</ele>
        <time>2021-11-11T23:16:07.469Z</time>
      </trkpt>
      <trkpt lat="47.543092" lon="7.947257">
        <ele>302.444468</ele>
        <time>2021-11-11T23:16:08.259Z</time>
      </trkpt>
      <trkpt lat="47.543097" lon="7.947186">
        <ele>302.536126</ele>
        <time>2021-11-11T23:16:09.130Z</time>
      </trkpt>
      <trkpt lat="47.543086" lon="7.947052">
        <ele>302.709447</ele>
        <time>2021-11-11T23:16:10.946Z</time>
      </trkpt>
      <trkpt lat="47.543056" lon="7.946935">
        <ele>302.870147</ele>
        <time>2021-11-11T23:16:13.305Z</time>
      </trkpt>
      <trkpt lat="47.543045" lon="7.946881">
        <ele>302.942570</ele>
        <time>2021-11-11T23:16:14.417Z</time>
      </trkpt>
      <trkpt lat="47.542982" lon="7.946547">
        <ele>303.387850</ele>
        <time>2021-11-11T23:16:19.025Z</time>
      </trkpt>
      <trkpt lat="47.542974" lon="7.946495">
        <ele>303.456329</ele>
        <time>2021-11-11T23:16:20.230Z</time>
      </trkpt>
      <trkpt lat="47.542960" lon="7.946400">
        <ele>303.581181</ele>
        <time>2021-11-11T23:16:22.066Z</time>
      </trkpt>
      <trkpt lat="47.542916" lon="7.945730">
        <ele>304.445516</ele>
        <time>2021-11-11T23:16:32.642Z</time>
      </trkpt>
      <trkpt lat="47.542913" lon="7.945267">
        <ele>305.040032</ele>
        <time>2021-11-11T23:16:40.129Z</time>
      </trkpt>
      <trkpt lat="47.543007" lon="7.943867">
        <ele>306.092668</ele>
        <time>2021-11-11T23:17:00.868Z</time>
      </trkpt>
      <trkpt lat="47.543161" lon="7.942213">
        <ele>306.778825</ele>
        <time>2021-11-11T23:17:19.078Z</time>
      </trkpt>
      <trkpt lat="47.543435" lon="7.940670">
        <ele>305.595944</ele>
        <time>2021-11-11T23:17:32.000Z</time>
      </trkpt>
      <trkpt lat="47.543538" lon="7.940343">
        <ele>305.291096</ele>
        <time>2021-11-11T23:17:34.749Z</time>
      </trkpt>
      <trkpt lat="47.543826" lon="7.939433">
        <ele>304.382641</ele>
        <time>2021-11-11T23:17:42.386Z</time>
      </trkpt>
      <trkpt lat="47.544472" lon="7.937932">
        <ele>302.239932</ele>
        <time>2021-11-11T23:17:55.769Z</time>
      </trkpt>
      <trkpt lat="47.544705" lon="7.937395">
        <ele>301.471544</ele>
        <time>2021-11-11T23:18:00.631Z</time>
      </trkpt>
      <trkpt lat="47.544903" lon="7.936917">
        <ele>300.879878</ele>
        <time>2021-11-11T23:18:04.891Z</time>
      </trkpt>
      <trkpt lat="47.545074" lon="7.936484">
        <ele>300.363151</ele>
        <time>2021-11-11T23:18:08.722Z</time>
      </trkpt>
      <trkpt lat="47.545457" lon="7.935110">
        <ele>298.831973</ele>
        <time>2021-11-11T23:18:20.098Z</time>
      </trkpt>
      <trkpt lat="47.545674" lon="7.933625">
        <ele>298.629646</ele>
        <time>2021-11-11T23:18:33.180Z</time>
      </trkpt>
      <trkpt lat="47.545702" lon="7.933290">
        <ele>298.629587</ele>
        <time>2021-11-11T23:18:36.729Z</time>
      </trkpt>
      <trkpt lat="47.545711" lon="7.933076">
        <ele>298.629549</ele>
        <time>2021-11-11T23:18:39.304Z</time>
      </trkpt>
      <trkpt lat="47.545724" lon="7.932758">
        <ele>298.629494</ele>
        <time>2021-11-11T23:18:42.996Z</time>
      </trkpt>
      <trkpt lat="47.545721" lon="7.931992">
        <ele>299.013420</ele>
        <time>2021-11-11T23:18:53.068Z</time>
      </trkpt>
      <trkpt lat="47.545696" lon="7.931497">
        <ele>299.659319</ele>
        <time>2021-11-11T23:19:00.272Z</time>
      </trkpt>
      <trkpt lat="47.545661" lon="7.930955">
        <ele>300.367794</ele>
        <time>2021-11-11T23:19:08.969Z</time>
      </trkpt>
      <trkpt lat="47.545563" lon="7.929641">
        <ele>302.087991</ele>
        <time>2021-11-11T23:19:31.276Z</time>
      </trkpt>
      <trkpt lat="47.545475" lon="7.928419">
        <ele>301.929127</ele>
        <time>2021-11-11T23:19:47.578Z</time>
      </trkpt>
      <trkpt lat="47.545421" lon="7.927686">
        <ele>301.828048</ele>
        <time>2021-11-11T23:19:53.682Z</time>
      </trkpt>
      <trkpt lat="47.545406" lon="7.927306">
        <ele>301.775868</ele>
        <time>2021-11-11T23:19:56.586Z</time>
      </trkpt>
      <trkpt lat="47.545407" lon="7.927001">
        <ele>301.734057</ele>
        <time>2021-11-11T23:19:58.872Z</time>
      </trkpt>
      <trkpt lat="47.545409" lon="7.926773">
        <ele>301.227424</ele>
        <time>2021-11-11T23:20:00.502Z</time>
      </trkpt>
      <trkpt lat="47.545417" lon="7.925848">
        <ele>298.992945</ele>
        <time>2021-11-11T23:20:06.837Z</time>
      </trkpt>
      <trkpt lat="47.545446" lon="7.925350">
        <ele>297.785581</ele>
        <time>2021-11-11T23:20:10.128Z</time>
      </trkpt>
      <trkpt lat="47.545466" lon="7.924880">
        <ele>296.648064</ele>
        <time>2021-11-11T23:20:13.182Z</time>
      </trkpt>
      <trkpt lat="47.545481" lon="7.924396">
        <ele>295.477753</ele>
        <time>2021-11-11T23:20:16.265Z</time>
      </trkpt>
      <trkpt lat="47.545521" lon="7.923709">
        <ele>294.251424</ele>
        <time>2021-11-11T23:20:20.790Z</time>
      </trkpt>
      <trkpt lat="47.545536" lon="7.923407">
        <ele>293.736642</ele>
        <time>2021-11-11T23:20:22.938Z</time>
      </trkpt>
      <trkpt lat="47.545553" lon="7.923142">
        <ele>293.284117</ele>
        <time>2021-11-11T23:20:24.769Z</time>
      </trkpt>
      <trkpt lat="47.545587" lon="7.922895">
        <ele>292.855580</ele>
        <time>2021-11-11T23:20:26.703Z</time>
      </trkpt>
      <trkpt lat="47.545641" lon="7.922610">
        <ele>292.352360</ele>
        <time>2021-11-11T23:20:28.849Z</time>
      </trkpt>
      <trkpt lat="47.545690" lon="7.922369">
        <ele>291.924483</ele>
        <time>2021-11-11T23:20:30.855Z</time>
      </trkpt>
      <trkpt lat="47.545699" lon="7.922325">
        <ele>291.846325</ele>
        <time>2021-11-11T23:20:31.149Z</time>
      </trkpt>
      <trkpt lat="47.545714" lon="7.922249">
        <ele>291.711717</ele>
        <time>2021-11-11T23:20:31.739Z</time>
      </trkpt>
      <trkpt lat="47.545778" lon="7.921947">
        <ele>291.173617</ele>
        <time>2021-11-11T23:20:34.442Z</time>
      </trkpt>
      <trkpt lat="47.545810" lon="7.921755">
        <ele>290.837420</ele>
        <time>2021-11-11T23:20:35.923Z</time>
      </trkpt>
      <trkpt lat="47.545881" lon="7.921096">
        <ele>290.569365</ele>
        <time>2021-11-11T23:20:41.384Z</time>
      </trkpt>
      <trkpt lat="47.545913" lon="7.920765">
        <ele>290.464544</ele>
        <time>2021-11-11T23:20:44.277Z</time>
      </trkpt>
      <trkpt lat="47.545973" lon="7.920313">
        <ele>290.320138</ele>
        <time>2021-11-11T23:20:48.748Z</time>
      </trkpt>
      <trkpt lat="47.546128" lon="7.919617">
        <ele>290.090388</ele>
        <time>2021-11-11T23:20:55.988Z</time>
      </trkpt>
      <trkpt lat="47.546262" lon="7.919081">
        <ele>289.908708</ele>
        <time>2021-11-11T23:21:02.037Z</time>
      </trkpt>
      <trkpt lat="47.546821" lon="7.916867">
        <ele>289.068702</ele>
        <time>2021-11-11T23:21:22.705Z</time>
      </trkpt>
      <trkpt lat="47.547032" lon="7.916218">
        <ele>288.918581</ele>
        <time>2021-11-11T23:21:29.012Z</time>
      </trkpt>
      <trkpt lat="47.547091" lon="7.916039">
        <ele>288.891798</ele>
        <time>2021-11-11T23:21:30.786Z</time>
      </trkpt>
      <trkpt lat="47.547113" lon="7.915971">
        <ele>288.881659</ele>
        <time>2021-11-11T23:21:31.376Z</time>
      </trkpt>
      <trkpt lat="47.547423" lon="7.915080">
        <ele>288.746883</ele>
        <time>2021-11-11T23:21:40.863Z</time>
      </trkpt>
      <trkpt lat="47.547994" lon="7.913433">
        <ele>289.099012</ele>
        <time>2021-11-11T23:22:00.568Z</time>
      </trkpt>
      <trkpt lat="47.548027" lon="7.913334">
        <ele>289.154540</ele>
        <time>2021-11-11T23:22:01.927Z</time>
      </trkpt>
      <trkpt lat="47.548412" lon="7.912168">
        <ele>289.807328</ele>
        <time>2021-11-11T23:22:18.330Z</time>
      </trkpt>
      <trkpt lat="47.549012" lon="7.910340">
        <ele>291.260060</ele>
        <time>2021-11-11T23:22:45.239Z</time>
      </trkpt>
      <trkpt lat="47.549102" lon="7.910058">
        <ele>291.495031</ele>
        <time>2021-11-11T23:22:49.319Z</time>
      </trkpt>
      <trkpt lat="47.549195" lon="7.909756">
        <ele>291.745075</ele>
        <time>2021-11-11T23:22:53.571Z</time>
      </trkpt>
      <trkpt lat="47.549333" lon="7.909298">
        <ele>292.206066</ele>
        <time>2021-11-11T23:22:59.911Z</time>
      </trkpt>
      <trkpt lat="47.549520" lon="7.908678">
        <ele>292.999929</ele>
        <time>2021-11-11T23:23:08.436Z</time>
      </trkpt>
      <trkpt lat="47.549539" lon="7.908625">
        <ele>293.070084</ele>
        <time>2021-11-11T23:23:09.143Z</time>
      </trkpt>
      <trkpt lat="47.550444" lon="7.905729">
        <ele>298.054038</ele>
        <time>2021-11-11T23:23:59.677Z</time>
      </trkpt>
      <trkpt lat="47.550497" lon="7.905558">
        <ele>298.434903</ele>
        <time>2021-11-11T23:24:03.745Z</time>
      </trkpt>
      <trkpt lat="47.550283" lon="7.905413">
        <ele>299.140591</ele>
        <time>2021-11-11T23:24:11.768Z</time>
      </trkpt>
      <trkpt lat="47.550067" lon="7.905245">
        <ele>299.872181</ele>
        <time>2021-11-11T23:24:20.675Z</time>
      </trkpt>
      <trkpt lat="47.549867" lon="7.905155">
        <ele>300.504444</ele>
        <time>2021-11-11T23:24:28.479Z</time>
      </trkpt>
      <trkpt lat="47.549868" lon="7.905010">
        <ele>300.888173</ele>
        <time>2021-11-11T23:24:31.937Z</time>
      </trkpt>
      <trkpt lat="47.550025" lon="7.904774">
        <ele>301.765056</ele>
        <time>2021-11-11T23:24:40.182Z</time>
      </trkpt>
      <trkpt lat="47.550302" lon="7.904164">
        <ele>303.710604</ele>
        <time>2021-11-11T23:24:58.964Z</time>
      </trkpt>
      <trkpt lat="47.550498" lon="7.903445">
        <ele>305.762576</ele>
        <time>2021-11-11T23:25:18.537Z</time>
      </trkpt>
      <trkpt lat="47.550688" lon="7.902451">
        <ele>308.494603</ele>
        <time>2021-11-11T23:25:41.085Z</time>
      </trkpt>
      <trkpt lat="47.550757" lon="7.901591">
        <ele>310.782149</ele>
        <time>2021-11-11T23:26:00.881Z</time>
      </trkpt>
      <trkpt lat="47.550769" lon="7.901362">
        <ele>311.388836</ele>
        <time>2021-11-11T23:26:06.789Z</time>
      </trkpt>
      <trkpt lat="47.550801" lon="7.900244">
        <ele>314.344506</ele>
        <time>2021-11-11T23:26:31.187Z</time>
      </trkpt>
      <trkpt lat="47.550819" lon="7.898109">
        <ele>319.984040</ele>
        <time>2021-11-11T23:27:18.227Z</time>
      </trkpt>
      <trkpt lat="47.550648" lon="7.896481">
        <ele>322.752627</ele>
        <time>2021-11-11T23:27:45.882Z</time>
      </trkpt>
      <trkpt lat="47.550639" lon="7.896345">
        <ele>322.903858</ele>
        <time>2021-11-11T23:27:48.257Z</time>
      </trkpt>
      <trkpt lat="47.550660" lon="7.896255">
        <ele>323.009244</ele>
        <time>2021-11-11T23:27:49.058Z</time>
      </trkpt>
      <trkpt lat="47.550838" lon="7.895509">
        <ele>323.884905</ele>
        <time>2021-11-11T23:27:59.226Z</time>
      </trkpt>
      <trkpt lat="47.550878" lon="7.895158">
        <ele>324.278850</ele>
        <time>2021-11-11T23:28:03.288Z</time>
      </trkpt>
      <trkpt lat="47.550908" lon="7.894308">
        <ele>325.413292</ele>
        <time>2021-11-11T23:28:13.760Z</time>
      </trkpt>
      <trkpt lat="47.550892" lon="7.893176">
        <ele>327.031376</ele>
        <time>2021-11-11T23:28:28.478Z</time>
      </trkpt>
      <trkpt lat="47.550904" lon="7.891725">
        <ele>330.314253</ele>
        <time>2021-11-11T23:28:58.240Z</time>
      </trkpt>
      <trkpt lat="47.550915" lon="7.890600">
        <ele>334.561421</ele>
        <time>2021-11-11T23:29:27.080Z</time>
      </trkpt>
      <trkpt lat="47.550833" lon="7.889069">
        <ele>340.542875</ele>
        <time>2021-11-11T23:30:09.714Z</time>
      </trkpt>
      <trkpt lat="47.550831" lon="7.888611">
        <ele>342.436540</ele>
        <time>2021-11-11T23:30:22.284Z</time>
      </trkpt>
      <trkpt lat="47.550789" lon="7.887816">
        <ele>345.733566</ele>
        <time>2021-11-11T23:30:42.895Z</time>
      </trkpt>
      <trkpt lat="47.550758" lon="7.887295">
        <ele>347.896026</ele>
        <time>2021-11-11T23:30:56.717Z</time>
      </trkpt>
      <trkpt lat="47.550677" lon="7.886476">
        <ele>351.020582</ele>
        <time>2021-11-11T23:31:18.206Z</time>
      </trkpt>
      <trkpt lat="47.550548" lon="7.885799">
        <ele>353.466378</ele>
        <time>2021-11-11T23:31:35.409Z</time>
      </trkpt>
      <trkpt lat="47.550391" lon="7.885109">
        <ele>355.998031</ele>
        <time>2021-11-11T23:31:53.046Z</time>
      </trkpt>
      <trkpt lat="47.550332" lon="7.884727">
        <ele>357.360505</ele>
        <time>2021-11-11T23:32:01.737Z</time>
      </trkpt>
      <trkpt lat="47.550234" lon="7.883221">
        <ele>361.487218</ele>
        <time>2021-11-11T23:32:34.568Z</time>
      </trkpt>
      <trkpt lat="47.549927" lon="7.881490">
        <ele>365.975526</ele>
        <time>2021-11-11T23:33:06.832Z</time>
      </trkpt>
      <trkpt lat="47.549726" lon="7.880786">
        <ele>368.077794</ele>
        <time>2021-11-11T23:33:22.808Z</time>
      </trkpt>
      <trkpt lat="47.549327" lon="7.879547">
        <ele>371.853341</ele>
        <time>2021-11-11T23:33:52.592Z</time>
      </trkpt>
      <trkpt lat="47.549318" lon="7.879398">
        <ele>372.264767</ele>
        <time>2021-11-11T23:33:55.781Z</time>
      </trkpt>
      <trkpt lat="47.549140" lon="7.879391">
        <ele>372.909164</ele>
        <time>2021-11-11T23:34:02.651Z</time>
      </trkpt>
      <trkpt lat="47.548718" lon="7.879258">
        <ele>374.282838</ele>
        <time>2021-11-11T23:34:16.322Z</time>
      </trkpt>
      <trkpt lat="47.548422" lon="7.878959">
        <ele>375.423484</ele>
        <time>2021-11-11T23:34:26.968Z</time>
      </trkpt>
      <trkpt lat="47.548234" lon="7.878638">
        <ele>376.336815</ele>
        <time>2021-11-11T23:34:35.400Z</time>
      </trkpt>
      <trkpt lat="47.547992" lon="7.877974">
        <ele>377.958517</ele>
        <time>2021-11-11T23:34:48.498Z</time>
      </trkpt>
      <trkpt lat="47.547574" lon="7.876801">
        <ele>377.281927</ele>
        <time>2021-11-11T23:35:02.261Z</time>
      </trkpt>
      <trkpt lat="47.547126" lon="7.875801">
        <ele>376.167928</ele>
        <time>2021-11-11T23:35:11.044Z</time>
      </trkpt>
      <trkpt lat="47.546309" lon="7.874154">
        <ele>369.749339</ele>
        <time>2021-11-11T23:35:24.232Z</time>
      </trkpt>
      <trkpt lat="47.546135" lon="7.873859">
        <ele>368.359230</ele>
        <time>2021-11-11T23:35:26.614Z</time>
      </trkpt>
      <trkpt lat="47.546077" lon="7.873763">
        <ele>367.902062</ele>
        <time>2021-11-11T23:35:27.425Z</time>
      </trkpt>
      <trkpt lat="47.545934" lon="7.873549">
        <ele>366.833545</ele>
        <time>2021-11-11T23:35:29.230Z</time>
      </trkpt>
      <trkpt lat="47.545746" lon="7.873302">
        <ele>365.233006</ele>
        <time>2021-11-11T23:35:31.518Z</time>
      </trkpt>
      <trkpt lat="47.545515" lon="7.873015">
        <ele>363.158326</ele>
        <time>2021-11-11T23:35:34.217Z</time>
      </trkpt>
      <trkpt lat="47.545478" lon="7.872968">
        <ele>362.822922</ele>
        <time>2021-11-11T23:35:34.659Z</time>
      </trkpt>
      <trkpt lat="47.545375" lon="7.872836">
        <ele>361.885708</ele>
        <time>2021-11-11T23:35:35.852Z</time>
      </trkpt>
      <trkpt lat="47.545131" lon="7.872664">
        <ele>360.026196</ele>
        <time>2021-11-11T23:35:38.311Z</time>
      </trkpt>
      <trkpt lat="47.544883" lon="7.872555">
        <ele>358.246028</ele>
        <time>2021-11-11T23:35:40.633Z</time>
      </trkpt>
      <trkpt lat="47.544390" lon="7.872423">
        <ele>354.798419</ele>
        <time>2021-11-11T23:35:45.098Z</time>
      </trkpt>
      <trkpt lat="47.543332" lon="7.872237">
        <ele>348.757422</ele>
        <time>2021-11-11T23:35:54.865Z</time>
      </trkpt>
      <trkpt lat="47.543251" lon="7.872152">
        <ele>348.208479</ele>
        <time>2021-11-11T23:35:55.806Z</time>
      </trkpt>
      <trkpt lat="47.543233" lon="7.872082">
        <ele>347.928847</ele>
        <time>2021-11-11T23:35:56.227Z</time>
      </trkpt>
      <trkpt lat="47.543013" lon="7.872182">
        <ele>346.656225</ele>
        <time>2021-11-11T23:35:58.467Z</time>
      </trkpt>
      <trkpt lat="47.542919" lon="7.872226">
        <ele>346.111056</ele>
        <time>2021-11-11T23:35:59.388Z</time>
      </trkpt>
      <trkpt lat="47.542814" lon="7.872280">
        <ele>345.496391</ele>
        <time>2021-11-11T23:36:00.441Z</time>
      </trkpt>
      <trkpt lat="47.542714" lon="7.872334">
        <ele>344.907777</ele>
        <time>2021-11-11T23:36:01.529Z</time>
      </trkpt>
      <trkpt lat="47.542537" lon="7.872430">
        <ele>344.092817</ele>
        <time>2021-11-11T23:36:03.260Z</time>
      </trkpt>
      <trkpt lat="47.542436" lon="7.872494">
        <ele>344.092817</ele>
        <time>2021-11-11T23:36:04.612Z</time>
      </trkpt>
      <trkpt lat="47.542394" lon="7.872341">
        <ele>344.092817</ele>
        <time>2021-11-11T23:36:05.698Z</time>
      </trkpt>
      <trkpt lat="47.542218" lon="7.871866">
        <ele>344.092817</ele>
        <time>2021-11-11T23:36:09.366Z</time>
      </trkpt>
      <trkpt lat="47.542091" lon="7.871721">
        <ele>344.092817</ele>
        <time>2021-11-11T23:36:10.883Z</time>
      </trkpt>
      <trkpt lat="47.542067" lon="7.871664">
        <ele>344.092817</ele>
        <time>2021-11-11T23:36:11.629Z</time>
      </trkpt>
      <trkpt lat="47.542039" lon="7.871556">
        <ele>344.092817</ele>
        <time>2021-11-11T23:36:12.531Z</time>
      </trkpt>
      <trkpt lat="47.541953" lon="7.871286">
        <ele>344.092817</ele>
        <time>2021-11-11T23:36:14.707Z</time>
      </trkpt>
      <trkpt lat="47.541796" lon="7.871042">
        <ele>344.092817</ele>
        <time>2021-11-11T23:36:17.266Z</time>
      </trkpt>
      <trkpt lat="47.541638" lon="7.870770">
        <ele>344.092817</ele>
        <time>2021-11-11T23:36:20.080Z</time>
      </trkpt>
    </trkseg>
  </trk>
</gpx>